<?xml version="1.0" encoding="UTF-8" standalone="no" ?>
<gpx xmlns="http://www.topografix.com/GPX/1/1" xmlns:xsi="http://www.w3.org/2001/XMLSchema-instance" xsi:schemaLocation="http://www.topografix.com/GPX/1/1 http://www.topografix.com/GPX/1/1/gpx.xsd" version="1.1" creator="VisuGPX - https://www.visugpx.com">
  <metadata>
    <name>Rando en boucle de 22 km autour de Dourdan (91)</name>
    <desc><![CDATA[Très belle randonnée dans la forêt de Dourdan. Dénivélé intéressant, tout en forêt. Niveau moyen. Passage par l'Abbaye de l'Ouye. récit sur [url]http://trekkingzone.wordpress.com[/url]]]></desc>
  </metadata>
  <trk>
    <name><![CDATA[19 nov. 2017 à 09:56:23]]></name>
    <cmt><![CDATA[19 nov. 2017 à 09:56:23]]></cmt>
    <trkseg>
      <trkpt lat="48.53336" lon="2.00953">
        <ele>129</ele>
        <time>2017-11-19T08:56:24Z</time>
      </trkpt>
      <trkpt lat="48.53338" lon="2.00952">
        <ele>125</ele>
        <time>2017-11-19T08:56:34Z</time>
      </trkpt>
      <trkpt lat="48.53344" lon="2.00961">
        <ele>121</ele>
        <time>2017-11-19T08:57:19Z</time>
      </trkpt>
      <trkpt lat="48.53343" lon="2.0096">
        <ele>119</ele>
        <time>2017-11-19T08:58:37Z</time>
      </trkpt>
      <trkpt lat="48.53338" lon="2.00964">
        <ele>120</ele>
        <time>2017-11-19T08:59:21Z</time>
      </trkpt>
      <trkpt lat="48.53338" lon="2.00957">
        <ele>120</ele>
        <time>2017-11-19T08:59:53Z</time>
      </trkpt>
      <trkpt lat="48.53333" lon="2.00958">
        <ele>120</ele>
        <time>2017-11-19T09:00:05Z</time>
      </trkpt>
      <trkpt lat="48.53329" lon="2.00963">
        <ele>120</ele>
        <time>2017-11-19T09:00:11Z</time>
      </trkpt>
      <trkpt lat="48.53324" lon="2.00958">
        <ele>122</ele>
        <time>2017-11-19T09:00:40Z</time>
      </trkpt>
      <trkpt lat="48.53316" lon="2.00957">
        <ele>122</ele>
        <time>2017-11-19T09:00:48Z</time>
      </trkpt>
      <trkpt lat="48.53298" lon="2.00956">
        <ele>122</ele>
        <time>2017-11-19T09:01:01Z</time>
      </trkpt>
      <trkpt lat="48.53294" lon="2.00951">
        <ele>121</ele>
        <time>2017-11-19T09:01:06Z</time>
      </trkpt>
      <trkpt lat="48.53279" lon="2.00955">
        <ele>121</ele>
        <time>2017-11-19T09:01:25Z</time>
      </trkpt>
      <trkpt lat="48.53268" lon="2.00952">
        <ele>121</ele>
        <time>2017-11-19T09:01:30Z</time>
      </trkpt>
      <trkpt lat="48.53248" lon="2.00949">
        <ele>121</ele>
        <time>2017-11-19T09:01:45Z</time>
      </trkpt>
      <trkpt lat="48.53237" lon="2.00945">
        <ele>121</ele>
        <time>2017-11-19T09:01:52Z</time>
      </trkpt>
      <trkpt lat="48.5323" lon="2.00943">
        <ele>120</ele>
        <time>2017-11-19T09:02:00Z</time>
      </trkpt>
      <trkpt lat="48.53225" lon="2.00942">
        <ele>120</ele>
        <time>2017-11-19T09:02:04Z</time>
      </trkpt>
      <trkpt lat="48.53219" lon="2.00942">
        <ele>120</ele>
        <time>2017-11-19T09:02:08Z</time>
      </trkpt>
      <trkpt lat="48.53214" lon="2.00948">
        <ele>120</ele>
        <time>2017-11-19T09:02:14Z</time>
      </trkpt>
      <trkpt lat="48.53199" lon="2.00955">
        <ele>119</ele>
        <time>2017-11-19T09:02:26Z</time>
      </trkpt>
      <trkpt lat="48.53187" lon="2.00965">
        <ele>118</ele>
        <time>2017-11-19T09:02:36Z</time>
      </trkpt>
      <trkpt lat="48.53183" lon="2.00972">
        <ele>117</ele>
        <time>2017-11-19T09:02:41Z</time>
      </trkpt>
      <trkpt lat="48.53178" lon="2.00974">
        <ele>117</ele>
        <time>2017-11-19T09:02:44Z</time>
      </trkpt>
      <trkpt lat="48.5317" lon="2.00983">
        <ele>116</ele>
        <time>2017-11-19T09:02:52Z</time>
      </trkpt>
      <trkpt lat="48.53169" lon="2.00991">
        <ele>116</ele>
        <time>2017-11-19T09:02:56Z</time>
      </trkpt>
      <trkpt lat="48.53164" lon="2.00996">
        <ele>116</ele>
        <time>2017-11-19T09:03:02Z</time>
      </trkpt>
      <trkpt lat="48.53146" lon="2.01008">
        <ele>115</ele>
        <time>2017-11-19T09:03:13Z</time>
      </trkpt>
      <trkpt lat="48.53138" lon="2.01023">
        <ele>114</ele>
        <time>2017-11-19T09:03:23Z</time>
      </trkpt>
      <trkpt lat="48.53134" lon="2.01027">
        <ele>114</ele>
        <time>2017-11-19T09:03:28Z</time>
      </trkpt>
      <trkpt lat="48.53118" lon="2.01035">
        <ele>113</ele>
        <time>2017-11-19T09:03:39Z</time>
      </trkpt>
      <trkpt lat="48.53095" lon="2.01056">
        <ele>112</ele>
        <time>2017-11-19T09:04:00Z</time>
      </trkpt>
      <trkpt lat="48.5309" lon="2.01059">
        <ele>112</ele>
        <time>2017-11-19T09:04:03Z</time>
      </trkpt>
      <trkpt lat="48.5308" lon="2.0106">
        <ele>112</ele>
        <time>2017-11-19T09:04:12Z</time>
      </trkpt>
      <trkpt lat="48.53073" lon="2.0107">
        <ele>111</ele>
        <time>2017-11-19T09:04:20Z</time>
      </trkpt>
      <trkpt lat="48.53069" lon="2.01084">
        <ele>111</ele>
        <time>2017-11-19T09:04:27Z</time>
      </trkpt>
      <trkpt lat="48.53062" lon="2.01098">
        <ele>111</ele>
        <time>2017-11-19T09:04:35Z</time>
      </trkpt>
      <trkpt lat="48.53057" lon="2.01103">
        <ele>111</ele>
        <time>2017-11-19T09:04:40Z</time>
      </trkpt>
      <trkpt lat="48.53043" lon="2.01118">
        <ele>110</ele>
        <time>2017-11-19T09:04:52Z</time>
      </trkpt>
      <trkpt lat="48.53037" lon="2.01122">
        <ele>110</ele>
        <time>2017-11-19T09:04:55Z</time>
      </trkpt>
      <trkpt lat="48.5303" lon="2.01129">
        <ele>109</ele>
        <time>2017-11-19T09:05:03Z</time>
      </trkpt>
      <trkpt lat="48.53026" lon="2.01134">
        <ele>109</ele>
        <time>2017-11-19T09:05:06Z</time>
      </trkpt>
      <trkpt lat="48.53021" lon="2.01147">
        <ele>108</ele>
        <time>2017-11-19T09:05:14Z</time>
      </trkpt>
      <trkpt lat="48.53018" lon="2.01152">
        <ele>108</ele>
        <time>2017-11-19T09:05:17Z</time>
      </trkpt>
      <trkpt lat="48.53015" lon="2.01159">
        <ele>108</ele>
        <time>2017-11-19T09:05:20Z</time>
      </trkpt>
      <trkpt lat="48.53004" lon="2.01174">
        <ele>107</ele>
        <time>2017-11-19T09:05:31Z</time>
      </trkpt>
      <trkpt lat="48.53" lon="2.01177">
        <ele>107</ele>
        <time>2017-11-19T09:05:34Z</time>
      </trkpt>
      <trkpt lat="48.52987" lon="2.01166">
        <ele>107</ele>
        <time>2017-11-19T09:05:45Z</time>
      </trkpt>
      <trkpt lat="48.52975" lon="2.0115">
        <ele>106</ele>
        <time>2017-11-19T09:05:58Z</time>
      </trkpt>
      <trkpt lat="48.52941" lon="2.01133">
        <ele>105</ele>
        <time>2017-11-19T09:06:24Z</time>
      </trkpt>
      <trkpt lat="48.52931" lon="2.01132">
        <ele>105</ele>
        <time>2017-11-19T09:06:32Z</time>
      </trkpt>
      <trkpt lat="48.52927" lon="2.01126">
        <ele>105</ele>
        <time>2017-11-19T09:06:36Z</time>
      </trkpt>
      <trkpt lat="48.52914" lon="2.01111">
        <ele>102</ele>
        <time>2017-11-19T09:07:03Z</time>
      </trkpt>
      <trkpt lat="48.52909" lon="2.01113">
        <ele>102</ele>
        <time>2017-11-19T09:07:06Z</time>
      </trkpt>
      <trkpt lat="48.52897" lon="2.01114">
        <ele>100</ele>
        <time>2017-11-19T09:07:15Z</time>
      </trkpt>
      <trkpt lat="48.52882" lon="2.01119">
        <ele>98</ele>
        <time>2017-11-19T09:07:25Z</time>
      </trkpt>
      <trkpt lat="48.52871" lon="2.01115">
        <ele>97</ele>
        <time>2017-11-19T09:07:32Z</time>
      </trkpt>
      <trkpt lat="48.52863" lon="2.01107">
        <ele>97</ele>
        <time>2017-11-19T09:07:40Z</time>
      </trkpt>
      <trkpt lat="48.5284" lon="2.01092">
        <ele>95</ele>
        <time>2017-11-19T09:08:04Z</time>
      </trkpt>
      <trkpt lat="48.52834" lon="2.01094">
        <ele>95</ele>
        <time>2017-11-19T09:08:08Z</time>
      </trkpt>
      <trkpt lat="48.52831" lon="2.01104">
        <ele>95</ele>
        <time>2017-11-19T09:08:15Z</time>
      </trkpt>
      <trkpt lat="48.52826" lon="2.01112">
        <ele>95</ele>
        <time>2017-11-19T09:08:19Z</time>
      </trkpt>
      <trkpt lat="48.52823" lon="2.01128">
        <ele>96</ele>
        <time>2017-11-19T09:08:26Z</time>
      </trkpt>
      <trkpt lat="48.5282" lon="2.01135">
        <ele>96</ele>
        <time>2017-11-19T09:08:30Z</time>
      </trkpt>
      <trkpt lat="48.52813" lon="2.01144">
        <ele>96</ele>
        <time>2017-11-19T09:08:43Z</time>
      </trkpt>
      <trkpt lat="48.52802" lon="2.01138">
        <ele>97</ele>
        <time>2017-11-19T09:08:52Z</time>
      </trkpt>
      <trkpt lat="48.52797" lon="2.01132">
        <ele>97</ele>
        <time>2017-11-19T09:08:57Z</time>
      </trkpt>
      <trkpt lat="48.52788" lon="2.01126">
        <ele>97</ele>
        <time>2017-11-19T09:09:04Z</time>
      </trkpt>
      <trkpt lat="48.52774" lon="2.0112">
        <ele>97</ele>
        <time>2017-11-19T09:09:15Z</time>
      </trkpt>
      <trkpt lat="48.5277" lon="2.01116">
        <ele>96</ele>
        <time>2017-11-19T09:09:20Z</time>
      </trkpt>
      <trkpt lat="48.52765" lon="2.01114">
        <ele>96</ele>
        <time>2017-11-19T09:09:25Z</time>
      </trkpt>
      <trkpt lat="48.5276" lon="2.01116">
        <ele>96</ele>
        <time>2017-11-19T09:09:29Z</time>
      </trkpt>
      <trkpt lat="48.52756" lon="2.01115">
        <ele>96</ele>
        <time>2017-11-19T09:09:32Z</time>
      </trkpt>
      <trkpt lat="48.52752" lon="2.0111">
        <ele>96</ele>
        <time>2017-11-19T09:09:36Z</time>
      </trkpt>
      <trkpt lat="48.52749" lon="2.01104">
        <ele>96</ele>
        <time>2017-11-19T09:09:39Z</time>
      </trkpt>
      <trkpt lat="48.52736" lon="2.01082">
        <ele>96</ele>
        <time>2017-11-19T09:09:56Z</time>
      </trkpt>
      <trkpt lat="48.5273" lon="2.01082">
        <ele>97</ele>
        <time>2017-11-19T09:10:06Z</time>
      </trkpt>
      <trkpt lat="48.52725" lon="2.01079">
        <ele>97</ele>
        <time>2017-11-19T09:10:12Z</time>
      </trkpt>
      <trkpt lat="48.5272" lon="2.01074">
        <ele>97</ele>
        <time>2017-11-19T09:10:15Z</time>
      </trkpt>
      <trkpt lat="48.52715" lon="2.01071">
        <ele>97</ele>
        <time>2017-11-19T09:10:19Z</time>
      </trkpt>
      <trkpt lat="48.52707" lon="2.01063">
        <ele>97</ele>
        <time>2017-11-19T09:10:26Z</time>
      </trkpt>
      <trkpt lat="48.52687" lon="2.01048">
        <ele>98</ele>
        <time>2017-11-19T09:10:41Z</time>
      </trkpt>
      <trkpt lat="48.5268" lon="2.01046">
        <ele>99</ele>
        <time>2017-11-19T09:10:52Z</time>
      </trkpt>
      <trkpt lat="48.52659" lon="2.01034">
        <ele>101</ele>
        <time>2017-11-19T09:11:07Z</time>
      </trkpt>
      <trkpt lat="48.5265" lon="2.01022">
        <ele>101</ele>
        <time>2017-11-19T09:11:18Z</time>
      </trkpt>
      <trkpt lat="48.52645" lon="2.01019">
        <ele>101</ele>
        <time>2017-11-19T09:11:22Z</time>
      </trkpt>
      <trkpt lat="48.5264" lon="2.01014">
        <ele>102</ele>
        <time>2017-11-19T09:11:27Z</time>
      </trkpt>
      <trkpt lat="48.52632" lon="2.01011">
        <ele>102</ele>
        <time>2017-11-19T09:11:33Z</time>
      </trkpt>
      <trkpt lat="48.52626" lon="2.01009">
        <ele>102</ele>
        <time>2017-11-19T09:11:36Z</time>
      </trkpt>
      <trkpt lat="48.52623" lon="2.01003">
        <ele>102</ele>
        <time>2017-11-19T09:11:41Z</time>
      </trkpt>
      <trkpt lat="48.52594" lon="2.00984">
        <ele>103</ele>
        <time>2017-11-19T09:12:03Z</time>
      </trkpt>
      <trkpt lat="48.52583" lon="2.0098">
        <ele>103</ele>
        <time>2017-11-19T09:12:11Z</time>
      </trkpt>
      <trkpt lat="48.52558" lon="2.00968">
        <ele>105</ele>
        <time>2017-11-19T09:12:31Z</time>
      </trkpt>
      <trkpt lat="48.5254" lon="2.00962">
        <ele>108</ele>
        <time>2017-11-19T09:13:03Z</time>
      </trkpt>
      <trkpt lat="48.52517" lon="2.00945">
        <ele>108</ele>
        <time>2017-11-19T09:13:17Z</time>
      </trkpt>
      <trkpt lat="48.52509" lon="2.00935">
        <ele>108</ele>
        <time>2017-11-19T09:13:22Z</time>
      </trkpt>
      <trkpt lat="48.52499" lon="2.00929">
        <ele>108</ele>
        <time>2017-11-19T09:13:28Z</time>
      </trkpt>
      <trkpt lat="48.52465" lon="2.00899">
        <ele>110</ele>
        <time>2017-11-19T09:14:00Z</time>
      </trkpt>
      <trkpt lat="48.52434" lon="2.00874">
        <ele>111</ele>
        <time>2017-11-19T09:14:28Z</time>
      </trkpt>
      <trkpt lat="48.52425" lon="2.00869">
        <ele>111</ele>
        <time>2017-11-19T09:14:36Z</time>
      </trkpt>
      <trkpt lat="48.52408" lon="2.00856">
        <ele>111</ele>
        <time>2017-11-19T09:14:47Z</time>
      </trkpt>
      <trkpt lat="48.52396" lon="2.00853">
        <ele>111</ele>
        <time>2017-11-19T09:14:56Z</time>
      </trkpt>
      <trkpt lat="48.52362" lon="2.00834">
        <ele>112</ele>
        <time>2017-11-19T09:15:23Z</time>
      </trkpt>
      <trkpt lat="48.5235" lon="2.00819">
        <ele>113</ele>
        <time>2017-11-19T09:15:36Z</time>
      </trkpt>
      <trkpt lat="48.5233" lon="2.00807">
        <ele>114</ele>
        <time>2017-11-19T09:15:50Z</time>
      </trkpt>
      <trkpt lat="48.52327" lon="2.00802">
        <ele>115</ele>
        <time>2017-11-19T09:15:55Z</time>
      </trkpt>
      <trkpt lat="48.52318" lon="2.00801">
        <ele>116</ele>
        <time>2017-11-19T09:16:02Z</time>
      </trkpt>
      <trkpt lat="48.52314" lon="2.00804">
        <ele>116</ele>
        <time>2017-11-19T09:16:06Z</time>
      </trkpt>
      <trkpt lat="48.5231" lon="2.00798">
        <ele>118</ele>
        <time>2017-11-19T09:16:30Z</time>
      </trkpt>
      <trkpt lat="48.52306" lon="2.00793">
        <ele>118</ele>
        <time>2017-11-19T09:16:34Z</time>
      </trkpt>
      <trkpt lat="48.52298" lon="2.00774">
        <ele>117</ele>
        <time>2017-11-19T09:16:44Z</time>
      </trkpt>
      <trkpt lat="48.52285" lon="2.00756">
        <ele>117</ele>
        <time>2017-11-19T09:17:00Z</time>
      </trkpt>
      <trkpt lat="48.52275" lon="2.00756">
        <ele>117</ele>
        <time>2017-11-19T09:17:06Z</time>
      </trkpt>
      <trkpt lat="48.5227" lon="2.00754">
        <ele>118</ele>
        <time>2017-11-19T09:17:10Z</time>
      </trkpt>
      <trkpt lat="48.52263" lon="2.0075">
        <ele>118</ele>
        <time>2017-11-19T09:17:18Z</time>
      </trkpt>
      <trkpt lat="48.52254" lon="2.0074">
        <ele>119</ele>
        <time>2017-11-19T09:17:26Z</time>
      </trkpt>
      <trkpt lat="48.52245" lon="2.00725">
        <ele>119</ele>
        <time>2017-11-19T09:17:35Z</time>
      </trkpt>
      <trkpt lat="48.52239" lon="2.00721">
        <ele>120</ele>
        <time>2017-11-19T09:17:38Z</time>
      </trkpt>
      <trkpt lat="48.52236" lon="2.00711">
        <ele>120</ele>
        <time>2017-11-19T09:17:45Z</time>
      </trkpt>
      <trkpt lat="48.52226" lon="2.007">
        <ele>120</ele>
        <time>2017-11-19T09:17:56Z</time>
      </trkpt>
      <trkpt lat="48.52221" lon="2.00697">
        <ele>121</ele>
        <time>2017-11-19T09:18:00Z</time>
      </trkpt>
      <trkpt lat="48.52213" lon="2.00687">
        <ele>121</ele>
        <time>2017-11-19T09:18:09Z</time>
      </trkpt>
      <trkpt lat="48.52195" lon="2.00677">
        <ele>122</ele>
        <time>2017-11-19T09:18:25Z</time>
      </trkpt>
      <trkpt lat="48.52191" lon="2.00673">
        <ele>122</ele>
        <time>2017-11-19T09:18:29Z</time>
      </trkpt>
      <trkpt lat="48.52176" lon="2.00664">
        <ele>123</ele>
        <time>2017-11-19T09:18:40Z</time>
      </trkpt>
      <trkpt lat="48.52168" lon="2.00657">
        <ele>124</ele>
        <time>2017-11-19T09:18:50Z</time>
      </trkpt>
      <trkpt lat="48.52162" lon="2.00656">
        <ele>125</ele>
        <time>2017-11-19T09:18:56Z</time>
      </trkpt>
      <trkpt lat="48.52156" lon="2.00654">
        <ele>125</ele>
        <time>2017-11-19T09:19:00Z</time>
      </trkpt>
      <trkpt lat="48.52141" lon="2.00648">
        <ele>127</ele>
        <time>2017-11-19T09:19:16Z</time>
      </trkpt>
      <trkpt lat="48.52138" lon="2.00641">
        <ele>128</ele>
        <time>2017-11-19T09:19:23Z</time>
      </trkpt>
      <trkpt lat="48.52135" lon="2.00637">
        <ele>128</ele>
        <time>2017-11-19T09:19:26Z</time>
      </trkpt>
      <trkpt lat="48.52122" lon="2.00633">
        <ele>129</ele>
        <time>2017-11-19T09:19:33Z</time>
      </trkpt>
      <trkpt lat="48.52103" lon="2.00618">
        <ele>129</ele>
        <time>2017-11-19T09:19:53Z</time>
      </trkpt>
      <trkpt lat="48.52099" lon="2.00613">
        <ele>129</ele>
        <time>2017-11-19T09:19:57Z</time>
      </trkpt>
      <trkpt lat="48.52085" lon="2.00607">
        <ele>129</ele>
        <time>2017-11-19T09:20:04Z</time>
      </trkpt>
      <trkpt lat="48.52081" lon="2.00606">
        <ele>129</ele>
        <time>2017-11-19T09:20:07Z</time>
      </trkpt>
      <trkpt lat="48.52071" lon="2.00593">
        <ele>129</ele>
        <time>2017-11-19T09:20:16Z</time>
      </trkpt>
      <trkpt lat="48.52065" lon="2.00583">
        <ele>129</ele>
        <time>2017-11-19T09:20:23Z</time>
      </trkpt>
      <trkpt lat="48.52056" lon="2.00578">
        <ele>128</ele>
        <time>2017-11-19T09:20:33Z</time>
      </trkpt>
      <trkpt lat="48.52051" lon="2.00574">
        <ele>128</ele>
        <time>2017-11-19T09:20:40Z</time>
      </trkpt>
      <trkpt lat="48.52045" lon="2.00573">
        <ele>128</ele>
        <time>2017-11-19T09:20:43Z</time>
      </trkpt>
      <trkpt lat="48.52041" lon="2.00564">
        <ele>127</ele>
        <time>2017-11-19T09:20:50Z</time>
      </trkpt>
      <trkpt lat="48.52031" lon="2.00561">
        <ele>127</ele>
        <time>2017-11-19T09:20:58Z</time>
      </trkpt>
      <trkpt lat="48.5202" lon="2.00556">
        <ele>127</ele>
        <time>2017-11-19T09:21:03Z</time>
      </trkpt>
      <trkpt lat="48.52013" lon="2.00554">
        <ele>126</ele>
        <time>2017-11-19T09:21:08Z</time>
      </trkpt>
      <trkpt lat="48.52005" lon="2.00545">
        <ele>126</ele>
        <time>2017-11-19T09:21:16Z</time>
      </trkpt>
      <trkpt lat="48.52" lon="2.00543">
        <ele>126</ele>
        <time>2017-11-19T09:21:21Z</time>
      </trkpt>
      <trkpt lat="48.52001" lon="2.00535">
        <ele>126</ele>
        <time>2017-11-19T09:21:41Z</time>
      </trkpt>
      <trkpt lat="48.52001" lon="2.00526">
        <ele>125</ele>
        <time>2017-11-19T09:22:31Z</time>
      </trkpt>
      <trkpt lat="48.51994" lon="2.00526">
        <ele>126</ele>
        <time>2017-11-19T09:23:36Z</time>
      </trkpt>
      <trkpt lat="48.51988" lon="2.00531">
        <ele>124</ele>
        <time>2017-11-19T09:24:39Z</time>
      </trkpt>
      <trkpt lat="48.51982" lon="2.00529">
        <ele>125</ele>
        <time>2017-11-19T09:26:06Z</time>
      </trkpt>
      <trkpt lat="48.51977" lon="2.00527">
        <ele>125</ele>
        <time>2017-11-19T09:28:35Z</time>
      </trkpt>
      <trkpt lat="48.51972" lon="2.00527">
        <ele>125</ele>
        <time>2017-11-19T09:28:38Z</time>
      </trkpt>
      <trkpt lat="48.51967" lon="2.00529">
        <ele>125</ele>
        <time>2017-11-19T09:28:42Z</time>
      </trkpt>
      <trkpt lat="48.51952" lon="2.00518">
        <ele>124</ele>
        <time>2017-11-19T09:28:58Z</time>
      </trkpt>
      <trkpt lat="48.51921" lon="2.00516">
        <ele>123</ele>
        <time>2017-11-19T09:29:28Z</time>
      </trkpt>
      <trkpt lat="48.51901" lon="2.00527">
        <ele>123</ele>
        <time>2017-11-19T09:29:45Z</time>
      </trkpt>
      <trkpt lat="48.519" lon="2.00526">
        <ele>123</ele>
        <time>2017-11-19T09:30:22Z</time>
      </trkpt>
      <trkpt lat="48.51894" lon="2.00527">
        <ele>122</ele>
        <time>2017-11-19T09:30:28Z</time>
      </trkpt>
      <trkpt lat="48.51888" lon="2.00529">
        <ele>122</ele>
        <time>2017-11-19T09:30:31Z</time>
      </trkpt>
      <trkpt lat="48.51879" lon="2.0053">
        <ele>121</ele>
        <time>2017-11-19T09:30:39Z</time>
      </trkpt>
      <trkpt lat="48.51859" lon="2.0054">
        <ele>119</ele>
        <time>2017-11-19T09:30:55Z</time>
      </trkpt>
      <trkpt lat="48.51855" lon="2.00541">
        <ele>119</ele>
        <time>2017-11-19T09:30:59Z</time>
      </trkpt>
      <trkpt lat="48.51849" lon="2.00544">
        <ele>119</ele>
        <time>2017-11-19T09:31:05Z</time>
      </trkpt>
      <trkpt lat="48.51845" lon="2.00549">
        <ele>119</ele>
        <time>2017-11-19T09:31:09Z</time>
      </trkpt>
      <trkpt lat="48.51805" lon="2.0058">
        <ele>117</ele>
        <time>2017-11-19T09:31:41Z</time>
      </trkpt>
      <trkpt lat="48.51796" lon="2.00585">
        <ele>116</ele>
        <time>2017-11-19T09:31:50Z</time>
      </trkpt>
      <trkpt lat="48.51792" lon="2.00585">
        <ele>115</ele>
        <time>2017-11-19T09:31:55Z</time>
      </trkpt>
      <trkpt lat="48.51787" lon="2.00588">
        <ele>115</ele>
        <time>2017-11-19T09:32:00Z</time>
      </trkpt>
      <trkpt lat="48.5177" lon="2.00588">
        <ele>113</ele>
        <time>2017-11-19T09:32:16Z</time>
      </trkpt>
      <trkpt lat="48.51765" lon="2.00584">
        <ele>112</ele>
        <time>2017-11-19T09:32:19Z</time>
      </trkpt>
      <trkpt lat="48.51762" lon="2.00579">
        <ele>112</ele>
        <time>2017-11-19T09:32:24Z</time>
      </trkpt>
      <trkpt lat="48.51741" lon="2.00573">
        <ele>110</ele>
        <time>2017-11-19T09:32:39Z</time>
      </trkpt>
      <trkpt lat="48.51724" lon="2.00571">
        <ele>109</ele>
        <time>2017-11-19T09:32:50Z</time>
      </trkpt>
      <trkpt lat="48.51718" lon="2.00571">
        <ele>108</ele>
        <time>2017-11-19T09:32:57Z</time>
      </trkpt>
      <trkpt lat="48.51714" lon="2.00569">
        <ele>108</ele>
        <time>2017-11-19T09:33:00Z</time>
      </trkpt>
      <trkpt lat="48.5171" lon="2.00564">
        <ele>107</ele>
        <time>2017-11-19T09:33:06Z</time>
      </trkpt>
      <trkpt lat="48.51703" lon="2.00561">
        <ele>107</ele>
        <time>2017-11-19T09:33:11Z</time>
      </trkpt>
      <trkpt lat="48.51683" lon="2.00556">
        <ele>106</ele>
        <time>2017-11-19T09:33:28Z</time>
      </trkpt>
      <trkpt lat="48.51675" lon="2.00558">
        <ele>105</ele>
        <time>2017-11-19T09:33:33Z</time>
      </trkpt>
      <trkpt lat="48.51658" lon="2.00552">
        <ele>105</ele>
        <time>2017-11-19T09:33:50Z</time>
      </trkpt>
      <trkpt lat="48.51653" lon="2.00552">
        <ele>105</ele>
        <time>2017-11-19T09:33:56Z</time>
      </trkpt>
      <trkpt lat="48.51647" lon="2.00554">
        <ele>105</ele>
        <time>2017-11-19T09:34:00Z</time>
      </trkpt>
      <trkpt lat="48.51643" lon="2.00558">
        <ele>105</ele>
        <time>2017-11-19T09:34:04Z</time>
      </trkpt>
      <trkpt lat="48.51641" lon="2.00564">
        <ele>105</ele>
        <time>2017-11-19T09:34:07Z</time>
      </trkpt>
      <trkpt lat="48.51639" lon="2.00575">
        <ele>105</ele>
        <time>2017-11-19T09:34:14Z</time>
      </trkpt>
      <trkpt lat="48.51634" lon="2.00583">
        <ele>105</ele>
        <time>2017-11-19T09:34:24Z</time>
      </trkpt>
      <trkpt lat="48.51611" lon="2.00616">
        <ele>106</ele>
        <time>2017-11-19T09:34:45Z</time>
      </trkpt>
      <trkpt lat="48.51609" lon="2.00623">
        <ele>106</ele>
        <time>2017-11-19T09:34:51Z</time>
      </trkpt>
      <trkpt lat="48.516" lon="2.00638">
        <ele>107</ele>
        <time>2017-11-19T09:35:00Z</time>
      </trkpt>
      <trkpt lat="48.51595" lon="2.00653">
        <ele>107</ele>
        <time>2017-11-19T09:35:11Z</time>
      </trkpt>
      <trkpt lat="48.51589" lon="2.00665">
        <ele>107</ele>
        <time>2017-11-19T09:35:19Z</time>
      </trkpt>
      <trkpt lat="48.51586" lon="2.00677">
        <ele>107</ele>
        <time>2017-11-19T09:35:24Z</time>
      </trkpt>
      <trkpt lat="48.51581" lon="2.00685">
        <ele>106</ele>
        <time>2017-11-19T09:35:30Z</time>
      </trkpt>
      <trkpt lat="48.51572" lon="2.00691">
        <ele>106</ele>
        <time>2017-11-19T09:35:38Z</time>
      </trkpt>
      <trkpt lat="48.51568" lon="2.00695">
        <ele>105</ele>
        <time>2017-11-19T09:35:42Z</time>
      </trkpt>
      <trkpt lat="48.51565" lon="2.00702">
        <ele>105</ele>
        <time>2017-11-19T09:35:46Z</time>
      </trkpt>
      <trkpt lat="48.5156" lon="2.00706">
        <ele>104</ele>
        <time>2017-11-19T09:35:53Z</time>
      </trkpt>
      <trkpt lat="48.51554" lon="2.00718">
        <ele>103</ele>
        <time>2017-11-19T09:36:03Z</time>
      </trkpt>
      <trkpt lat="48.51551" lon="2.00741">
        <ele>102</ele>
        <time>2017-11-19T09:36:18Z</time>
      </trkpt>
      <trkpt lat="48.51543" lon="2.0076">
        <ele>101</ele>
        <time>2017-11-19T09:36:31Z</time>
      </trkpt>
      <trkpt lat="48.51526" lon="2.0078">
        <ele>101</ele>
        <time>2017-11-19T09:36:42Z</time>
      </trkpt>
      <trkpt lat="48.51523" lon="2.00786">
        <ele>101</ele>
        <time>2017-11-19T09:36:45Z</time>
      </trkpt>
      <trkpt lat="48.51518" lon="2.00801">
        <ele>101</ele>
        <time>2017-11-19T09:36:52Z</time>
      </trkpt>
      <trkpt lat="48.5151" lon="2.00813">
        <ele>101</ele>
        <time>2017-11-19T09:36:58Z</time>
      </trkpt>
      <trkpt lat="48.51506" lon="2.00819">
        <ele>101</ele>
        <time>2017-11-19T09:37:02Z</time>
      </trkpt>
      <trkpt lat="48.51502" lon="2.00822">
        <ele>101</ele>
        <time>2017-11-19T09:37:07Z</time>
      </trkpt>
      <trkpt lat="48.51497" lon="2.00836">
        <ele>101</ele>
        <time>2017-11-19T09:37:14Z</time>
      </trkpt>
      <trkpt lat="48.5149" lon="2.00841">
        <ele>101</ele>
        <time>2017-11-19T09:37:19Z</time>
      </trkpt>
      <trkpt lat="48.51487" lon="2.00849">
        <ele>101</ele>
        <time>2017-11-19T09:37:23Z</time>
      </trkpt>
      <trkpt lat="48.51479" lon="2.00856">
        <ele>102</ele>
        <time>2017-11-19T09:37:30Z</time>
      </trkpt>
      <trkpt lat="48.51474" lon="2.00866">
        <ele>102</ele>
        <time>2017-11-19T09:37:36Z</time>
      </trkpt>
      <trkpt lat="48.51471" lon="2.00884">
        <ele>103</ele>
        <time>2017-11-19T09:37:45Z</time>
      </trkpt>
      <trkpt lat="48.51468" lon="2.00898">
        <ele>103</ele>
        <time>2017-11-19T09:37:54Z</time>
      </trkpt>
      <trkpt lat="48.51466" lon="2.00906">
        <ele>104</ele>
        <time>2017-11-19T09:37:57Z</time>
      </trkpt>
      <trkpt lat="48.51462" lon="2.00912">
        <ele>104</ele>
        <time>2017-11-19T09:38:00Z</time>
      </trkpt>
      <trkpt lat="48.51459" lon="2.00919">
        <ele>104</ele>
        <time>2017-11-19T09:38:03Z</time>
      </trkpt>
      <trkpt lat="48.51458" lon="2.00926">
        <ele>104</ele>
        <time>2017-11-19T09:38:06Z</time>
      </trkpt>
      <trkpt lat="48.51459" lon="2.00934">
        <ele>104</ele>
        <time>2017-11-19T09:38:11Z</time>
      </trkpt>
      <trkpt lat="48.51454" lon="2.00947">
        <ele>104</ele>
        <time>2017-11-19T09:38:17Z</time>
      </trkpt>
      <trkpt lat="48.51417" lon="2.00965">
        <ele>105</ele>
        <time>2017-11-19T09:38:50Z</time>
      </trkpt>
      <trkpt lat="48.51407" lon="2.00974">
        <ele>105</ele>
        <time>2017-11-19T09:38:56Z</time>
      </trkpt>
      <trkpt lat="48.51401" lon="2.00979">
        <ele>105</ele>
        <time>2017-11-19T09:39:00Z</time>
      </trkpt>
      <trkpt lat="48.51398" lon="2.00986">
        <ele>106</ele>
        <time>2017-11-19T09:39:04Z</time>
      </trkpt>
      <trkpt lat="48.51398" lon="2.00994">
        <ele>106</ele>
        <time>2017-11-19T09:39:09Z</time>
      </trkpt>
      <trkpt lat="48.51396" lon="2.01">
        <ele>106</ele>
        <time>2017-11-19T09:39:12Z</time>
      </trkpt>
      <trkpt lat="48.51385" lon="2.01017">
        <ele>106</ele>
        <time>2017-11-19T09:39:23Z</time>
      </trkpt>
      <trkpt lat="48.51368" lon="2.01065">
        <ele>107</ele>
        <time>2017-11-19T09:39:50Z</time>
      </trkpt>
      <trkpt lat="48.51337" lon="2.01121">
        <ele>109</ele>
        <time>2017-11-19T09:40:24Z</time>
      </trkpt>
      <trkpt lat="48.51312" lon="2.01168">
        <ele>111</ele>
        <time>2017-11-19T09:40:57Z</time>
      </trkpt>
      <trkpt lat="48.51303" lon="2.01194">
        <ele>113</ele>
        <time>2017-11-19T09:41:09Z</time>
      </trkpt>
      <trkpt lat="48.51299" lon="2.01195">
        <ele>113</ele>
        <time>2017-11-19T09:41:12Z</time>
      </trkpt>
      <trkpt lat="48.51292" lon="2.01207">
        <ele>114</ele>
        <time>2017-11-19T09:41:20Z</time>
      </trkpt>
      <trkpt lat="48.51277" lon="2.01254">
        <ele>118</ele>
        <time>2017-11-19T09:41:50Z</time>
      </trkpt>
      <trkpt lat="48.51271" lon="2.01266">
        <ele>120</ele>
        <time>2017-11-19T09:42:00Z</time>
      </trkpt>
      <trkpt lat="48.51264" lon="2.01269">
        <ele>120</ele>
        <time>2017-11-19T09:42:03Z</time>
      </trkpt>
      <trkpt lat="48.51259" lon="2.01274">
        <ele>121</ele>
        <time>2017-11-19T09:42:08Z</time>
      </trkpt>
      <trkpt lat="48.51254" lon="2.01296">
        <ele>122</ele>
        <time>2017-11-19T09:42:21Z</time>
      </trkpt>
      <trkpt lat="48.5125" lon="2.01301">
        <ele>123</ele>
        <time>2017-11-19T09:42:25Z</time>
      </trkpt>
      <trkpt lat="48.51247" lon="2.01307">
        <ele>123</ele>
        <time>2017-11-19T09:42:29Z</time>
      </trkpt>
      <trkpt lat="48.51247" lon="2.01314">
        <ele>124</ele>
        <time>2017-11-19T09:42:41Z</time>
      </trkpt>
      <trkpt lat="48.51225" lon="2.01358">
        <ele>123</ele>
        <time>2017-11-19T09:43:08Z</time>
      </trkpt>
      <trkpt lat="48.51224" lon="2.01373">
        <ele>122</ele>
        <time>2017-11-19T09:43:17Z</time>
      </trkpt>
      <trkpt lat="48.51218" lon="2.01392">
        <ele>122</ele>
        <time>2017-11-19T09:43:29Z</time>
      </trkpt>
      <trkpt lat="48.51209" lon="2.0141">
        <ele>122</ele>
        <time>2017-11-19T09:43:40Z</time>
      </trkpt>
      <trkpt lat="48.512" lon="2.01418">
        <ele>122</ele>
        <time>2017-11-19T09:43:47Z</time>
      </trkpt>
      <trkpt lat="48.51195" lon="2.01432">
        <ele>122</ele>
        <time>2017-11-19T09:43:54Z</time>
      </trkpt>
      <trkpt lat="48.51192" lon="2.01437">
        <ele>122</ele>
        <time>2017-11-19T09:43:57Z</time>
      </trkpt>
      <trkpt lat="48.51188" lon="2.01442">
        <ele>122</ele>
        <time>2017-11-19T09:44:02Z</time>
      </trkpt>
      <trkpt lat="48.51187" lon="2.0145">
        <ele>122</ele>
        <time>2017-11-19T09:44:07Z</time>
      </trkpt>
      <trkpt lat="48.51172" lon="2.01482">
        <ele>123</ele>
        <time>2017-11-19T09:44:30Z</time>
      </trkpt>
      <trkpt lat="48.51167" lon="2.01508">
        <ele>125</ele>
        <time>2017-11-19T09:44:44Z</time>
      </trkpt>
      <trkpt lat="48.51161" lon="2.01533">
        <ele>127</ele>
        <time>2017-11-19T09:44:59Z</time>
      </trkpt>
      <trkpt lat="48.51158" lon="2.01537">
        <ele>127</ele>
        <time>2017-11-19T09:45:03Z</time>
      </trkpt>
      <trkpt lat="48.51154" lon="2.01543">
        <ele>127</ele>
        <time>2017-11-19T09:45:06Z</time>
      </trkpt>
      <trkpt lat="48.51151" lon="2.01552">
        <ele>127</ele>
        <time>2017-11-19T09:45:10Z</time>
      </trkpt>
      <trkpt lat="48.51143" lon="2.01559">
        <ele>128</ele>
        <time>2017-11-19T09:45:18Z</time>
      </trkpt>
      <trkpt lat="48.51134" lon="2.01577">
        <ele>128</ele>
        <time>2017-11-19T09:45:33Z</time>
      </trkpt>
      <trkpt lat="48.51129" lon="2.01591">
        <ele>128</ele>
        <time>2017-11-19T09:45:41Z</time>
      </trkpt>
      <trkpt lat="48.51113" lon="2.01612">
        <ele>126</ele>
        <time>2017-11-19T09:45:57Z</time>
      </trkpt>
      <trkpt lat="48.51095" lon="2.01644">
        <ele>124</ele>
        <time>2017-11-19T09:46:17Z</time>
      </trkpt>
      <trkpt lat="48.51088" lon="2.01652">
        <ele>123</ele>
        <time>2017-11-19T09:46:25Z</time>
      </trkpt>
      <trkpt lat="48.5106" lon="2.01669">
        <ele>122</ele>
        <time>2017-11-19T09:46:47Z</time>
      </trkpt>
      <trkpt lat="48.51052" lon="2.01677">
        <ele>122</ele>
        <time>2017-11-19T09:46:55Z</time>
      </trkpt>
      <trkpt lat="48.51046" lon="2.01689">
        <ele>123</ele>
        <time>2017-11-19T09:47:04Z</time>
      </trkpt>
      <trkpt lat="48.51042" lon="2.01693">
        <ele>123</ele>
        <time>2017-11-19T09:47:08Z</time>
      </trkpt>
      <trkpt lat="48.51035" lon="2.01706">
        <ele>123</ele>
        <time>2017-11-19T09:47:13Z</time>
      </trkpt>
      <trkpt lat="48.51031" lon="2.01723">
        <ele>122</ele>
        <time>2017-11-19T09:47:26Z</time>
      </trkpt>
      <trkpt lat="48.51025" lon="2.01727">
        <ele>121</ele>
        <time>2017-11-19T09:47:33Z</time>
      </trkpt>
      <trkpt lat="48.51015" lon="2.01748">
        <ele>119</ele>
        <time>2017-11-19T09:47:44Z</time>
      </trkpt>
      <trkpt lat="48.50996" lon="2.01761">
        <ele>118</ele>
        <time>2017-11-19T09:47:59Z</time>
      </trkpt>
      <trkpt lat="48.50984" lon="2.01774">
        <ele>117</ele>
        <time>2017-11-19T09:48:12Z</time>
      </trkpt>
      <trkpt lat="48.50979" lon="2.01776">
        <ele>117</ele>
        <time>2017-11-19T09:48:14Z</time>
      </trkpt>
      <trkpt lat="48.50974" lon="2.01779">
        <ele>117</ele>
        <time>2017-11-19T09:48:17Z</time>
      </trkpt>
      <trkpt lat="48.50969" lon="2.01781">
        <ele>116</ele>
        <time>2017-11-19T09:48:23Z</time>
      </trkpt>
      <trkpt lat="48.50958" lon="2.01785">
        <ele>116</ele>
        <time>2017-11-19T09:48:30Z</time>
      </trkpt>
      <trkpt lat="48.50953" lon="2.01786">
        <ele>115</ele>
        <time>2017-11-19T09:48:35Z</time>
      </trkpt>
      <trkpt lat="48.50947" lon="2.0179">
        <ele>115</ele>
        <time>2017-11-19T09:48:40Z</time>
      </trkpt>
      <trkpt lat="48.5094" lon="2.01791">
        <ele>114</ele>
        <time>2017-11-19T09:48:44Z</time>
      </trkpt>
      <trkpt lat="48.50931" lon="2.01793">
        <ele>114</ele>
        <time>2017-11-19T09:49:01Z</time>
      </trkpt>
      <trkpt lat="48.50918" lon="2.01801">
        <ele>114</ele>
        <time>2017-11-19T09:49:09Z</time>
      </trkpt>
      <trkpt lat="48.5091" lon="2.01813">
        <ele>114</ele>
        <time>2017-11-19T09:49:16Z</time>
      </trkpt>
      <trkpt lat="48.50911" lon="2.0182">
        <ele>114</ele>
        <time>2017-11-19T09:49:21Z</time>
      </trkpt>
      <trkpt lat="48.50902" lon="2.01827">
        <ele>115</ele>
        <time>2017-11-19T09:49:26Z</time>
      </trkpt>
      <trkpt lat="48.50889" lon="2.01828">
        <ele>117</ele>
        <time>2017-11-19T09:49:45Z</time>
      </trkpt>
      <trkpt lat="48.5088" lon="2.01831">
        <ele>117</ele>
        <time>2017-11-19T09:49:51Z</time>
      </trkpt>
      <trkpt lat="48.50874" lon="2.01835">
        <ele>118</ele>
        <time>2017-11-19T09:49:55Z</time>
      </trkpt>
      <trkpt lat="48.5087" lon="2.01838">
        <ele>120</ele>
        <time>2017-11-19T09:50:06Z</time>
      </trkpt>
      <trkpt lat="48.50847" lon="2.0185">
        <ele>123</ele>
        <time>2017-11-19T09:50:18Z</time>
      </trkpt>
      <trkpt lat="48.50837" lon="2.01862">
        <ele>125</ele>
        <time>2017-11-19T09:50:25Z</time>
      </trkpt>
      <trkpt lat="48.50828" lon="2.01866">
        <ele>127</ele>
        <time>2017-11-19T09:50:34Z</time>
      </trkpt>
      <trkpt lat="48.50819" lon="2.01876">
        <ele>129</ele>
        <time>2017-11-19T09:50:45Z</time>
      </trkpt>
      <trkpt lat="48.50813" lon="2.01878">
        <ele>130</ele>
        <time>2017-11-19T09:50:49Z</time>
      </trkpt>
      <trkpt lat="48.50804" lon="2.01885">
        <ele>132</ele>
        <time>2017-11-19T09:51:01Z</time>
      </trkpt>
      <trkpt lat="48.50795" lon="2.01891">
        <ele>133</ele>
        <time>2017-11-19T09:51:08Z</time>
      </trkpt>
      <trkpt lat="48.50788" lon="2.01901">
        <ele>134</ele>
        <time>2017-11-19T09:51:14Z</time>
      </trkpt>
      <trkpt lat="48.50781" lon="2.01906">
        <ele>136</ele>
        <time>2017-11-19T09:51:21Z</time>
      </trkpt>
      <trkpt lat="48.50771" lon="2.01908">
        <ele>137</ele>
        <time>2017-11-19T09:51:28Z</time>
      </trkpt>
      <trkpt lat="48.50767" lon="2.01903">
        <ele>138</ele>
        <time>2017-11-19T09:51:32Z</time>
      </trkpt>
      <trkpt lat="48.50761" lon="2.01902">
        <ele>139</ele>
        <time>2017-11-19T09:51:38Z</time>
      </trkpt>
      <trkpt lat="48.50756" lon="2.01903">
        <ele>140</ele>
        <time>2017-11-19T09:51:41Z</time>
      </trkpt>
      <trkpt lat="48.50746" lon="2.019">
        <ele>141</ele>
        <time>2017-11-19T09:51:48Z</time>
      </trkpt>
      <trkpt lat="48.50742" lon="2.01905">
        <ele>142</ele>
        <time>2017-11-19T09:51:54Z</time>
      </trkpt>
      <trkpt lat="48.50732" lon="2.01906">
        <ele>143</ele>
        <time>2017-11-19T09:52:03Z</time>
      </trkpt>
      <trkpt lat="48.50713" lon="2.01924">
        <ele>149</ele>
        <time>2017-11-19T09:52:36Z</time>
      </trkpt>
      <trkpt lat="48.50707" lon="2.01928">
        <ele>149</ele>
        <time>2017-11-19T09:52:39Z</time>
      </trkpt>
      <trkpt lat="48.50695" lon="2.01933">
        <ele>150</ele>
        <time>2017-11-19T09:52:46Z</time>
      </trkpt>
      <trkpt lat="48.50688" lon="2.01944">
        <ele>151</ele>
        <time>2017-11-19T09:52:54Z</time>
      </trkpt>
      <trkpt lat="48.50684" lon="2.01952">
        <ele>152</ele>
        <time>2017-11-19T09:53:01Z</time>
      </trkpt>
      <trkpt lat="48.50677" lon="2.01961">
        <ele>152</ele>
        <time>2017-11-19T09:53:07Z</time>
      </trkpt>
      <trkpt lat="48.50671" lon="2.01973">
        <ele>152</ele>
        <time>2017-11-19T09:53:13Z</time>
      </trkpt>
      <trkpt lat="48.50656" lon="2.01983">
        <ele>153</ele>
        <time>2017-11-19T09:53:26Z</time>
      </trkpt>
      <trkpt lat="48.50648" lon="2.01994">
        <ele>154</ele>
        <time>2017-11-19T09:53:39Z</time>
      </trkpt>
      <trkpt lat="48.50646" lon="2.01991">
        <ele>150</ele>
        <time>2017-11-19T09:55:09Z</time>
      </trkpt>
      <trkpt lat="48.50642" lon="2.01996">
        <ele>148</ele>
        <time>2017-11-19T09:56:51Z</time>
      </trkpt>
      <trkpt lat="48.50626" lon="2.02039">
        <ele>148</ele>
        <time>2017-11-19T09:57:18Z</time>
      </trkpt>
      <trkpt lat="48.50621" lon="2.0204">
        <ele>148</ele>
        <time>2017-11-19T09:57:22Z</time>
      </trkpt>
      <trkpt lat="48.50616" lon="2.02035">
        <ele>148</ele>
        <time>2017-11-19T09:57:25Z</time>
      </trkpt>
      <trkpt lat="48.50612" lon="2.02031">
        <ele>148</ele>
        <time>2017-11-19T09:57:29Z</time>
      </trkpt>
      <trkpt lat="48.50608" lon="2.02029">
        <ele>148</ele>
        <time>2017-11-19T09:57:31Z</time>
      </trkpt>
      <trkpt lat="48.50602" lon="2.0203">
        <ele>148</ele>
        <time>2017-11-19T09:57:36Z</time>
      </trkpt>
      <trkpt lat="48.50581" lon="2.02012">
        <ele>148</ele>
        <time>2017-11-19T09:57:51Z</time>
      </trkpt>
      <trkpt lat="48.50573" lon="2.02009">
        <ele>148</ele>
        <time>2017-11-19T09:57:58Z</time>
      </trkpt>
      <trkpt lat="48.50557" lon="2.01998">
        <ele>148</ele>
        <time>2017-11-19T09:58:11Z</time>
      </trkpt>
      <trkpt lat="48.50553" lon="2.01995">
        <ele>148</ele>
        <time>2017-11-19T09:58:13Z</time>
      </trkpt>
      <trkpt lat="48.50509" lon="2.01978">
        <ele>148</ele>
        <time>2017-11-19T09:58:47Z</time>
      </trkpt>
      <trkpt lat="48.50504" lon="2.01976">
        <ele>148</ele>
        <time>2017-11-19T09:58:51Z</time>
      </trkpt>
      <trkpt lat="48.50494" lon="2.01977">
        <ele>151</ele>
        <time>2017-11-19T09:59:52Z</time>
      </trkpt>
      <trkpt lat="48.50485" lon="2.0198">
        <ele>152</ele>
        <time>2017-11-19T10:00:02Z</time>
      </trkpt>
      <trkpt lat="48.50472" lon="2.01985">
        <ele>152</ele>
        <time>2017-11-19T10:00:10Z</time>
      </trkpt>
      <trkpt lat="48.50457" lon="2.0198">
        <ele>152</ele>
        <time>2017-11-19T10:00:23Z</time>
      </trkpt>
      <trkpt lat="48.50452" lon="2.01975">
        <ele>152</ele>
        <time>2017-11-19T10:00:26Z</time>
      </trkpt>
      <trkpt lat="48.50447" lon="2.0197">
        <ele>152</ele>
        <time>2017-11-19T10:00:28Z</time>
      </trkpt>
      <trkpt lat="48.5044" lon="2.01962">
        <ele>153</ele>
        <time>2017-11-19T10:00:36Z</time>
      </trkpt>
      <trkpt lat="48.5043" lon="2.01938">
        <ele>153</ele>
        <time>2017-11-19T10:00:49Z</time>
      </trkpt>
      <trkpt lat="48.50422" lon="2.01927">
        <ele>153</ele>
        <time>2017-11-19T10:00:55Z</time>
      </trkpt>
      <trkpt lat="48.50413" lon="2.01906">
        <ele>153</ele>
        <time>2017-11-19T10:01:08Z</time>
      </trkpt>
      <trkpt lat="48.50382" lon="2.0185">
        <ele>154</ele>
        <time>2017-11-19T10:01:40Z</time>
      </trkpt>
      <trkpt lat="48.50373" lon="2.01834">
        <ele>154</ele>
        <time>2017-11-19T10:01:49Z</time>
      </trkpt>
      <trkpt lat="48.50367" lon="2.01822">
        <ele>153</ele>
        <time>2017-11-19T10:01:54Z</time>
      </trkpt>
      <trkpt lat="48.50356" lon="2.01802">
        <ele>153</ele>
        <time>2017-11-19T10:02:07Z</time>
      </trkpt>
      <trkpt lat="48.50353" lon="2.01791">
        <ele>153</ele>
        <time>2017-11-19T10:02:13Z</time>
      </trkpt>
      <trkpt lat="48.50337" lon="2.01768">
        <ele>153</ele>
        <time>2017-11-19T10:02:31Z</time>
      </trkpt>
      <trkpt lat="48.50328" lon="2.01741">
        <ele>154</ele>
        <time>2017-11-19T10:02:45Z</time>
      </trkpt>
      <trkpt lat="48.50326" lon="2.01734">
        <ele>154</ele>
        <time>2017-11-19T10:02:47Z</time>
      </trkpt>
      <trkpt lat="48.50319" lon="2.01718">
        <ele>153</ele>
        <time>2017-11-19T10:02:58Z</time>
      </trkpt>
      <trkpt lat="48.50315" lon="2.01715">
        <ele>152</ele>
        <time>2017-11-19T10:03:02Z</time>
      </trkpt>
      <trkpt lat="48.5031" lon="2.01715">
        <ele>152</ele>
        <time>2017-11-19T10:03:06Z</time>
      </trkpt>
      <trkpt lat="48.50301" lon="2.01715">
        <ele>152</ele>
        <time>2017-11-19T10:03:12Z</time>
      </trkpt>
      <trkpt lat="48.50292" lon="2.01711">
        <ele>152</ele>
        <time>2017-11-19T10:03:22Z</time>
      </trkpt>
      <trkpt lat="48.50287" lon="2.01713">
        <ele>152</ele>
        <time>2017-11-19T10:03:29Z</time>
      </trkpt>
      <trkpt lat="48.50281" lon="2.01707">
        <ele>152</ele>
        <time>2017-11-19T10:03:58Z</time>
      </trkpt>
      <trkpt lat="48.50278" lon="2.01702">
        <ele>152</ele>
        <time>2017-11-19T10:04:05Z</time>
      </trkpt>
      <trkpt lat="48.50279" lon="2.01694">
        <ele>151</ele>
        <time>2017-11-19T10:04:10Z</time>
      </trkpt>
      <trkpt lat="48.50282" lon="2.01688">
        <ele>150</ele>
        <time>2017-11-19T10:04:13Z</time>
      </trkpt>
      <trkpt lat="48.50286" lon="2.01684">
        <ele>149</ele>
        <time>2017-11-19T10:04:17Z</time>
      </trkpt>
      <trkpt lat="48.50291" lon="2.01662">
        <ele>145</ele>
        <time>2017-11-19T10:04:36Z</time>
      </trkpt>
      <trkpt lat="48.50292" lon="2.01655">
        <ele>144</ele>
        <time>2017-11-19T10:04:40Z</time>
      </trkpt>
      <trkpt lat="48.50288" lon="2.01648">
        <ele>143</ele>
        <time>2017-11-19T10:04:46Z</time>
      </trkpt>
      <trkpt lat="48.50289" lon="2.01642">
        <ele>143</ele>
        <time>2017-11-19T10:04:50Z</time>
      </trkpt>
      <trkpt lat="48.50288" lon="2.01634">
        <ele>142</ele>
        <time>2017-11-19T10:04:56Z</time>
      </trkpt>
      <trkpt lat="48.50289" lon="2.01626">
        <ele>140</ele>
        <time>2017-11-19T10:05:09Z</time>
      </trkpt>
      <trkpt lat="48.50293" lon="2.01622">
        <ele>140</ele>
        <time>2017-11-19T10:05:11Z</time>
      </trkpt>
      <trkpt lat="48.50296" lon="2.01617">
        <ele>139</ele>
        <time>2017-11-19T10:05:24Z</time>
      </trkpt>
      <trkpt lat="48.50297" lon="2.0161">
        <ele>138</ele>
        <time>2017-11-19T10:05:39Z</time>
      </trkpt>
      <trkpt lat="48.50296" lon="2.01594">
        <ele>138</ele>
        <time>2017-11-19T10:05:44Z</time>
      </trkpt>
      <trkpt lat="48.50303" lon="2.01566">
        <ele>136</ele>
        <time>2017-11-19T10:05:55Z</time>
      </trkpt>
      <trkpt lat="48.50317" lon="2.01543">
        <ele>135</ele>
        <time>2017-11-19T10:06:09Z</time>
      </trkpt>
      <trkpt lat="48.50322" lon="2.01527">
        <ele>134</ele>
        <time>2017-11-19T10:06:16Z</time>
      </trkpt>
      <trkpt lat="48.50331" lon="2.01516">
        <ele>133</ele>
        <time>2017-11-19T10:06:24Z</time>
      </trkpt>
      <trkpt lat="48.50333" lon="2.01503">
        <ele>133</ele>
        <time>2017-11-19T10:06:28Z</time>
      </trkpt>
      <trkpt lat="48.50342" lon="2.01491">
        <ele>132</ele>
        <time>2017-11-19T10:06:35Z</time>
      </trkpt>
      <trkpt lat="48.50347" lon="2.01478">
        <ele>132</ele>
        <time>2017-11-19T10:06:48Z</time>
      </trkpt>
      <trkpt lat="48.5035" lon="2.01471">
        <ele>132</ele>
        <time>2017-11-19T10:06:52Z</time>
      </trkpt>
      <trkpt lat="48.50359" lon="2.0146">
        <ele>131</ele>
        <time>2017-11-19T10:07:03Z</time>
      </trkpt>
      <trkpt lat="48.50365" lon="2.01455">
        <ele>131</ele>
        <time>2017-11-19T10:07:31Z</time>
      </trkpt>
      <trkpt lat="48.50368" lon="2.01449">
        <ele>131</ele>
        <time>2017-11-19T10:07:37Z</time>
      </trkpt>
      <trkpt lat="48.50373" lon="2.01447">
        <ele>130</ele>
        <time>2017-11-19T10:07:42Z</time>
      </trkpt>
      <trkpt lat="48.50379" lon="2.01448">
        <ele>131</ele>
        <time>2017-11-19T10:07:50Z</time>
      </trkpt>
      <trkpt lat="48.50387" lon="2.01446">
        <ele>131</ele>
        <time>2017-11-19T10:07:58Z</time>
      </trkpt>
      <trkpt lat="48.50398" lon="2.01432">
        <ele>132</ele>
        <time>2017-11-19T10:08:09Z</time>
      </trkpt>
      <trkpt lat="48.50408" lon="2.01434">
        <ele>132</ele>
        <time>2017-11-19T10:08:15Z</time>
      </trkpt>
      <trkpt lat="48.5042" lon="2.01435">
        <ele>132</ele>
        <time>2017-11-19T10:08:26Z</time>
      </trkpt>
      <trkpt lat="48.50425" lon="2.01435">
        <ele>133</ele>
        <time>2017-11-19T10:08:28Z</time>
      </trkpt>
      <trkpt lat="48.50453" lon="2.01418">
        <ele>133</ele>
        <time>2017-11-19T10:08:52Z</time>
      </trkpt>
      <trkpt lat="48.50457" lon="2.01412">
        <ele>133</ele>
        <time>2017-11-19T10:08:57Z</time>
      </trkpt>
      <trkpt lat="48.50461" lon="2.01407">
        <ele>134</ele>
        <time>2017-11-19T10:09:02Z</time>
      </trkpt>
      <trkpt lat="48.50464" lon="2.01402">
        <ele>134</ele>
        <time>2017-11-19T10:09:06Z</time>
      </trkpt>
      <trkpt lat="48.50483" lon="2.0141">
        <ele>135</ele>
        <time>2017-11-19T10:09:19Z</time>
      </trkpt>
      <trkpt lat="48.50489" lon="2.01409">
        <ele>136</ele>
        <time>2017-11-19T10:09:25Z</time>
      </trkpt>
      <trkpt lat="48.50496" lon="2.01412">
        <ele>137</ele>
        <time>2017-11-19T10:09:42Z</time>
      </trkpt>
      <trkpt lat="48.50503" lon="2.01401">
        <ele>139</ele>
        <time>2017-11-19T10:09:51Z</time>
      </trkpt>
      <trkpt lat="48.50507" lon="2.01398">
        <ele>139</ele>
        <time>2017-11-19T10:09:57Z</time>
      </trkpt>
      <trkpt lat="48.50512" lon="2.01396">
        <ele>140</ele>
        <time>2017-11-19T10:10:03Z</time>
      </trkpt>
      <trkpt lat="48.50516" lon="2.01391">
        <ele>141</ele>
        <time>2017-11-19T10:10:08Z</time>
      </trkpt>
      <trkpt lat="48.50521" lon="2.01388">
        <ele>142</ele>
        <time>2017-11-19T10:10:13Z</time>
      </trkpt>
      <trkpt lat="48.50525" lon="2.01383">
        <ele>142</ele>
        <time>2017-11-19T10:10:16Z</time>
      </trkpt>
      <trkpt lat="48.50524" lon="2.01376">
        <ele>143</ele>
        <time>2017-11-19T10:10:21Z</time>
      </trkpt>
      <trkpt lat="48.50531" lon="2.01366">
        <ele>143</ele>
        <time>2017-11-19T10:10:31Z</time>
      </trkpt>
      <trkpt lat="48.50539" lon="2.01362">
        <ele>144</ele>
        <time>2017-11-19T10:10:38Z</time>
      </trkpt>
      <trkpt lat="48.50547" lon="2.01353">
        <ele>145</ele>
        <time>2017-11-19T10:10:46Z</time>
      </trkpt>
      <trkpt lat="48.50554" lon="2.01352">
        <ele>146</ele>
        <time>2017-11-19T10:10:53Z</time>
      </trkpt>
      <trkpt lat="48.50558" lon="2.01347">
        <ele>146</ele>
        <time>2017-11-19T10:10:58Z</time>
      </trkpt>
      <trkpt lat="48.50558" lon="2.01337">
        <ele>146</ele>
        <time>2017-11-19T10:11:11Z</time>
      </trkpt>
      <trkpt lat="48.50565" lon="2.01339">
        <ele>148</ele>
        <time>2017-11-19T10:12:29Z</time>
      </trkpt>
      <trkpt lat="48.50568" lon="2.01334">
        <ele>148</ele>
        <time>2017-11-19T10:12:54Z</time>
      </trkpt>
      <trkpt lat="48.50565" lon="2.01329">
        <ele>148</ele>
        <time>2017-11-19T10:14:47Z</time>
      </trkpt>
      <trkpt lat="48.50565" lon="2.0133">
        <ele>148</ele>
        <time>2017-11-19T10:16:59Z</time>
      </trkpt>
      <trkpt lat="48.50571" lon="2.0133">
        <ele>148</ele>
        <time>2017-11-19T10:17:08Z</time>
      </trkpt>
      <trkpt lat="48.50576" lon="2.01328">
        <ele>148</ele>
        <time>2017-11-19T10:17:12Z</time>
      </trkpt>
      <trkpt lat="48.50579" lon="2.0132">
        <ele>149</ele>
        <time>2017-11-19T10:17:16Z</time>
      </trkpt>
      <trkpt lat="48.50584" lon="2.01319">
        <ele>149</ele>
        <time>2017-11-19T10:17:20Z</time>
      </trkpt>
      <trkpt lat="48.50585" lon="2.01318">
        <ele>146</ele>
        <time>2017-11-19T10:20:14Z</time>
      </trkpt>
      <trkpt lat="48.50585" lon="2.01311">
        <ele>145</ele>
        <time>2017-11-19T10:20:21Z</time>
      </trkpt>
      <trkpt lat="48.50588" lon="2.01305">
        <ele>145</ele>
        <time>2017-11-19T10:20:28Z</time>
      </trkpt>
      <trkpt lat="48.50599" lon="2.01288">
        <ele>146</ele>
        <time>2017-11-19T10:20:44Z</time>
      </trkpt>
      <trkpt lat="48.50602" lon="2.01282">
        <ele>146</ele>
        <time>2017-11-19T10:20:48Z</time>
      </trkpt>
      <trkpt lat="48.50607" lon="2.01279">
        <ele>146</ele>
        <time>2017-11-19T10:20:52Z</time>
      </trkpt>
      <trkpt lat="48.50611" lon="2.01277">
        <ele>146</ele>
        <time>2017-11-19T10:20:58Z</time>
      </trkpt>
      <trkpt lat="48.50612" lon="2.0127">
        <ele>146</ele>
        <time>2017-11-19T10:21:03Z</time>
      </trkpt>
      <trkpt lat="48.50614" lon="2.01263">
        <ele>146</ele>
        <time>2017-11-19T10:21:07Z</time>
      </trkpt>
      <trkpt lat="48.50614" lon="2.01255">
        <ele>146</ele>
        <time>2017-11-19T10:21:11Z</time>
      </trkpt>
      <trkpt lat="48.50617" lon="2.01248">
        <ele>146</ele>
        <time>2017-11-19T10:21:16Z</time>
      </trkpt>
      <trkpt lat="48.50621" lon="2.01244">
        <ele>146</ele>
        <time>2017-11-19T10:21:21Z</time>
      </trkpt>
      <trkpt lat="48.50626" lon="2.01231">
        <ele>147</ele>
        <time>2017-11-19T10:21:30Z</time>
      </trkpt>
      <trkpt lat="48.50633" lon="2.01219">
        <ele>147</ele>
        <time>2017-11-19T10:21:39Z</time>
      </trkpt>
      <trkpt lat="48.50642" lon="2.01213">
        <ele>148</ele>
        <time>2017-11-19T10:21:48Z</time>
      </trkpt>
      <trkpt lat="48.5066" lon="2.01185">
        <ele>148</ele>
        <time>2017-11-19T10:22:08Z</time>
      </trkpt>
      <trkpt lat="48.50665" lon="2.01167">
        <ele>149</ele>
        <time>2017-11-19T10:22:19Z</time>
      </trkpt>
      <trkpt lat="48.5067" lon="2.01162">
        <ele>149</ele>
        <time>2017-11-19T10:22:24Z</time>
      </trkpt>
      <trkpt lat="48.50687" lon="2.01133">
        <ele>151</ele>
        <time>2017-11-19T10:22:49Z</time>
      </trkpt>
      <trkpt lat="48.5069" lon="2.01127">
        <ele>151</ele>
        <time>2017-11-19T10:22:53Z</time>
      </trkpt>
      <trkpt lat="48.50693" lon="2.01122">
        <ele>151</ele>
        <time>2017-11-19T10:22:57Z</time>
      </trkpt>
      <trkpt lat="48.50697" lon="2.01107">
        <ele>152</ele>
        <time>2017-11-19T10:23:07Z</time>
      </trkpt>
      <trkpt lat="48.50701" lon="2.01101">
        <ele>152</ele>
        <time>2017-11-19T10:23:14Z</time>
      </trkpt>
      <trkpt lat="48.50704" lon="2.01096">
        <ele>152</ele>
        <time>2017-11-19T10:23:20Z</time>
      </trkpt>
      <trkpt lat="48.50708" lon="2.01092">
        <ele>152</ele>
        <time>2017-11-19T10:23:26Z</time>
      </trkpt>
      <trkpt lat="48.50712" lon="2.01086">
        <ele>152</ele>
        <time>2017-11-19T10:23:32Z</time>
      </trkpt>
      <trkpt lat="48.50721" lon="2.01075">
        <ele>153</ele>
        <time>2017-11-19T10:23:42Z</time>
      </trkpt>
      <trkpt lat="48.50723" lon="2.0107">
        <ele>153</ele>
        <time>2017-11-19T10:23:46Z</time>
      </trkpt>
      <trkpt lat="48.50733" lon="2.0105">
        <ele>154</ele>
        <time>2017-11-19T10:23:59Z</time>
      </trkpt>
      <trkpt lat="48.50735" lon="2.01043">
        <ele>154</ele>
        <time>2017-11-19T10:24:03Z</time>
      </trkpt>
      <trkpt lat="48.50742" lon="2.01035">
        <ele>154</ele>
        <time>2017-11-19T10:24:12Z</time>
      </trkpt>
      <trkpt lat="48.50747" lon="2.01034">
        <ele>154</ele>
        <time>2017-11-19T10:24:15Z</time>
      </trkpt>
      <trkpt lat="48.50752" lon="2.01029">
        <ele>154</ele>
        <time>2017-11-19T10:24:20Z</time>
      </trkpt>
      <trkpt lat="48.50755" lon="2.01023">
        <ele>154</ele>
        <time>2017-11-19T10:24:24Z</time>
      </trkpt>
      <trkpt lat="48.50763" lon="2.01003">
        <ele>153</ele>
        <time>2017-11-19T10:24:37Z</time>
      </trkpt>
      <trkpt lat="48.50774" lon="2.00987">
        <ele>153</ele>
        <time>2017-11-19T10:24:50Z</time>
      </trkpt>
      <trkpt lat="48.50777" lon="2.0098">
        <ele>153</ele>
        <time>2017-11-19T10:24:55Z</time>
      </trkpt>
      <trkpt lat="48.50777" lon="2.00972">
        <ele>153</ele>
        <time>2017-11-19T10:25:01Z</time>
      </trkpt>
      <trkpt lat="48.5078" lon="2.00957">
        <ele>153</ele>
        <time>2017-11-19T10:25:11Z</time>
      </trkpt>
      <trkpt lat="48.50777" lon="2.00936">
        <ele>153</ele>
        <time>2017-11-19T10:25:31Z</time>
      </trkpt>
      <trkpt lat="48.50779" lon="2.00922">
        <ele>153</ele>
        <time>2017-11-19T10:25:39Z</time>
      </trkpt>
      <trkpt lat="48.50775" lon="2.00886">
        <ele>154</ele>
        <time>2017-11-19T10:25:58Z</time>
      </trkpt>
      <trkpt lat="48.50773" lon="2.00873">
        <ele>154</ele>
        <time>2017-11-19T10:26:13Z</time>
      </trkpt>
      <trkpt lat="48.50765" lon="2.0081">
        <ele>154</ele>
        <time>2017-11-19T10:26:48Z</time>
      </trkpt>
      <trkpt lat="48.50767" lon="2.00789">
        <ele>154</ele>
        <time>2017-11-19T10:26:57Z</time>
      </trkpt>
      <trkpt lat="48.5077" lon="2.00782">
        <ele>155</ele>
        <time>2017-11-19T10:27:02Z</time>
      </trkpt>
      <trkpt lat="48.50774" lon="2.0075">
        <ele>155</ele>
        <time>2017-11-19T10:27:16Z</time>
      </trkpt>
      <trkpt lat="48.50776" lon="2.00743">
        <ele>155</ele>
        <time>2017-11-19T10:27:20Z</time>
      </trkpt>
      <trkpt lat="48.5078" lon="2.00721">
        <ele>155</ele>
        <time>2017-11-19T10:27:32Z</time>
      </trkpt>
      <trkpt lat="48.50785" lon="2.00709">
        <ele>155</ele>
        <time>2017-11-19T10:27:38Z</time>
      </trkpt>
      <trkpt lat="48.50786" lon="2.00701">
        <ele>155</ele>
        <time>2017-11-19T10:27:42Z</time>
      </trkpt>
      <trkpt lat="48.50786" lon="2.00693">
        <ele>155</ele>
        <time>2017-11-19T10:27:46Z</time>
      </trkpt>
      <trkpt lat="48.50788" lon="2.00683">
        <ele>155</ele>
        <time>2017-11-19T10:27:52Z</time>
      </trkpt>
      <trkpt lat="48.50789" lon="2.0066">
        <ele>155</ele>
        <time>2017-11-19T10:28:04Z</time>
      </trkpt>
      <trkpt lat="48.50792" lon="2.00653">
        <ele>155</ele>
        <time>2017-11-19T10:28:08Z</time>
      </trkpt>
      <trkpt lat="48.50797" lon="2.0065">
        <ele>155</ele>
        <time>2017-11-19T10:28:13Z</time>
      </trkpt>
      <trkpt lat="48.50794" lon="2.00643">
        <ele>155</ele>
        <time>2017-11-19T10:28:17Z</time>
      </trkpt>
      <trkpt lat="48.50795" lon="2.00627">
        <ele>155</ele>
        <time>2017-11-19T10:28:26Z</time>
      </trkpt>
      <trkpt lat="48.50794" lon="2.00619">
        <ele>155</ele>
        <time>2017-11-19T10:28:29Z</time>
      </trkpt>
      <trkpt lat="48.50795" lon="2.00612">
        <ele>155</ele>
        <time>2017-11-19T10:28:35Z</time>
      </trkpt>
      <trkpt lat="48.50791" lon="2.00588">
        <ele>156</ele>
        <time>2017-11-19T10:28:48Z</time>
      </trkpt>
      <trkpt lat="48.50792" lon="2.00579">
        <ele>156</ele>
        <time>2017-11-19T10:28:52Z</time>
      </trkpt>
      <trkpt lat="48.50795" lon="2.00571">
        <ele>156</ele>
        <time>2017-11-19T10:28:56Z</time>
      </trkpt>
      <trkpt lat="48.50803" lon="2.00561">
        <ele>156</ele>
        <time>2017-11-19T10:29:06Z</time>
      </trkpt>
      <trkpt lat="48.50804" lon="2.00554">
        <ele>156</ele>
        <time>2017-11-19T10:29:09Z</time>
      </trkpt>
      <trkpt lat="48.50808" lon="2.00538">
        <ele>155</ele>
        <time>2017-11-19T10:29:19Z</time>
      </trkpt>
      <trkpt lat="48.50811" lon="2.00496">
        <ele>155</ele>
        <time>2017-11-19T10:29:48Z</time>
      </trkpt>
      <trkpt lat="48.5081" lon="2.00489">
        <ele>155</ele>
        <time>2017-11-19T10:29:51Z</time>
      </trkpt>
      <trkpt lat="48.50814" lon="2.00465">
        <ele>155</ele>
        <time>2017-11-19T10:29:58Z</time>
      </trkpt>
      <trkpt lat="48.50812" lon="2.00457">
        <ele>155</ele>
        <time>2017-11-19T10:30:02Z</time>
      </trkpt>
      <trkpt lat="48.50812" lon="2.00448">
        <ele>155</ele>
        <time>2017-11-19T10:30:05Z</time>
      </trkpt>
      <trkpt lat="48.50818" lon="2.00419">
        <ele>155</ele>
        <time>2017-11-19T10:30:20Z</time>
      </trkpt>
      <trkpt lat="48.50818" lon="2.00377">
        <ele>155</ele>
        <time>2017-11-19T10:30:41Z</time>
      </trkpt>
      <trkpt lat="48.50815" lon="2.00371">
        <ele>155</ele>
        <time>2017-11-19T10:30:44Z</time>
      </trkpt>
      <trkpt lat="48.50807" lon="2.00361">
        <ele>155</ele>
        <time>2017-11-19T10:30:54Z</time>
      </trkpt>
      <trkpt lat="48.50804" lon="2.00346">
        <ele>154</ele>
        <time>2017-11-19T10:31:04Z</time>
      </trkpt>
      <trkpt lat="48.5078" lon="2.00313">
        <ele>154</ele>
        <time>2017-11-19T10:31:22Z</time>
      </trkpt>
      <trkpt lat="48.50774" lon="2.00309">
        <ele>154</ele>
        <time>2017-11-19T10:31:26Z</time>
      </trkpt>
      <trkpt lat="48.50762" lon="2.0029">
        <ele>155</ele>
        <time>2017-11-19T10:31:38Z</time>
      </trkpt>
      <trkpt lat="48.50757" lon="2.00287">
        <ele>155</ele>
        <time>2017-11-19T10:31:41Z</time>
      </trkpt>
      <trkpt lat="48.50753" lon="2.00279">
        <ele>155</ele>
        <time>2017-11-19T10:31:47Z</time>
      </trkpt>
      <trkpt lat="48.50748" lon="2.0028">
        <ele>155</ele>
        <time>2017-11-19T10:31:52Z</time>
      </trkpt>
      <trkpt lat="48.50742" lon="2.00277">
        <ele>155</ele>
        <time>2017-11-19T10:32:01Z</time>
      </trkpt>
      <trkpt lat="48.50729" lon="2.00275">
        <ele>154</ele>
        <time>2017-11-19T10:32:12Z</time>
      </trkpt>
      <trkpt lat="48.50724" lon="2.00272">
        <ele>154</ele>
        <time>2017-11-19T10:32:16Z</time>
      </trkpt>
      <trkpt lat="48.50719" lon="2.00271">
        <ele>154</ele>
        <time>2017-11-19T10:32:19Z</time>
      </trkpt>
      <trkpt lat="48.50693" lon="2.00275">
        <ele>155</ele>
        <time>2017-11-19T10:32:38Z</time>
      </trkpt>
      <trkpt lat="48.50688" lon="2.00274">
        <ele>155</ele>
        <time>2017-11-19T10:32:44Z</time>
      </trkpt>
      <trkpt lat="48.50684" lon="2.00278">
        <ele>155</ele>
        <time>2017-11-19T10:32:51Z</time>
      </trkpt>
      <trkpt lat="48.50673" lon="2.00277">
        <ele>155</ele>
        <time>2017-11-19T10:32:57Z</time>
      </trkpt>
      <trkpt lat="48.5066" lon="2.00267">
        <ele>155</ele>
        <time>2017-11-19T10:33:06Z</time>
      </trkpt>
      <trkpt lat="48.50654" lon="2.0027">
        <ele>155</ele>
        <time>2017-11-19T10:33:12Z</time>
      </trkpt>
      <trkpt lat="48.50649" lon="2.0027">
        <ele>155</ele>
        <time>2017-11-19T10:33:15Z</time>
      </trkpt>
      <trkpt lat="48.5063" lon="2.00264">
        <ele>155</ele>
        <time>2017-11-19T10:33:23Z</time>
      </trkpt>
      <trkpt lat="48.50625" lon="2.0026">
        <ele>155</ele>
        <time>2017-11-19T10:33:26Z</time>
      </trkpt>
      <trkpt lat="48.50623" lon="2.00254">
        <ele>155</ele>
        <time>2017-11-19T10:33:30Z</time>
      </trkpt>
      <trkpt lat="48.50619" lon="2.00247">
        <ele>154</ele>
        <time>2017-11-19T10:33:50Z</time>
      </trkpt>
      <trkpt lat="48.50619" lon="2.00233">
        <ele>153</ele>
        <time>2017-11-19T10:34:04Z</time>
      </trkpt>
      <trkpt lat="48.50621" lon="2.00226">
        <ele>153</ele>
        <time>2017-11-19T10:34:07Z</time>
      </trkpt>
      <trkpt lat="48.50621" lon="2.00217">
        <ele>153</ele>
        <time>2017-11-19T10:34:12Z</time>
      </trkpt>
      <trkpt lat="48.50644" lon="2.0017">
        <ele>148</ele>
        <time>2017-11-19T10:34:45Z</time>
      </trkpt>
      <trkpt lat="48.50648" lon="2.00156">
        <ele>146</ele>
        <time>2017-11-19T10:34:53Z</time>
      </trkpt>
      <trkpt lat="48.50655" lon="2.00138">
        <ele>141</ele>
        <time>2017-11-19T10:35:12Z</time>
      </trkpt>
      <trkpt lat="48.50653" lon="2.00122">
        <ele>140</ele>
        <time>2017-11-19T10:35:22Z</time>
      </trkpt>
      <trkpt lat="48.50654" lon="2.00114">
        <ele>138</ele>
        <time>2017-11-19T10:35:28Z</time>
      </trkpt>
      <trkpt lat="48.50654" lon="2.00106">
        <ele>137</ele>
        <time>2017-11-19T10:35:32Z</time>
      </trkpt>
      <trkpt lat="48.50655" lon="2.00098">
        <ele>135</ele>
        <time>2017-11-19T10:35:37Z</time>
      </trkpt>
      <trkpt lat="48.50655" lon="2.00091">
        <ele>134</ele>
        <time>2017-11-19T10:35:45Z</time>
      </trkpt>
      <trkpt lat="48.50662" lon="2.00071">
        <ele>131</ele>
        <time>2017-11-19T10:35:59Z</time>
      </trkpt>
      <trkpt lat="48.50666" lon="2.00057">
        <ele>130</ele>
        <time>2017-11-19T10:36:07Z</time>
      </trkpt>
      <trkpt lat="48.50667" lon="2.00049">
        <ele>129</ele>
        <time>2017-11-19T10:36:11Z</time>
      </trkpt>
      <trkpt lat="48.50669" lon="2.00032">
        <ele>128</ele>
        <time>2017-11-19T10:36:18Z</time>
      </trkpt>
      <trkpt lat="48.50673" lon="2.00026">
        <ele>127</ele>
        <time>2017-11-19T10:36:22Z</time>
      </trkpt>
      <trkpt lat="48.50681" lon="2.00022">
        <ele>125</ele>
        <time>2017-11-19T10:36:29Z</time>
      </trkpt>
      <trkpt lat="48.50685" lon="2.00012">
        <ele>123</ele>
        <time>2017-11-19T10:36:36Z</time>
      </trkpt>
      <trkpt lat="48.50688" lon="2.00006">
        <ele>121</ele>
        <time>2017-11-19T10:36:41Z</time>
      </trkpt>
      <trkpt lat="48.5069" lon="1.99995">
        <ele>118</ele>
        <time>2017-11-19T10:36:52Z</time>
      </trkpt>
      <trkpt lat="48.50694" lon="1.9999">
        <ele>118</ele>
        <time>2017-11-19T10:37:03Z</time>
      </trkpt>
      <trkpt lat="48.50695" lon="1.99983">
        <ele>117</ele>
        <time>2017-11-19T10:37:06Z</time>
      </trkpt>
      <trkpt lat="48.50696" lon="1.99975">
        <ele>116</ele>
        <time>2017-11-19T10:37:10Z</time>
      </trkpt>
      <trkpt lat="48.50698" lon="1.99969">
        <ele>115</ele>
        <time>2017-11-19T10:37:14Z</time>
      </trkpt>
      <trkpt lat="48.50708" lon="1.99953">
        <ele>113</ele>
        <time>2017-11-19T10:37:29Z</time>
      </trkpt>
      <trkpt lat="48.50709" lon="1.9993">
        <ele>110</ele>
        <time>2017-11-19T10:37:42Z</time>
      </trkpt>
      <trkpt lat="48.50721" lon="1.999">
        <ele>107</ele>
        <time>2017-11-19T10:38:01Z</time>
      </trkpt>
      <trkpt lat="48.50725" lon="1.99895">
        <ele>106</ele>
        <time>2017-11-19T10:38:08Z</time>
      </trkpt>
      <trkpt lat="48.50725" lon="1.99887">
        <ele>105</ele>
        <time>2017-11-19T10:38:14Z</time>
      </trkpt>
      <trkpt lat="48.50722" lon="1.99876">
        <ele>105</ele>
        <time>2017-11-19T10:38:19Z</time>
      </trkpt>
      <trkpt lat="48.50723" lon="1.99866">
        <ele>104</ele>
        <time>2017-11-19T10:38:47Z</time>
      </trkpt>
      <trkpt lat="48.5072" lon="1.99858">
        <ele>104</ele>
        <time>2017-11-19T10:38:57Z</time>
      </trkpt>
      <trkpt lat="48.50716" lon="1.99846">
        <ele>103</ele>
        <time>2017-11-19T10:39:30Z</time>
      </trkpt>
      <trkpt lat="48.50712" lon="1.99841">
        <ele>103</ele>
        <time>2017-11-19T10:39:34Z</time>
      </trkpt>
      <trkpt lat="48.50709" lon="1.99827">
        <ele>103</ele>
        <time>2017-11-19T10:39:40Z</time>
      </trkpt>
      <trkpt lat="48.50707" lon="1.99785">
        <ele>103</ele>
        <time>2017-11-19T10:40:00Z</time>
      </trkpt>
      <trkpt lat="48.50706" lon="1.99778">
        <ele>103</ele>
        <time>2017-11-19T10:40:06Z</time>
      </trkpt>
      <trkpt lat="48.50702" lon="1.99746">
        <ele>102</ele>
        <time>2017-11-19T10:40:19Z</time>
      </trkpt>
      <trkpt lat="48.50702" lon="1.99732">
        <ele>102</ele>
        <time>2017-11-19T10:40:23Z</time>
      </trkpt>
      <trkpt lat="48.50697" lon="1.99709">
        <ele>103</ele>
        <time>2017-11-19T10:40:37Z</time>
      </trkpt>
      <trkpt lat="48.50695" lon="1.99701">
        <ele>103</ele>
        <time>2017-11-19T10:40:41Z</time>
      </trkpt>
      <trkpt lat="48.50695" lon="1.99684">
        <ele>103</ele>
        <time>2017-11-19T10:40:48Z</time>
      </trkpt>
      <trkpt lat="48.50693" lon="1.99677">
        <ele>103</ele>
        <time>2017-11-19T10:40:53Z</time>
      </trkpt>
      <trkpt lat="48.50688" lon="1.99653">
        <ele>104</ele>
        <time>2017-11-19T10:41:03Z</time>
      </trkpt>
      <trkpt lat="48.50686" lon="1.99646">
        <ele>105</ele>
        <time>2017-11-19T10:41:08Z</time>
      </trkpt>
      <trkpt lat="48.50683" lon="1.99615">
        <ele>106</ele>
        <time>2017-11-19T10:41:22Z</time>
      </trkpt>
      <trkpt lat="48.50684" lon="1.99601">
        <ele>106</ele>
        <time>2017-11-19T10:41:28Z</time>
      </trkpt>
      <trkpt lat="48.50677" lon="1.99538">
        <ele>108</ele>
        <time>2017-11-19T10:42:00Z</time>
      </trkpt>
      <trkpt lat="48.50673" lon="1.99523">
        <ele>109</ele>
        <time>2017-11-19T10:42:09Z</time>
      </trkpt>
      <trkpt lat="48.50672" lon="1.99516">
        <ele>109</ele>
        <time>2017-11-19T10:42:13Z</time>
      </trkpt>
      <trkpt lat="48.50668" lon="1.99503">
        <ele>109</ele>
        <time>2017-11-19T10:42:21Z</time>
      </trkpt>
      <trkpt lat="48.50662" lon="1.99449">
        <ele>111</ele>
        <time>2017-11-19T10:42:51Z</time>
      </trkpt>
      <trkpt lat="48.50654" lon="1.9939">
        <ele>112</ele>
        <time>2017-11-19T10:43:25Z</time>
      </trkpt>
      <trkpt lat="48.50655" lon="1.99331">
        <ele>116</ele>
        <time>2017-11-19T10:43:58Z</time>
      </trkpt>
      <trkpt lat="48.50653" lon="1.99299">
        <ele>118</ele>
        <time>2017-11-19T10:44:13Z</time>
      </trkpt>
      <trkpt lat="48.50651" lon="1.9929">
        <ele>118</ele>
        <time>2017-11-19T10:44:18Z</time>
      </trkpt>
      <trkpt lat="48.50655" lon="1.99273">
        <ele>119</ele>
        <time>2017-11-19T10:44:26Z</time>
      </trkpt>
      <trkpt lat="48.50656" lon="1.99265">
        <ele>119</ele>
        <time>2017-11-19T10:44:29Z</time>
      </trkpt>
      <trkpt lat="48.50654" lon="1.99255">
        <ele>120</ele>
        <time>2017-11-19T10:44:38Z</time>
      </trkpt>
      <trkpt lat="48.50653" lon="1.99238">
        <ele>121</ele>
        <time>2017-11-19T10:44:50Z</time>
      </trkpt>
      <trkpt lat="48.50655" lon="1.99229">
        <ele>122</ele>
        <time>2017-11-19T10:45:05Z</time>
      </trkpt>
      <trkpt lat="48.50648" lon="1.99184">
        <ele>123</ele>
        <time>2017-11-19T10:45:29Z</time>
      </trkpt>
      <trkpt lat="48.50648" lon="1.99169">
        <ele>124</ele>
        <time>2017-11-19T10:45:39Z</time>
      </trkpt>
      <trkpt lat="48.50648" lon="1.99157">
        <ele>125</ele>
        <time>2017-11-19T10:45:58Z</time>
      </trkpt>
      <trkpt lat="48.50646" lon="1.9915">
        <ele>125</ele>
        <time>2017-11-19T10:46:02Z</time>
      </trkpt>
      <trkpt lat="48.50635" lon="1.99146">
        <ele>125</ele>
        <time>2017-11-19T10:46:10Z</time>
      </trkpt>
      <trkpt lat="48.50638" lon="1.9915">
        <ele>125</ele>
        <time>2017-11-19T10:46:34Z</time>
      </trkpt>
      <trkpt lat="48.50643" lon="1.99151">
        <ele>124</ele>
        <time>2017-11-19T10:46:41Z</time>
      </trkpt>
      <trkpt lat="48.50647" lon="1.99156">
        <ele>124</ele>
        <time>2017-11-19T10:46:49Z</time>
      </trkpt>
      <trkpt lat="48.50649" lon="1.99163">
        <ele>124</ele>
        <time>2017-11-19T10:46:56Z</time>
      </trkpt>
      <trkpt lat="48.50651" lon="1.99153">
        <ele>124</ele>
        <time>2017-11-19T10:47:52Z</time>
      </trkpt>
      <trkpt lat="48.50648" lon="1.99142">
        <ele>124</ele>
        <time>2017-11-19T10:48:30Z</time>
      </trkpt>
      <trkpt lat="48.50652" lon="1.99139">
        <ele>124</ele>
        <time>2017-11-19T10:48:36Z</time>
      </trkpt>
      <trkpt lat="48.50643" lon="1.99131">
        <ele>123</ele>
        <time>2017-11-19T10:48:45Z</time>
      </trkpt>
      <trkpt lat="48.50644" lon="1.9912">
        <ele>124</ele>
        <time>2017-11-19T10:48:53Z</time>
      </trkpt>
      <trkpt lat="48.50646" lon="1.99114">
        <ele>124</ele>
        <time>2017-11-19T10:48:56Z</time>
      </trkpt>
      <trkpt lat="48.5065" lon="1.99108">
        <ele>124</ele>
        <time>2017-11-19T10:49:00Z</time>
      </trkpt>
      <trkpt lat="48.50651" lon="1.99101">
        <ele>124</ele>
        <time>2017-11-19T10:49:06Z</time>
      </trkpt>
      <trkpt lat="48.5065" lon="1.99093">
        <ele>124</ele>
        <time>2017-11-19T10:49:20Z</time>
      </trkpt>
      <trkpt lat="48.50653" lon="1.99061">
        <ele>126</ele>
        <time>2017-11-19T10:49:41Z</time>
      </trkpt>
      <trkpt lat="48.50655" lon="1.99054">
        <ele>126</ele>
        <time>2017-11-19T10:49:46Z</time>
      </trkpt>
      <trkpt lat="48.50657" lon="1.99037">
        <ele>126</ele>
        <time>2017-11-19T10:50:24Z</time>
      </trkpt>
      <trkpt lat="48.50657" lon="1.9903">
        <ele>126</ele>
        <time>2017-11-19T10:50:44Z</time>
      </trkpt>
      <trkpt lat="48.50661" lon="1.99009">
        <ele>126</ele>
        <time>2017-11-19T10:51:11Z</time>
      </trkpt>
      <trkpt lat="48.50661" lon="1.99">
        <ele>126</ele>
        <time>2017-11-19T10:51:16Z</time>
      </trkpt>
      <trkpt lat="48.50662" lon="1.98985">
        <ele>126</ele>
        <time>2017-11-19T10:51:25Z</time>
      </trkpt>
      <trkpt lat="48.50664" lon="1.98978">
        <ele>125</ele>
        <time>2017-11-19T10:51:29Z</time>
      </trkpt>
      <trkpt lat="48.50666" lon="1.98961">
        <ele>125</ele>
        <time>2017-11-19T10:51:38Z</time>
      </trkpt>
      <trkpt lat="48.50673" lon="1.98949">
        <ele>125</ele>
        <time>2017-11-19T10:51:48Z</time>
      </trkpt>
      <trkpt lat="48.50676" lon="1.98942">
        <ele>126</ele>
        <time>2017-11-19T10:51:55Z</time>
      </trkpt>
      <trkpt lat="48.50674" lon="1.98931">
        <ele>126</ele>
        <time>2017-11-19T10:52:06Z</time>
      </trkpt>
      <trkpt lat="48.50674" lon="1.98923">
        <ele>126</ele>
        <time>2017-11-19T10:52:11Z</time>
      </trkpt>
      <trkpt lat="48.50673" lon="1.98916">
        <ele>127</ele>
        <time>2017-11-19T10:52:18Z</time>
      </trkpt>
      <trkpt lat="48.50671" lon="1.989">
        <ele>127</ele>
        <time>2017-11-19T10:52:24Z</time>
      </trkpt>
      <trkpt lat="48.50677" lon="1.98879">
        <ele>128</ele>
        <time>2017-11-19T10:52:32Z</time>
      </trkpt>
      <trkpt lat="48.50674" lon="1.98869">
        <ele>128</ele>
        <time>2017-11-19T10:52:36Z</time>
      </trkpt>
      <trkpt lat="48.50675" lon="1.98862">
        <ele>128</ele>
        <time>2017-11-19T10:52:41Z</time>
      </trkpt>
      <trkpt lat="48.50674" lon="1.98855">
        <ele>128</ele>
        <time>2017-11-19T10:52:44Z</time>
      </trkpt>
      <trkpt lat="48.50676" lon="1.98848">
        <ele>129</ele>
        <time>2017-11-19T10:52:51Z</time>
      </trkpt>
      <trkpt lat="48.50674" lon="1.98841">
        <ele>129</ele>
        <time>2017-11-19T10:52:55Z</time>
      </trkpt>
      <trkpt lat="48.50679" lon="1.9882">
        <ele>131</ele>
        <time>2017-11-19T10:53:06Z</time>
      </trkpt>
      <trkpt lat="48.50685" lon="1.98814">
        <ele>131</ele>
        <time>2017-11-19T10:53:10Z</time>
      </trkpt>
      <trkpt lat="48.50685" lon="1.98806">
        <ele>132</ele>
        <time>2017-11-19T10:53:15Z</time>
      </trkpt>
      <trkpt lat="48.50685" lon="1.98799">
        <ele>132</ele>
        <time>2017-11-19T10:53:17Z</time>
      </trkpt>
      <trkpt lat="48.50685" lon="1.98792">
        <ele>132</ele>
        <time>2017-11-19T10:53:20Z</time>
      </trkpt>
      <trkpt lat="48.50684" lon="1.98785">
        <ele>133</ele>
        <time>2017-11-19T10:53:23Z</time>
      </trkpt>
      <trkpt lat="48.5069" lon="1.98765">
        <ele>135</ele>
        <time>2017-11-19T10:53:37Z</time>
      </trkpt>
      <trkpt lat="48.50693" lon="1.98749">
        <ele>135</ele>
        <time>2017-11-19T10:53:44Z</time>
      </trkpt>
      <trkpt lat="48.50694" lon="1.98742">
        <ele>136</ele>
        <time>2017-11-19T10:53:49Z</time>
      </trkpt>
      <trkpt lat="48.50692" lon="1.98733">
        <ele>137</ele>
        <time>2017-11-19T10:54:01Z</time>
      </trkpt>
      <trkpt lat="48.50695" lon="1.98726">
        <ele>138</ele>
        <time>2017-11-19T10:54:07Z</time>
      </trkpt>
      <trkpt lat="48.50695" lon="1.98718">
        <ele>138</ele>
        <time>2017-11-19T10:54:10Z</time>
      </trkpt>
      <trkpt lat="48.50693" lon="1.98707">
        <ele>139</ele>
        <time>2017-11-19T10:54:18Z</time>
      </trkpt>
      <trkpt lat="48.50697" lon="1.98677">
        <ele>142</ele>
        <time>2017-11-19T10:54:37Z</time>
      </trkpt>
      <trkpt lat="48.50698" lon="1.98662">
        <ele>143</ele>
        <time>2017-11-19T10:54:46Z</time>
      </trkpt>
      <trkpt lat="48.507" lon="1.98655">
        <ele>144</ele>
        <time>2017-11-19T10:54:50Z</time>
      </trkpt>
      <trkpt lat="48.50699" lon="1.98647">
        <ele>144</ele>
        <time>2017-11-19T10:54:53Z</time>
      </trkpt>
      <trkpt lat="48.507" lon="1.9864">
        <ele>145</ele>
        <time>2017-11-19T10:54:56Z</time>
      </trkpt>
      <trkpt lat="48.507" lon="1.98633">
        <ele>145</ele>
        <time>2017-11-19T10:55:02Z</time>
      </trkpt>
      <trkpt lat="48.50702" lon="1.98615">
        <ele>147</ele>
        <time>2017-11-19T10:55:10Z</time>
      </trkpt>
      <trkpt lat="48.50697" lon="1.98605">
        <ele>148</ele>
        <time>2017-11-19T10:55:23Z</time>
      </trkpt>
      <trkpt lat="48.50694" lon="1.98599">
        <ele>149</ele>
        <time>2017-11-19T10:55:26Z</time>
      </trkpt>
      <trkpt lat="48.50693" lon="1.98591">
        <ele>149</ele>
        <time>2017-11-19T10:55:33Z</time>
      </trkpt>
      <trkpt lat="48.50693" lon="1.98575">
        <ele>150</ele>
        <time>2017-11-19T10:55:44Z</time>
      </trkpt>
      <trkpt lat="48.50691" lon="1.98568">
        <ele>151</ele>
        <time>2017-11-19T10:55:49Z</time>
      </trkpt>
      <trkpt lat="48.50692" lon="1.98557">
        <ele>151</ele>
        <time>2017-11-19T10:55:55Z</time>
      </trkpt>
      <trkpt lat="48.50684" lon="1.98528">
        <ele>153</ele>
        <time>2017-11-19T10:56:14Z</time>
      </trkpt>
      <trkpt lat="48.50684" lon="1.9852">
        <ele>153</ele>
        <time>2017-11-19T10:56:18Z</time>
      </trkpt>
      <trkpt lat="48.50684" lon="1.98503">
        <ele>154</ele>
        <time>2017-11-19T10:56:26Z</time>
      </trkpt>
      <trkpt lat="48.50683" lon="1.98487">
        <ele>154</ele>
        <time>2017-11-19T10:56:35Z</time>
      </trkpt>
      <trkpt lat="48.50684" lon="1.98472">
        <ele>154</ele>
        <time>2017-11-19T10:56:40Z</time>
      </trkpt>
      <trkpt lat="48.50683" lon="1.9844">
        <ele>155</ele>
        <time>2017-11-19T10:56:54Z</time>
      </trkpt>
      <trkpt lat="48.5069" lon="1.98415">
        <ele>155</ele>
        <time>2017-11-19T10:57:13Z</time>
      </trkpt>
      <trkpt lat="48.50691" lon="1.98407">
        <ele>155</ele>
        <time>2017-11-19T10:57:18Z</time>
      </trkpt>
      <trkpt lat="48.50693" lon="1.98401">
        <ele>155</ele>
        <time>2017-11-19T10:57:22Z</time>
      </trkpt>
      <trkpt lat="48.50694" lon="1.98357">
        <ele>156</ele>
        <time>2017-11-19T10:57:42Z</time>
      </trkpt>
      <trkpt lat="48.50686" lon="1.9832">
        <ele>157</ele>
        <time>2017-11-19T10:58:16Z</time>
      </trkpt>
      <trkpt lat="48.50674" lon="1.98304">
        <ele>157</ele>
        <time>2017-11-19T10:58:33Z</time>
      </trkpt>
      <trkpt lat="48.50669" lon="1.9828">
        <ele>158</ele>
        <time>2017-11-19T10:58:59Z</time>
      </trkpt>
      <trkpt lat="48.50664" lon="1.98268">
        <ele>158</ele>
        <time>2017-11-19T10:59:09Z</time>
      </trkpt>
      <trkpt lat="48.50648" lon="1.98215">
        <ele>158</ele>
        <time>2017-11-19T10:59:36Z</time>
      </trkpt>
      <trkpt lat="48.50645" lon="1.98176">
        <ele>158</ele>
        <time>2017-11-19T10:59:51Z</time>
      </trkpt>
      <trkpt lat="48.50643" lon="1.98167">
        <ele>159</ele>
        <time>2017-11-19T10:59:57Z</time>
      </trkpt>
      <trkpt lat="48.50644" lon="1.98154">
        <ele>159</ele>
        <time>2017-11-19T11:00:17Z</time>
      </trkpt>
      <trkpt lat="48.50641" lon="1.98131">
        <ele>159</ele>
        <time>2017-11-19T11:00:31Z</time>
      </trkpt>
      <trkpt lat="48.50641" lon="1.98115">
        <ele>159</ele>
        <time>2017-11-19T11:00:37Z</time>
      </trkpt>
      <trkpt lat="48.5064" lon="1.98108">
        <ele>159</ele>
        <time>2017-11-19T11:00:40Z</time>
      </trkpt>
      <trkpt lat="48.50642" lon="1.98102">
        <ele>159</ele>
        <time>2017-11-19T11:00:45Z</time>
      </trkpt>
      <trkpt lat="48.50635" lon="1.98071">
        <ele>159</ele>
        <time>2017-11-19T11:01:05Z</time>
      </trkpt>
      <trkpt lat="48.50635" lon="1.98064">
        <ele>159</ele>
        <time>2017-11-19T11:01:10Z</time>
      </trkpt>
      <trkpt lat="48.50632" lon="1.98053">
        <ele>159</ele>
        <time>2017-11-19T11:01:16Z</time>
      </trkpt>
      <trkpt lat="48.50627" lon="1.98051">
        <ele>159</ele>
        <time>2017-11-19T11:01:19Z</time>
      </trkpt>
      <trkpt lat="48.50627" lon="1.9804">
        <ele>159</ele>
        <time>2017-11-19T11:01:28Z</time>
      </trkpt>
      <trkpt lat="48.50624" lon="1.98026">
        <ele>159</ele>
        <time>2017-11-19T11:01:33Z</time>
      </trkpt>
      <trkpt lat="48.50616" lon="1.98016">
        <ele>159</ele>
        <time>2017-11-19T11:01:42Z</time>
      </trkpt>
      <trkpt lat="48.50611" lon="1.98012">
        <ele>159</ele>
        <time>2017-11-19T11:01:50Z</time>
      </trkpt>
      <trkpt lat="48.50601" lon="1.97993">
        <ele>159</ele>
        <time>2017-11-19T11:02:02Z</time>
      </trkpt>
      <trkpt lat="48.50596" lon="1.9798">
        <ele>159</ele>
        <time>2017-11-19T11:02:10Z</time>
      </trkpt>
      <trkpt lat="48.50589" lon="1.97968">
        <ele>159</ele>
        <time>2017-11-19T11:02:17Z</time>
      </trkpt>
      <trkpt lat="48.50581" lon="1.97932">
        <ele>159</ele>
        <time>2017-11-19T11:02:37Z</time>
      </trkpt>
      <trkpt lat="48.50573" lon="1.97872">
        <ele>159</ele>
        <time>2017-11-19T11:03:08Z</time>
      </trkpt>
      <trkpt lat="48.50566" lon="1.97845">
        <ele>159</ele>
        <time>2017-11-19T11:03:24Z</time>
      </trkpt>
      <trkpt lat="48.50564" lon="1.97828">
        <ele>159</ele>
        <time>2017-11-19T11:03:32Z</time>
      </trkpt>
      <trkpt lat="48.50568" lon="1.97815">
        <ele>159</ele>
        <time>2017-11-19T11:03:38Z</time>
      </trkpt>
      <trkpt lat="48.50574" lon="1.97802">
        <ele>159</ele>
        <time>2017-11-19T11:03:44Z</time>
      </trkpt>
      <trkpt lat="48.50585" lon="1.9779">
        <ele>159</ele>
        <time>2017-11-19T11:03:53Z</time>
      </trkpt>
      <trkpt lat="48.50591" lon="1.9778">
        <ele>159</ele>
        <time>2017-11-19T11:04:00Z</time>
      </trkpt>
      <trkpt lat="48.50603" lon="1.97767">
        <ele>158</ele>
        <time>2017-11-19T11:04:11Z</time>
      </trkpt>
      <trkpt lat="48.50606" lon="1.97762">
        <ele>158</ele>
        <time>2017-11-19T11:04:15Z</time>
      </trkpt>
      <trkpt lat="48.5062" lon="1.97752">
        <ele>159</ele>
        <time>2017-11-19T11:04:26Z</time>
      </trkpt>
      <trkpt lat="48.5063" lon="1.97745">
        <ele>159</ele>
        <time>2017-11-19T11:04:34Z</time>
      </trkpt>
      <trkpt lat="48.50634" lon="1.97742">
        <ele>159</ele>
        <time>2017-11-19T11:04:38Z</time>
      </trkpt>
      <trkpt lat="48.50676" lon="1.97723">
        <ele>158</ele>
        <time>2017-11-19T11:05:12Z</time>
      </trkpt>
      <trkpt lat="48.50681" lon="1.97719">
        <ele>158</ele>
        <time>2017-11-19T11:05:16Z</time>
      </trkpt>
      <trkpt lat="48.50683" lon="1.9771">
        <ele>158</ele>
        <time>2017-11-19T11:05:21Z</time>
      </trkpt>
      <trkpt lat="48.50687" lon="1.97704">
        <ele>158</ele>
        <time>2017-11-19T11:05:25Z</time>
      </trkpt>
      <trkpt lat="48.50691" lon="1.97699">
        <ele>158</ele>
        <time>2017-11-19T11:05:30Z</time>
      </trkpt>
      <trkpt lat="48.50697" lon="1.97692">
        <ele>157</ele>
        <time>2017-11-19T11:05:51Z</time>
      </trkpt>
      <trkpt lat="48.507" lon="1.97686">
        <ele>157</ele>
        <time>2017-11-19T11:06:00Z</time>
      </trkpt>
      <trkpt lat="48.50705" lon="1.97683">
        <ele>157</ele>
        <time>2017-11-19T11:06:08Z</time>
      </trkpt>
      <trkpt lat="48.50708" lon="1.97678">
        <ele>157</ele>
        <time>2017-11-19T11:06:15Z</time>
      </trkpt>
      <trkpt lat="48.50718" lon="1.97668">
        <ele>157</ele>
        <time>2017-11-19T11:06:36Z</time>
      </trkpt>
      <trkpt lat="48.50723" lon="1.97657">
        <ele>156</ele>
        <time>2017-11-19T11:06:49Z</time>
      </trkpt>
      <trkpt lat="48.50734" lon="1.97632">
        <ele>155</ele>
        <time>2017-11-19T11:07:11Z</time>
      </trkpt>
      <trkpt lat="48.50738" lon="1.97628">
        <ele>155</ele>
        <time>2017-11-19T11:07:17Z</time>
      </trkpt>
      <trkpt lat="48.50748" lon="1.97604">
        <ele>154</ele>
        <time>2017-11-19T11:07:36Z</time>
      </trkpt>
      <trkpt lat="48.50758" lon="1.97596">
        <ele>153</ele>
        <time>2017-11-19T11:07:45Z</time>
      </trkpt>
      <trkpt lat="48.50773" lon="1.97569">
        <ele>151</ele>
        <time>2017-11-19T11:08:19Z</time>
      </trkpt>
      <trkpt lat="48.50777" lon="1.97562">
        <ele>151</ele>
        <time>2017-11-19T11:08:26Z</time>
      </trkpt>
      <trkpt lat="48.50778" lon="1.97555">
        <ele>150</ele>
        <time>2017-11-19T11:08:32Z</time>
      </trkpt>
      <trkpt lat="48.50783" lon="1.97548">
        <ele>148</ele>
        <time>2017-11-19T11:09:06Z</time>
      </trkpt>
      <trkpt lat="48.5079" lon="1.97532">
        <ele>146</ele>
        <time>2017-11-19T11:09:41Z</time>
      </trkpt>
      <trkpt lat="48.50795" lon="1.97526">
        <ele>144</ele>
        <time>2017-11-19T11:09:51Z</time>
      </trkpt>
      <trkpt lat="48.50797" lon="1.9752">
        <ele>143</ele>
        <time>2017-11-19T11:09:58Z</time>
      </trkpt>
      <trkpt lat="48.50805" lon="1.97507">
        <ele>140</ele>
        <time>2017-11-19T11:10:37Z</time>
      </trkpt>
      <trkpt lat="48.50808" lon="1.97501">
        <ele>139</ele>
        <time>2017-11-19T11:10:43Z</time>
      </trkpt>
      <trkpt lat="48.50812" lon="1.97496">
        <ele>137</ele>
        <time>2017-11-19T11:10:52Z</time>
      </trkpt>
      <trkpt lat="48.50817" lon="1.97484">
        <ele>135</ele>
        <time>2017-11-19T11:11:07Z</time>
      </trkpt>
      <trkpt lat="48.50825" lon="1.97474">
        <ele>133</ele>
        <time>2017-11-19T11:11:18Z</time>
      </trkpt>
      <trkpt lat="48.50834" lon="1.97459">
        <ele>133</ele>
        <time>2017-11-19T11:11:33Z</time>
      </trkpt>
      <trkpt lat="48.50841" lon="1.97453">
        <ele>132</ele>
        <time>2017-11-19T11:11:41Z</time>
      </trkpt>
      <trkpt lat="48.50855" lon="1.97433">
        <ele>132</ele>
        <time>2017-11-19T11:11:59Z</time>
      </trkpt>
      <trkpt lat="48.50866" lon="1.97424">
        <ele>131</ele>
        <time>2017-11-19T11:12:13Z</time>
      </trkpt>
      <trkpt lat="48.50878" lon="1.97399">
        <ele>131</ele>
        <time>2017-11-19T11:12:30Z</time>
      </trkpt>
      <trkpt lat="48.50887" lon="1.97393">
        <ele>131</ele>
        <time>2017-11-19T11:12:37Z</time>
      </trkpt>
      <trkpt lat="48.50891" lon="1.97388">
        <ele>131</ele>
        <time>2017-11-19T11:12:43Z</time>
      </trkpt>
      <trkpt lat="48.50896" lon="1.97376">
        <ele>131</ele>
        <time>2017-11-19T11:12:55Z</time>
      </trkpt>
      <trkpt lat="48.50897" lon="1.97368">
        <ele>132</ele>
        <time>2017-11-19T11:13:01Z</time>
      </trkpt>
      <trkpt lat="48.509" lon="1.97362">
        <ele>133</ele>
        <time>2017-11-19T11:13:06Z</time>
      </trkpt>
      <trkpt lat="48.509" lon="1.97353">
        <ele>134</ele>
        <time>2017-11-19T11:13:12Z</time>
      </trkpt>
      <trkpt lat="48.50902" lon="1.97346">
        <ele>135</ele>
        <time>2017-11-19T11:13:17Z</time>
      </trkpt>
      <trkpt lat="48.50904" lon="1.97322">
        <ele>137</ele>
        <time>2017-11-19T11:13:31Z</time>
      </trkpt>
      <trkpt lat="48.50906" lon="1.97316">
        <ele>137</ele>
        <time>2017-11-19T11:13:37Z</time>
      </trkpt>
      <trkpt lat="48.50908" lon="1.97309">
        <ele>138</ele>
        <time>2017-11-19T11:13:41Z</time>
      </trkpt>
      <trkpt lat="48.50912" lon="1.9728">
        <ele>139</ele>
        <time>2017-11-19T11:13:57Z</time>
      </trkpt>
      <trkpt lat="48.50921" lon="1.9725">
        <ele>141</ele>
        <time>2017-11-19T11:14:15Z</time>
      </trkpt>
      <trkpt lat="48.50922" lon="1.97244">
        <ele>141</ele>
        <time>2017-11-19T11:14:20Z</time>
      </trkpt>
      <trkpt lat="48.50922" lon="1.97236">
        <ele>142</ele>
        <time>2017-11-19T11:14:26Z</time>
      </trkpt>
      <trkpt lat="48.50928" lon="1.97218">
        <ele>145</ele>
        <time>2017-11-19T11:14:39Z</time>
      </trkpt>
      <trkpt lat="48.5094" lon="1.97199">
        <ele>147</ele>
        <time>2017-11-19T11:14:57Z</time>
      </trkpt>
      <trkpt lat="48.50941" lon="1.97192">
        <ele>148</ele>
        <time>2017-11-19T11:15:01Z</time>
      </trkpt>
      <trkpt lat="48.50959" lon="1.97155">
        <ele>152</ele>
        <time>2017-11-19T11:15:27Z</time>
      </trkpt>
      <trkpt lat="48.5096" lon="1.97148">
        <ele>152</ele>
        <time>2017-11-19T11:15:31Z</time>
      </trkpt>
      <trkpt lat="48.50972" lon="1.97122">
        <ele>154</ele>
        <time>2017-11-19T11:15:45Z</time>
      </trkpt>
      <trkpt lat="48.50974" lon="1.97115">
        <ele>154</ele>
        <time>2017-11-19T11:15:49Z</time>
      </trkpt>
      <trkpt lat="48.50977" lon="1.9711">
        <ele>154</ele>
        <time>2017-11-19T11:15:52Z</time>
      </trkpt>
      <trkpt lat="48.50982" lon="1.97097">
        <ele>155</ele>
        <time>2017-11-19T11:15:59Z</time>
      </trkpt>
      <trkpt lat="48.50986" lon="1.9709">
        <ele>155</ele>
        <time>2017-11-19T11:16:04Z</time>
      </trkpt>
      <trkpt lat="48.50989" lon="1.97083">
        <ele>155</ele>
        <time>2017-11-19T11:16:08Z</time>
      </trkpt>
      <trkpt lat="48.50995" lon="1.9707">
        <ele>156</ele>
        <time>2017-11-19T11:16:17Z</time>
      </trkpt>
      <trkpt lat="48.50999" lon="1.97056">
        <ele>156</ele>
        <time>2017-11-19T11:16:23Z</time>
      </trkpt>
      <trkpt lat="48.51002" lon="1.9705">
        <ele>156</ele>
        <time>2017-11-19T11:16:26Z</time>
      </trkpt>
      <trkpt lat="48.51034" lon="1.97005">
        <ele>159</ele>
        <time>2017-11-19T11:16:58Z</time>
      </trkpt>
      <trkpt lat="48.51056" lon="1.96974">
        <ele>159</ele>
        <time>2017-11-19T11:17:19Z</time>
      </trkpt>
      <trkpt lat="48.51075" lon="1.96947">
        <ele>158</ele>
        <time>2017-11-19T11:17:38Z</time>
      </trkpt>
      <trkpt lat="48.51079" lon="1.96942">
        <ele>158</ele>
        <time>2017-11-19T11:17:42Z</time>
      </trkpt>
      <trkpt lat="48.51093" lon="1.96921">
        <ele>156</ele>
        <time>2017-11-19T11:17:58Z</time>
      </trkpt>
      <trkpt lat="48.51095" lon="1.96915">
        <ele>156</ele>
        <time>2017-11-19T11:18:02Z</time>
      </trkpt>
      <trkpt lat="48.51127" lon="1.96874">
        <ele>156</ele>
        <time>2017-11-19T11:18:36Z</time>
      </trkpt>
      <trkpt lat="48.5114" lon="1.96853">
        <ele>156</ele>
        <time>2017-11-19T11:18:51Z</time>
      </trkpt>
      <trkpt lat="48.51145" lon="1.96849">
        <ele>156</ele>
        <time>2017-11-19T11:18:54Z</time>
      </trkpt>
      <trkpt lat="48.51148" lon="1.96843">
        <ele>156</ele>
        <time>2017-11-19T11:18:58Z</time>
      </trkpt>
      <trkpt lat="48.51149" lon="1.96837">
        <ele>156</ele>
        <time>2017-11-19T11:19:02Z</time>
      </trkpt>
      <trkpt lat="48.51153" lon="1.96833">
        <ele>156</ele>
        <time>2017-11-19T11:19:05Z</time>
      </trkpt>
      <trkpt lat="48.51157" lon="1.96826">
        <ele>156</ele>
        <time>2017-11-19T11:19:09Z</time>
      </trkpt>
      <trkpt lat="48.51161" lon="1.96821">
        <ele>156</ele>
        <time>2017-11-19T11:19:13Z</time>
      </trkpt>
      <trkpt lat="48.51168" lon="1.96809">
        <ele>156</ele>
        <time>2017-11-19T11:19:22Z</time>
      </trkpt>
      <trkpt lat="48.51172" lon="1.96806">
        <ele>156</ele>
        <time>2017-11-19T11:19:25Z</time>
      </trkpt>
      <trkpt lat="48.51182" lon="1.96788">
        <ele>156</ele>
        <time>2017-11-19T11:19:37Z</time>
      </trkpt>
      <trkpt lat="48.51187" lon="1.96784">
        <ele>156</ele>
        <time>2017-11-19T11:19:40Z</time>
      </trkpt>
      <trkpt lat="48.51206" lon="1.96747">
        <ele>155</ele>
        <time>2017-11-19T11:20:03Z</time>
      </trkpt>
      <trkpt lat="48.51217" lon="1.96735">
        <ele>155</ele>
        <time>2017-11-19T11:20:14Z</time>
      </trkpt>
      <trkpt lat="48.51234" lon="1.96702">
        <ele>155</ele>
        <time>2017-11-19T11:20:33Z</time>
      </trkpt>
      <trkpt lat="48.51238" lon="1.96681">
        <ele>155</ele>
        <time>2017-11-19T11:20:45Z</time>
      </trkpt>
      <trkpt lat="48.51255" lon="1.96649">
        <ele>153</ele>
        <time>2017-11-19T11:21:05Z</time>
      </trkpt>
      <trkpt lat="48.51259" lon="1.96646">
        <ele>152</ele>
        <time>2017-11-19T11:21:08Z</time>
      </trkpt>
      <trkpt lat="48.51262" lon="1.9664">
        <ele>152</ele>
        <time>2017-11-19T11:21:13Z</time>
      </trkpt>
      <trkpt lat="48.51267" lon="1.96635">
        <ele>151</ele>
        <time>2017-11-19T11:21:17Z</time>
      </trkpt>
      <trkpt lat="48.5127" lon="1.9663">
        <ele>151</ele>
        <time>2017-11-19T11:21:21Z</time>
      </trkpt>
      <trkpt lat="48.51287" lon="1.96612">
        <ele>151</ele>
        <time>2017-11-19T11:21:38Z</time>
      </trkpt>
      <trkpt lat="48.51298" lon="1.96599">
        <ele>149</ele>
        <time>2017-11-19T11:21:50Z</time>
      </trkpt>
      <trkpt lat="48.513" lon="1.96591">
        <ele>149</ele>
        <time>2017-11-19T11:21:54Z</time>
      </trkpt>
      <trkpt lat="48.51309" lon="1.96576">
        <ele>147</ele>
        <time>2017-11-19T11:22:04Z</time>
      </trkpt>
      <trkpt lat="48.51314" lon="1.96573">
        <ele>147</ele>
        <time>2017-11-19T11:22:09Z</time>
      </trkpt>
      <trkpt lat="48.5132" lon="1.96554">
        <ele>145</ele>
        <time>2017-11-19T11:22:21Z</time>
      </trkpt>
      <trkpt lat="48.51323" lon="1.96547">
        <ele>145</ele>
        <time>2017-11-19T11:22:24Z</time>
      </trkpt>
      <trkpt lat="48.51333" lon="1.96537">
        <ele>145</ele>
        <time>2017-11-19T11:22:31Z</time>
      </trkpt>
      <trkpt lat="48.51341" lon="1.96517">
        <ele>144</ele>
        <time>2017-11-19T11:22:43Z</time>
      </trkpt>
      <trkpt lat="48.51357" lon="1.96497">
        <ele>145</ele>
        <time>2017-11-19T11:22:59Z</time>
      </trkpt>
      <trkpt lat="48.51381" lon="1.9647">
        <ele>143</ele>
        <time>2017-11-19T11:23:22Z</time>
      </trkpt>
      <trkpt lat="48.51389" lon="1.96459">
        <ele>143</ele>
        <time>2017-11-19T11:23:30Z</time>
      </trkpt>
      <trkpt lat="48.51425" lon="1.96415">
        <ele>143</ele>
        <time>2017-11-19T11:24:04Z</time>
      </trkpt>
      <trkpt lat="48.51429" lon="1.96411">
        <ele>143</ele>
        <time>2017-11-19T11:24:07Z</time>
      </trkpt>
      <trkpt lat="48.51448" lon="1.96385">
        <ele>144</ele>
        <time>2017-11-19T11:24:26Z</time>
      </trkpt>
      <trkpt lat="48.51467" lon="1.96366">
        <ele>144</ele>
        <time>2017-11-19T11:24:44Z</time>
      </trkpt>
      <trkpt lat="48.5147" lon="1.96361">
        <ele>144</ele>
        <time>2017-11-19T11:24:48Z</time>
      </trkpt>
      <trkpt lat="48.51475" lon="1.96359">
        <ele>144</ele>
        <time>2017-11-19T11:24:51Z</time>
      </trkpt>
      <trkpt lat="48.51479" lon="1.96355">
        <ele>144</ele>
        <time>2017-11-19T11:24:54Z</time>
      </trkpt>
      <trkpt lat="48.51481" lon="1.96349">
        <ele>144</ele>
        <time>2017-11-19T11:24:57Z</time>
      </trkpt>
      <trkpt lat="48.51485" lon="1.96345">
        <ele>144</ele>
        <time>2017-11-19T11:25:01Z</time>
      </trkpt>
      <trkpt lat="48.51489" lon="1.96342">
        <ele>144</ele>
        <time>2017-11-19T11:25:04Z</time>
      </trkpt>
      <trkpt lat="48.51493" lon="1.96337">
        <ele>144</ele>
        <time>2017-11-19T11:25:08Z</time>
      </trkpt>
      <trkpt lat="48.51496" lon="1.9633">
        <ele>144</ele>
        <time>2017-11-19T11:25:13Z</time>
      </trkpt>
      <trkpt lat="48.51498" lon="1.96321">
        <ele>144</ele>
        <time>2017-11-19T11:25:17Z</time>
      </trkpt>
      <trkpt lat="48.51502" lon="1.96316">
        <ele>145</ele>
        <time>2017-11-19T11:25:22Z</time>
      </trkpt>
      <trkpt lat="48.51513" lon="1.96308">
        <ele>145</ele>
        <time>2017-11-19T11:25:31Z</time>
      </trkpt>
      <trkpt lat="48.5152" lon="1.96295">
        <ele>146</ele>
        <time>2017-11-19T11:25:39Z</time>
      </trkpt>
      <trkpt lat="48.51525" lon="1.9629">
        <ele>146</ele>
        <time>2017-11-19T11:25:42Z</time>
      </trkpt>
      <trkpt lat="48.51529" lon="1.96288">
        <ele>146</ele>
        <time>2017-11-19T11:25:45Z</time>
      </trkpt>
      <trkpt lat="48.5156" lon="1.96259">
        <ele>148</ele>
        <time>2017-11-19T11:26:17Z</time>
      </trkpt>
      <trkpt lat="48.51596" lon="1.96234">
        <ele>150</ele>
        <time>2017-11-19T11:26:50Z</time>
      </trkpt>
      <trkpt lat="48.51637" lon="1.96223">
        <ele>152</ele>
        <time>2017-11-19T11:27:22Z</time>
      </trkpt>
      <trkpt lat="48.51651" lon="1.9622">
        <ele>152</ele>
        <time>2017-11-19T11:27:33Z</time>
      </trkpt>
      <trkpt lat="48.51656" lon="1.96221">
        <ele>153</ele>
        <time>2017-11-19T11:27:37Z</time>
      </trkpt>
      <trkpt lat="48.51666" lon="1.96228">
        <ele>153</ele>
        <time>2017-11-19T11:27:45Z</time>
      </trkpt>
      <trkpt lat="48.51676" lon="1.96229">
        <ele>153</ele>
        <time>2017-11-19T11:27:52Z</time>
      </trkpt>
      <trkpt lat="48.51682" lon="1.96228">
        <ele>154</ele>
        <time>2017-11-19T11:27:56Z</time>
      </trkpt>
      <trkpt lat="48.51712" lon="1.96233">
        <ele>155</ele>
        <time>2017-11-19T11:28:17Z</time>
      </trkpt>
      <trkpt lat="48.51732" lon="1.96228">
        <ele>156</ele>
        <time>2017-11-19T11:28:35Z</time>
      </trkpt>
      <trkpt lat="48.51748" lon="1.96232">
        <ele>156</ele>
        <time>2017-11-19T11:28:50Z</time>
      </trkpt>
      <trkpt lat="48.51752" lon="1.96235">
        <ele>156</ele>
        <time>2017-11-19T11:28:54Z</time>
      </trkpt>
      <trkpt lat="48.51765" lon="1.9625">
        <ele>156</ele>
        <time>2017-11-19T11:29:04Z</time>
      </trkpt>
      <trkpt lat="48.51774" lon="1.96258">
        <ele>156</ele>
        <time>2017-11-19T11:29:12Z</time>
      </trkpt>
      <trkpt lat="48.51779" lon="1.9626">
        <ele>156</ele>
        <time>2017-11-19T11:29:17Z</time>
      </trkpt>
      <trkpt lat="48.51784" lon="1.96263">
        <ele>156</ele>
        <time>2017-11-19T11:29:21Z</time>
      </trkpt>
      <trkpt lat="48.5179" lon="1.96276">
        <ele>156</ele>
        <time>2017-11-19T11:29:28Z</time>
      </trkpt>
      <trkpt lat="48.51792" lon="1.96284">
        <ele>157</ele>
        <time>2017-11-19T11:29:33Z</time>
      </trkpt>
      <trkpt lat="48.51802" lon="1.96308">
        <ele>157</ele>
        <time>2017-11-19T11:29:45Z</time>
      </trkpt>
      <trkpt lat="48.51804" lon="1.96323">
        <ele>157</ele>
        <time>2017-11-19T11:29:51Z</time>
      </trkpt>
      <trkpt lat="48.51813" lon="1.96391">
        <ele>156</ele>
        <time>2017-11-19T11:30:22Z</time>
      </trkpt>
      <trkpt lat="48.51816" lon="1.96406">
        <ele>156</ele>
        <time>2017-11-19T11:30:29Z</time>
      </trkpt>
      <trkpt lat="48.51817" lon="1.96422">
        <ele>157</ele>
        <time>2017-11-19T11:30:37Z</time>
      </trkpt>
      <trkpt lat="48.5182" lon="1.96428">
        <ele>157</ele>
        <time>2017-11-19T11:30:40Z</time>
      </trkpt>
      <trkpt lat="48.51822" lon="1.96435">
        <ele>157</ele>
        <time>2017-11-19T11:30:44Z</time>
      </trkpt>
      <trkpt lat="48.51825" lon="1.96459">
        <ele>157</ele>
        <time>2017-11-19T11:30:56Z</time>
      </trkpt>
      <trkpt lat="48.5183" lon="1.96488">
        <ele>158</ele>
        <time>2017-11-19T11:31:12Z</time>
      </trkpt>
      <trkpt lat="48.5183" lon="1.96504">
        <ele>158</ele>
        <time>2017-11-19T11:31:20Z</time>
      </trkpt>
      <trkpt lat="48.51833" lon="1.9652">
        <ele>159</ele>
        <time>2017-11-19T11:31:28Z</time>
      </trkpt>
      <trkpt lat="48.51836" lon="1.96527">
        <ele>160</ele>
        <time>2017-11-19T11:31:32Z</time>
      </trkpt>
      <trkpt lat="48.51842" lon="1.96555">
        <ele>160</ele>
        <time>2017-11-19T11:31:46Z</time>
      </trkpt>
      <trkpt lat="48.51845" lon="1.96567">
        <ele>161</ele>
        <time>2017-11-19T11:31:52Z</time>
      </trkpt>
      <trkpt lat="48.51847" lon="1.96589">
        <ele>161</ele>
        <time>2017-11-19T11:32:02Z</time>
      </trkpt>
      <trkpt lat="48.51846" lon="1.96596">
        <ele>161</ele>
        <time>2017-11-19T11:32:06Z</time>
      </trkpt>
      <trkpt lat="48.51848" lon="1.96616">
        <ele>161</ele>
        <time>2017-11-19T11:32:14Z</time>
      </trkpt>
      <trkpt lat="48.51852" lon="1.96623">
        <ele>161</ele>
        <time>2017-11-19T11:32:18Z</time>
      </trkpt>
      <trkpt lat="48.51853" lon="1.96631">
        <ele>161</ele>
        <time>2017-11-19T11:32:22Z</time>
      </trkpt>
      <trkpt lat="48.51849" lon="1.96636">
        <ele>160</ele>
        <time>2017-11-19T11:32:27Z</time>
      </trkpt>
      <trkpt lat="48.51848" lon="1.96645">
        <ele>160</ele>
        <time>2017-11-19T11:32:30Z</time>
      </trkpt>
      <trkpt lat="48.51853" lon="1.96672">
        <ele>160</ele>
        <time>2017-11-19T11:32:42Z</time>
      </trkpt>
      <trkpt lat="48.51857" lon="1.96682">
        <ele>160</ele>
        <time>2017-11-19T11:32:48Z</time>
      </trkpt>
      <trkpt lat="48.51857" lon="1.96688">
        <ele>160</ele>
        <time>2017-11-19T11:32:51Z</time>
      </trkpt>
      <trkpt lat="48.51862" lon="1.96717">
        <ele>159</ele>
        <time>2017-11-19T11:33:04Z</time>
      </trkpt>
      <trkpt lat="48.51864" lon="1.96727">
        <ele>159</ele>
        <time>2017-11-19T11:33:10Z</time>
      </trkpt>
      <trkpt lat="48.51865" lon="1.96741">
        <ele>159</ele>
        <time>2017-11-19T11:33:17Z</time>
      </trkpt>
      <trkpt lat="48.51877" lon="1.96787">
        <ele>159</ele>
        <time>2017-11-19T11:33:38Z</time>
      </trkpt>
      <trkpt lat="48.51884" lon="1.96853">
        <ele>159</ele>
        <time>2017-11-19T11:34:10Z</time>
      </trkpt>
      <trkpt lat="48.51885" lon="1.96861">
        <ele>159</ele>
        <time>2017-11-19T11:34:13Z</time>
      </trkpt>
      <trkpt lat="48.51889" lon="1.96868">
        <ele>160</ele>
        <time>2017-11-19T11:34:17Z</time>
      </trkpt>
      <trkpt lat="48.51891" lon="1.96886">
        <ele>160</ele>
        <time>2017-11-19T11:34:24Z</time>
      </trkpt>
      <trkpt lat="48.51891" lon="1.96904">
        <ele>160</ele>
        <time>2017-11-19T11:34:33Z</time>
      </trkpt>
      <trkpt lat="48.51893" lon="1.96912">
        <ele>160</ele>
        <time>2017-11-19T11:34:37Z</time>
      </trkpt>
      <trkpt lat="48.51899" lon="1.96922">
        <ele>160</ele>
        <time>2017-11-19T11:34:43Z</time>
      </trkpt>
      <trkpt lat="48.51903" lon="1.96942">
        <ele>161</ele>
        <time>2017-11-19T11:34:53Z</time>
      </trkpt>
      <trkpt lat="48.51904" lon="1.96957">
        <ele>161</ele>
        <time>2017-11-19T11:35:00Z</time>
      </trkpt>
      <trkpt lat="48.51908" lon="1.96974">
        <ele>161</ele>
        <time>2017-11-19T11:35:08Z</time>
      </trkpt>
      <trkpt lat="48.51908" lon="1.96995">
        <ele>161</ele>
        <time>2017-11-19T11:35:17Z</time>
      </trkpt>
      <trkpt lat="48.51912" lon="1.97006">
        <ele>161</ele>
        <time>2017-11-19T11:35:22Z</time>
      </trkpt>
      <trkpt lat="48.51915" lon="1.97027">
        <ele>161</ele>
        <time>2017-11-19T11:35:33Z</time>
      </trkpt>
      <trkpt lat="48.51918" lon="1.97051">
        <ele>161</ele>
        <time>2017-11-19T11:35:45Z</time>
      </trkpt>
      <trkpt lat="48.51921" lon="1.97056">
        <ele>161</ele>
        <time>2017-11-19T11:35:47Z</time>
      </trkpt>
      <trkpt lat="48.51923" lon="1.9707">
        <ele>161</ele>
        <time>2017-11-19T11:35:53Z</time>
      </trkpt>
      <trkpt lat="48.51927" lon="1.97076">
        <ele>161</ele>
        <time>2017-11-19T11:35:59Z</time>
      </trkpt>
      <trkpt lat="48.51928" lon="1.97083">
        <ele>161</ele>
        <time>2017-11-19T11:36:03Z</time>
      </trkpt>
      <trkpt lat="48.51932" lon="1.97087">
        <ele>162</ele>
        <time>2017-11-19T11:36:36Z</time>
      </trkpt>
      <trkpt lat="48.51936" lon="1.97082">
        <ele>162</ele>
        <time>2017-11-19T11:36:42Z</time>
      </trkpt>
      <trkpt lat="48.5194" lon="1.97079">
        <ele>162</ele>
        <time>2017-11-19T11:36:50Z</time>
      </trkpt>
      <trkpt lat="48.51945" lon="1.97079">
        <ele>162</ele>
        <time>2017-11-19T11:36:54Z</time>
      </trkpt>
      <trkpt lat="48.51949" lon="1.97081">
        <ele>162</ele>
        <time>2017-11-19T11:36:59Z</time>
      </trkpt>
      <trkpt lat="48.51965" lon="1.97083">
        <ele>161</ele>
        <time>2017-11-19T11:37:12Z</time>
      </trkpt>
      <trkpt lat="48.51967" lon="1.97076">
        <ele>161</ele>
        <time>2017-11-19T11:37:19Z</time>
      </trkpt>
      <trkpt lat="48.51968" lon="1.97068">
        <ele>162</ele>
        <time>2017-11-19T11:37:34Z</time>
      </trkpt>
      <trkpt lat="48.51974" lon="1.9707">
        <ele>160</ele>
        <time>2017-11-19T11:39:34Z</time>
      </trkpt>
      <trkpt lat="48.51974" lon="1.97067">
        <ele>158</ele>
        <time>2017-11-19T11:50:48Z</time>
      </trkpt>
      <trkpt lat="48.5197" lon="1.97071">
        <ele>157</ele>
        <time>2017-11-19T11:52:48Z</time>
      </trkpt>
      <trkpt lat="48.51967" lon="1.97072">
        <ele>157</ele>
        <time>2017-11-19T12:09:23Z</time>
      </trkpt>
      <trkpt lat="48.51968" lon="1.97074">
        <ele>157</ele>
        <time>2017-11-19T12:10:58Z</time>
      </trkpt>
      <trkpt lat="48.51966" lon="1.97075">
        <ele>160</ele>
        <time>2017-11-19T12:15:16Z</time>
      </trkpt>
      <trkpt lat="48.51962" lon="1.97081">
        <ele>160</ele>
        <time>2017-11-19T12:15:43Z</time>
      </trkpt>
      <trkpt lat="48.51962" lon="1.97081">
        <ele>160</ele>
        <time>2017-11-19T12:17:29Z</time>
      </trkpt>
      <trkpt lat="48.51968" lon="1.97081">
        <ele>160</ele>
        <time>2017-11-19T12:17:33Z</time>
      </trkpt>
      <trkpt lat="48.51973" lon="1.97075">
        <ele>156</ele>
        <time>2017-11-19T12:19:35Z</time>
      </trkpt>
      <trkpt lat="48.51969" lon="1.9707">
        <ele>156</ele>
        <time>2017-11-19T12:21:03Z</time>
      </trkpt>
      <trkpt lat="48.51972" lon="1.97065">
        <ele>157</ele>
        <time>2017-11-19T12:22:24Z</time>
      </trkpt>
      <trkpt lat="48.51973" lon="1.97062">
        <ele>157</ele>
        <time>2017-11-19T12:26:33Z</time>
      </trkpt>
      <trkpt lat="48.51977" lon="1.9707">
        <ele>158</ele>
        <time>2017-11-19T12:28:47Z</time>
      </trkpt>
      <trkpt lat="48.51979" lon="1.97077">
        <ele>158</ele>
        <time>2017-11-19T12:29:09Z</time>
      </trkpt>
      <trkpt lat="48.51966" lon="1.97072">
        <ele>158</ele>
        <time>2017-11-19T12:32:52Z</time>
      </trkpt>
      <trkpt lat="48.51959" lon="1.97072">
        <ele>158</ele>
        <time>2017-11-19T12:34:53Z</time>
      </trkpt>
      <trkpt lat="48.51957" lon="1.97065">
        <ele>158</ele>
        <time>2017-11-19T12:34:58Z</time>
      </trkpt>
      <trkpt lat="48.51965" lon="1.97036">
        <ele>158</ele>
        <time>2017-11-19T12:35:11Z</time>
      </trkpt>
      <trkpt lat="48.51963" lon="1.97019">
        <ele>158</ele>
        <time>2017-11-19T12:35:19Z</time>
      </trkpt>
      <trkpt lat="48.51964" lon="1.97011">
        <ele>158</ele>
        <time>2017-11-19T12:35:26Z</time>
      </trkpt>
      <trkpt lat="48.5196" lon="1.96997">
        <ele>158</ele>
        <time>2017-11-19T12:35:35Z</time>
      </trkpt>
      <trkpt lat="48.5196" lon="1.9699">
        <ele>158</ele>
        <time>2017-11-19T12:35:42Z</time>
      </trkpt>
      <trkpt lat="48.51964" lon="1.96986">
        <ele>157</ele>
        <time>2017-11-19T12:35:47Z</time>
      </trkpt>
      <trkpt lat="48.51969" lon="1.96974">
        <ele>157</ele>
        <time>2017-11-19T12:35:56Z</time>
      </trkpt>
      <trkpt lat="48.51974" lon="1.9697">
        <ele>157</ele>
        <time>2017-11-19T12:36:02Z</time>
      </trkpt>
      <trkpt lat="48.51977" lon="1.96957">
        <ele>156</ele>
        <time>2017-11-19T12:37:49Z</time>
      </trkpt>
      <trkpt lat="48.51969" lon="1.96957">
        <ele>157</ele>
        <time>2017-11-19T12:38:25Z</time>
      </trkpt>
      <trkpt lat="48.51966" lon="1.96967">
        <ele>157</ele>
        <time>2017-11-19T12:38:32Z</time>
      </trkpt>
      <trkpt lat="48.51963" lon="1.96973">
        <ele>157</ele>
        <time>2017-11-19T12:38:36Z</time>
      </trkpt>
      <trkpt lat="48.51957" lon="1.96987">
        <ele>157</ele>
        <time>2017-11-19T12:38:44Z</time>
      </trkpt>
      <trkpt lat="48.51954" lon="1.96992">
        <ele>157</ele>
        <time>2017-11-19T12:38:47Z</time>
      </trkpt>
      <trkpt lat="48.51951" lon="1.97">
        <ele>157</ele>
        <time>2017-11-19T12:38:53Z</time>
      </trkpt>
      <trkpt lat="48.51955" lon="1.97017">
        <ele>157</ele>
        <time>2017-11-19T12:39:06Z</time>
      </trkpt>
      <trkpt lat="48.51946" lon="1.97033">
        <ele>158</ele>
        <time>2017-11-19T12:39:20Z</time>
      </trkpt>
      <trkpt lat="48.51947" lon="1.9704">
        <ele>158</ele>
        <time>2017-11-19T12:39:25Z</time>
      </trkpt>
      <trkpt lat="48.51972" lon="1.97065">
        <ele>157</ele>
        <time>2017-11-19T12:39:45Z</time>
      </trkpt>
      <trkpt lat="48.51974" lon="1.97072">
        <ele>156</ele>
        <time>2017-11-19T12:41:24Z</time>
      </trkpt>
      <trkpt lat="48.51975" lon="1.97071">
        <ele>156</ele>
        <time>2017-11-19T12:44:13Z</time>
      </trkpt>
      <trkpt lat="48.51974" lon="1.97065">
        <ele>157</ele>
        <time>2017-11-19T12:45:14Z</time>
      </trkpt>
      <trkpt lat="48.51969" lon="1.9707">
        <ele>157</ele>
        <time>2017-11-19T12:45:40Z</time>
      </trkpt>
      <trkpt lat="48.51972" lon="1.97078">
        <ele>157</ele>
        <time>2017-11-19T12:46:51Z</time>
      </trkpt>
      <trkpt lat="48.51973" lon="1.97077">
        <ele>157</ele>
        <time>2017-11-19T12:47:42Z</time>
      </trkpt>
      <trkpt lat="48.51973" lon="1.97082">
        <ele>157</ele>
        <time>2017-11-19T12:48:14Z</time>
      </trkpt>
      <trkpt lat="48.51966" lon="1.97088">
        <ele>157</ele>
        <time>2017-11-19T12:48:39Z</time>
      </trkpt>
      <trkpt lat="48.51956" lon="1.9709">
        <ele>157</ele>
        <time>2017-11-19T12:48:46Z</time>
      </trkpt>
      <trkpt lat="48.51951" lon="1.97092">
        <ele>157</ele>
        <time>2017-11-19T12:48:51Z</time>
      </trkpt>
      <trkpt lat="48.51945" lon="1.97089">
        <ele>157</ele>
        <time>2017-11-19T12:48:57Z</time>
      </trkpt>
      <trkpt lat="48.51951" lon="1.97082">
        <ele>157</ele>
        <time>2017-11-19T12:49:18Z</time>
      </trkpt>
      <trkpt lat="48.51962" lon="1.97081">
        <ele>157</ele>
        <time>2017-11-19T12:49:29Z</time>
      </trkpt>
      <trkpt lat="48.51967" lon="1.97083">
        <ele>157</ele>
        <time>2017-11-19T12:49:36Z</time>
      </trkpt>
      <trkpt lat="48.51972" lon="1.97083">
        <ele>157</ele>
        <time>2017-11-19T12:49:41Z</time>
      </trkpt>
      <trkpt lat="48.51976" lon="1.97087">
        <ele>157</ele>
        <time>2017-11-19T12:49:46Z</time>
      </trkpt>
      <trkpt lat="48.51981" lon="1.97085">
        <ele>158</ele>
        <time>2017-11-19T12:49:51Z</time>
      </trkpt>
      <trkpt lat="48.51985" lon="1.97082">
        <ele>158</ele>
        <time>2017-11-19T12:49:56Z</time>
      </trkpt>
      <trkpt lat="48.51992" lon="1.97094">
        <ele>158</ele>
        <time>2017-11-19T12:50:05Z</time>
      </trkpt>
      <trkpt lat="48.51997" lon="1.97095">
        <ele>158</ele>
        <time>2017-11-19T12:50:08Z</time>
      </trkpt>
      <trkpt lat="48.52008" lon="1.97096">
        <ele>158</ele>
        <time>2017-11-19T12:50:16Z</time>
      </trkpt>
      <trkpt lat="48.52041" lon="1.97085">
        <ele>157</ele>
        <time>2017-11-19T12:50:40Z</time>
      </trkpt>
      <trkpt lat="48.52046" lon="1.97084">
        <ele>157</ele>
        <time>2017-11-19T12:50:43Z</time>
      </trkpt>
      <trkpt lat="48.52066" lon="1.97093">
        <ele>155</ele>
        <time>2017-11-19T12:51:01Z</time>
      </trkpt>
      <trkpt lat="48.52077" lon="1.97095">
        <ele>155</ele>
        <time>2017-11-19T12:51:11Z</time>
      </trkpt>
      <trkpt lat="48.52088" lon="1.97099">
        <ele>151</ele>
        <time>2017-11-19T12:51:32Z</time>
      </trkpt>
      <trkpt lat="48.52093" lon="1.97098">
        <ele>150</ele>
        <time>2017-11-19T12:51:37Z</time>
      </trkpt>
      <trkpt lat="48.52114" lon="1.97104">
        <ele>143</ele>
        <time>2017-11-19T12:52:08Z</time>
      </trkpt>
      <trkpt lat="48.52118" lon="1.971">
        <ele>143</ele>
        <time>2017-11-19T12:52:12Z</time>
      </trkpt>
      <trkpt lat="48.52128" lon="1.97097">
        <ele>141</ele>
        <time>2017-11-19T12:52:20Z</time>
      </trkpt>
      <trkpt lat="48.5214" lon="1.97097">
        <ele>139</ele>
        <time>2017-11-19T12:52:27Z</time>
      </trkpt>
      <trkpt lat="48.52144" lon="1.97096">
        <ele>139</ele>
        <time>2017-11-19T12:52:31Z</time>
      </trkpt>
      <trkpt lat="48.5215" lon="1.97097">
        <ele>138</ele>
        <time>2017-11-19T12:52:34Z</time>
      </trkpt>
      <trkpt lat="48.52156" lon="1.97101">
        <ele>137</ele>
        <time>2017-11-19T12:52:39Z</time>
      </trkpt>
      <trkpt lat="48.5216" lon="1.97102">
        <ele>137</ele>
        <time>2017-11-19T12:52:42Z</time>
      </trkpt>
      <trkpt lat="48.52173" lon="1.971">
        <ele>135</ele>
        <time>2017-11-19T12:52:49Z</time>
      </trkpt>
      <trkpt lat="48.52194" lon="1.97103">
        <ele>134</ele>
        <time>2017-11-19T12:53:01Z</time>
      </trkpt>
      <trkpt lat="48.52209" lon="1.97116">
        <ele>133</ele>
        <time>2017-11-19T12:53:13Z</time>
      </trkpt>
      <trkpt lat="48.52213" lon="1.97111">
        <ele>132</ele>
        <time>2017-11-19T12:53:20Z</time>
      </trkpt>
      <trkpt lat="48.52234" lon="1.97107">
        <ele>131</ele>
        <time>2017-11-19T12:53:27Z</time>
      </trkpt>
      <trkpt lat="48.52238" lon="1.9711">
        <ele>131</ele>
        <time>2017-11-19T12:53:36Z</time>
      </trkpt>
      <trkpt lat="48.52244" lon="1.9711">
        <ele>130</ele>
        <time>2017-11-19T12:53:39Z</time>
      </trkpt>
      <trkpt lat="48.5225" lon="1.97116">
        <ele>130</ele>
        <time>2017-11-19T12:53:44Z</time>
      </trkpt>
      <trkpt lat="48.52254" lon="1.97118">
        <ele>130</ele>
        <time>2017-11-19T12:53:47Z</time>
      </trkpt>
      <trkpt lat="48.52265" lon="1.97126">
        <ele>129</ele>
        <time>2017-11-19T12:53:56Z</time>
      </trkpt>
      <trkpt lat="48.5227" lon="1.97129">
        <ele>128</ele>
        <time>2017-11-19T12:54:01Z</time>
      </trkpt>
      <trkpt lat="48.52303" lon="1.97125">
        <ele>128</ele>
        <time>2017-11-19T12:54:27Z</time>
      </trkpt>
      <trkpt lat="48.52324" lon="1.9713">
        <ele>128</ele>
        <time>2017-11-19T12:54:44Z</time>
      </trkpt>
      <trkpt lat="48.52328" lon="1.97133">
        <ele>128</ele>
        <time>2017-11-19T12:54:48Z</time>
      </trkpt>
      <trkpt lat="48.52357" lon="1.97138">
        <ele>127</ele>
        <time>2017-11-19T12:55:09Z</time>
      </trkpt>
      <trkpt lat="48.52374" lon="1.97129">
        <ele>127</ele>
        <time>2017-11-19T12:55:18Z</time>
      </trkpt>
      <trkpt lat="48.52383" lon="1.97134">
        <ele>127</ele>
        <time>2017-11-19T12:55:24Z</time>
      </trkpt>
      <trkpt lat="48.524" lon="1.9714">
        <ele>127</ele>
        <time>2017-11-19T12:55:42Z</time>
      </trkpt>
      <trkpt lat="48.52429" lon="1.97151">
        <ele>127</ele>
        <time>2017-11-19T12:56:02Z</time>
      </trkpt>
      <trkpt lat="48.52443" lon="1.97149">
        <ele>128</ele>
        <time>2017-11-19T12:56:11Z</time>
      </trkpt>
      <trkpt lat="48.52454" lon="1.97153">
        <ele>126</ele>
        <time>2017-11-19T12:56:23Z</time>
      </trkpt>
      <trkpt lat="48.52464" lon="1.97152">
        <ele>125</ele>
        <time>2017-11-19T12:56:34Z</time>
      </trkpt>
      <trkpt lat="48.52468" lon="1.97147">
        <ele>125</ele>
        <time>2017-11-19T12:56:38Z</time>
      </trkpt>
      <trkpt lat="48.52473" lon="1.97147">
        <ele>125</ele>
        <time>2017-11-19T12:56:40Z</time>
      </trkpt>
      <trkpt lat="48.52484" lon="1.9715">
        <ele>124</ele>
        <time>2017-11-19T12:56:47Z</time>
      </trkpt>
      <trkpt lat="48.52504" lon="1.97145">
        <ele>124</ele>
        <time>2017-11-19T12:57:01Z</time>
      </trkpt>
      <trkpt lat="48.52509" lon="1.97146">
        <ele>124</ele>
        <time>2017-11-19T12:57:04Z</time>
      </trkpt>
      <trkpt lat="48.52518" lon="1.97142">
        <ele>123</ele>
        <time>2017-11-19T12:57:16Z</time>
      </trkpt>
      <trkpt lat="48.52529" lon="1.97147">
        <ele>123</ele>
        <time>2017-11-19T12:57:23Z</time>
      </trkpt>
      <trkpt lat="48.52538" lon="1.97147">
        <ele>123</ele>
        <time>2017-11-19T12:57:29Z</time>
      </trkpt>
      <trkpt lat="48.52553" lon="1.97151">
        <ele>123</ele>
        <time>2017-11-19T12:57:39Z</time>
      </trkpt>
      <trkpt lat="48.52559" lon="1.9715">
        <ele>123</ele>
        <time>2017-11-19T12:57:42Z</time>
      </trkpt>
      <trkpt lat="48.52571" lon="1.97155">
        <ele>123</ele>
        <time>2017-11-19T12:57:50Z</time>
      </trkpt>
      <trkpt lat="48.52587" lon="1.97155">
        <ele>122</ele>
        <time>2017-11-19T12:58:00Z</time>
      </trkpt>
      <trkpt lat="48.52622" lon="1.97167">
        <ele>121</ele>
        <time>2017-11-19T12:58:25Z</time>
      </trkpt>
      <trkpt lat="48.52628" lon="1.97165">
        <ele>120</ele>
        <time>2017-11-19T12:58:28Z</time>
      </trkpt>
      <trkpt lat="48.52632" lon="1.97167">
        <ele>120</ele>
        <time>2017-11-19T12:58:33Z</time>
      </trkpt>
      <trkpt lat="48.52643" lon="1.97164">
        <ele>120</ele>
        <time>2017-11-19T12:58:38Z</time>
      </trkpt>
      <trkpt lat="48.52653" lon="1.97167">
        <ele>119</ele>
        <time>2017-11-19T12:58:44Z</time>
      </trkpt>
      <trkpt lat="48.52658" lon="1.97168">
        <ele>118</ele>
        <time>2017-11-19T12:58:47Z</time>
      </trkpt>
      <trkpt lat="48.52663" lon="1.97163">
        <ele>117</ele>
        <time>2017-11-19T12:58:53Z</time>
      </trkpt>
      <trkpt lat="48.52694" lon="1.97156">
        <ele>114</ele>
        <time>2017-11-19T12:59:13Z</time>
      </trkpt>
      <trkpt lat="48.527" lon="1.97157">
        <ele>113</ele>
        <time>2017-11-19T12:59:20Z</time>
      </trkpt>
      <trkpt lat="48.52705" lon="1.97154">
        <ele>112</ele>
        <time>2017-11-19T12:59:24Z</time>
      </trkpt>
      <trkpt lat="48.5271" lon="1.97153">
        <ele>112</ele>
        <time>2017-11-19T12:59:26Z</time>
      </trkpt>
      <trkpt lat="48.52716" lon="1.97157">
        <ele>111</ele>
        <time>2017-11-19T12:59:33Z</time>
      </trkpt>
      <trkpt lat="48.52722" lon="1.9716">
        <ele>110</ele>
        <time>2017-11-19T12:59:36Z</time>
      </trkpt>
      <trkpt lat="48.52727" lon="1.97157">
        <ele>110</ele>
        <time>2017-11-19T12:59:38Z</time>
      </trkpt>
      <trkpt lat="48.52744" lon="1.97153">
        <ele>108</ele>
        <time>2017-11-19T12:59:52Z</time>
      </trkpt>
      <trkpt lat="48.52747" lon="1.97149">
        <ele>108</ele>
        <time>2017-11-19T12:59:56Z</time>
      </trkpt>
      <trkpt lat="48.52748" lon="1.97142">
        <ele>109</ele>
        <time>2017-11-19T13:00:00Z</time>
      </trkpt>
      <trkpt lat="48.52747" lon="1.97135">
        <ele>109</ele>
        <time>2017-11-19T13:00:04Z</time>
      </trkpt>
      <trkpt lat="48.52747" lon="1.97127">
        <ele>109</ele>
        <time>2017-11-19T13:00:08Z</time>
      </trkpt>
      <trkpt lat="48.52746" lon="1.97111">
        <ele>110</ele>
        <time>2017-11-19T13:00:18Z</time>
      </trkpt>
      <trkpt lat="48.52749" lon="1.9708">
        <ele>110</ele>
        <time>2017-11-19T13:00:34Z</time>
      </trkpt>
      <trkpt lat="48.52747" lon="1.97074">
        <ele>110</ele>
        <time>2017-11-19T13:00:37Z</time>
      </trkpt>
      <trkpt lat="48.52745" lon="1.97058">
        <ele>110</ele>
        <time>2017-11-19T13:00:44Z</time>
      </trkpt>
      <trkpt lat="48.52747" lon="1.97045">
        <ele>111</ele>
        <time>2017-11-19T13:00:49Z</time>
      </trkpt>
      <trkpt lat="48.52744" lon="1.97037">
        <ele>111</ele>
        <time>2017-11-19T13:00:53Z</time>
      </trkpt>
      <trkpt lat="48.52744" lon="1.97027">
        <ele>111</ele>
        <time>2017-11-19T13:01:01Z</time>
      </trkpt>
      <trkpt lat="48.52748" lon="1.97012">
        <ele>112</ele>
        <time>2017-11-19T13:01:09Z</time>
      </trkpt>
      <trkpt lat="48.5275" lon="1.97005">
        <ele>112</ele>
        <time>2017-11-19T13:01:12Z</time>
      </trkpt>
      <trkpt lat="48.52757" lon="1.96992">
        <ele>111</ele>
        <time>2017-11-19T13:01:20Z</time>
      </trkpt>
      <trkpt lat="48.52759" lon="1.96985">
        <ele>111</ele>
        <time>2017-11-19T13:01:23Z</time>
      </trkpt>
      <trkpt lat="48.52759" lon="1.96978">
        <ele>111</ele>
        <time>2017-11-19T13:01:26Z</time>
      </trkpt>
      <trkpt lat="48.52762" lon="1.96957">
        <ele>110</ele>
        <time>2017-11-19T13:01:37Z</time>
      </trkpt>
      <trkpt lat="48.52766" lon="1.96948">
        <ele>110</ele>
        <time>2017-11-19T13:01:42Z</time>
      </trkpt>
      <trkpt lat="48.52771" lon="1.96931">
        <ele>110</ele>
        <time>2017-11-19T13:01:51Z</time>
      </trkpt>
      <trkpt lat="48.5277" lon="1.96922">
        <ele>110</ele>
        <time>2017-11-19T13:01:54Z</time>
      </trkpt>
      <trkpt lat="48.52769" lon="1.96914">
        <ele>110</ele>
        <time>2017-11-19T13:01:59Z</time>
      </trkpt>
      <trkpt lat="48.52766" lon="1.96907">
        <ele>110</ele>
        <time>2017-11-19T13:02:02Z</time>
      </trkpt>
      <trkpt lat="48.52768" lon="1.96889">
        <ele>110</ele>
        <time>2017-11-19T13:02:10Z</time>
      </trkpt>
      <trkpt lat="48.52775" lon="1.96873">
        <ele>111</ele>
        <time>2017-11-19T13:02:18Z</time>
      </trkpt>
      <trkpt lat="48.52776" lon="1.96858">
        <ele>111</ele>
        <time>2017-11-19T13:02:25Z</time>
      </trkpt>
      <trkpt lat="48.52773" lon="1.96849">
        <ele>111</ele>
        <time>2017-11-19T13:02:29Z</time>
      </trkpt>
      <trkpt lat="48.52773" lon="1.96842">
        <ele>111</ele>
        <time>2017-11-19T13:02:33Z</time>
      </trkpt>
      <trkpt lat="48.5277" lon="1.96834">
        <ele>112</ele>
        <time>2017-11-19T13:02:36Z</time>
      </trkpt>
      <trkpt lat="48.52774" lon="1.96828">
        <ele>112</ele>
        <time>2017-11-19T13:02:42Z</time>
      </trkpt>
      <trkpt lat="48.52771" lon="1.9682">
        <ele>113</ele>
        <time>2017-11-19T13:02:48Z</time>
      </trkpt>
      <trkpt lat="48.5277" lon="1.96812">
        <ele>113</ele>
        <time>2017-11-19T13:02:53Z</time>
      </trkpt>
      <trkpt lat="48.52772" lon="1.96805">
        <ele>113</ele>
        <time>2017-11-19T13:02:58Z</time>
      </trkpt>
      <trkpt lat="48.52773" lon="1.96796">
        <ele>114</ele>
        <time>2017-11-19T13:03:03Z</time>
      </trkpt>
      <trkpt lat="48.52772" lon="1.96773">
        <ele>115</ele>
        <time>2017-11-19T13:03:13Z</time>
      </trkpt>
      <trkpt lat="48.52773" lon="1.96766">
        <ele>115</ele>
        <time>2017-11-19T13:03:16Z</time>
      </trkpt>
      <trkpt lat="48.52773" lon="1.96758">
        <ele>115</ele>
        <time>2017-11-19T13:03:20Z</time>
      </trkpt>
      <trkpt lat="48.52774" lon="1.9675">
        <ele>115</ele>
        <time>2017-11-19T13:03:24Z</time>
      </trkpt>
      <trkpt lat="48.52777" lon="1.96744">
        <ele>116</ele>
        <time>2017-11-19T13:03:29Z</time>
      </trkpt>
      <trkpt lat="48.52778" lon="1.96728">
        <ele>116</ele>
        <time>2017-11-19T13:03:36Z</time>
      </trkpt>
      <trkpt lat="48.52781" lon="1.96713">
        <ele>117</ele>
        <time>2017-11-19T13:03:43Z</time>
      </trkpt>
      <trkpt lat="48.52779" lon="1.96705">
        <ele>117</ele>
        <time>2017-11-19T13:03:47Z</time>
      </trkpt>
      <trkpt lat="48.52779" lon="1.96691">
        <ele>117</ele>
        <time>2017-11-19T13:03:55Z</time>
      </trkpt>
      <trkpt lat="48.52785" lon="1.96675">
        <ele>117</ele>
        <time>2017-11-19T13:04:04Z</time>
      </trkpt>
      <trkpt lat="48.52786" lon="1.96659">
        <ele>117</ele>
        <time>2017-11-19T13:04:11Z</time>
      </trkpt>
      <trkpt lat="48.52786" lon="1.9665">
        <ele>116</ele>
        <time>2017-11-19T13:04:14Z</time>
      </trkpt>
      <trkpt lat="48.52787" lon="1.96643">
        <ele>116</ele>
        <time>2017-11-19T13:04:18Z</time>
      </trkpt>
      <trkpt lat="48.5279" lon="1.96637">
        <ele>116</ele>
        <time>2017-11-19T13:04:21Z</time>
      </trkpt>
      <trkpt lat="48.52791" lon="1.96629">
        <ele>116</ele>
        <time>2017-11-19T13:04:26Z</time>
      </trkpt>
      <trkpt lat="48.52793" lon="1.96622">
        <ele>115</ele>
        <time>2017-11-19T13:04:32Z</time>
      </trkpt>
      <trkpt lat="48.52794" lon="1.96616">
        <ele>114</ele>
        <time>2017-11-19T13:04:35Z</time>
      </trkpt>
      <trkpt lat="48.52794" lon="1.96608">
        <ele>114</ele>
        <time>2017-11-19T13:04:39Z</time>
      </trkpt>
      <trkpt lat="48.52796" lon="1.96601">
        <ele>113</ele>
        <time>2017-11-19T13:04:43Z</time>
      </trkpt>
      <trkpt lat="48.52797" lon="1.96593">
        <ele>112</ele>
        <time>2017-11-19T13:04:47Z</time>
      </trkpt>
      <trkpt lat="48.528" lon="1.96585">
        <ele>112</ele>
        <time>2017-11-19T13:04:51Z</time>
      </trkpt>
      <trkpt lat="48.52801" lon="1.96576">
        <ele>111</ele>
        <time>2017-11-19T13:04:55Z</time>
      </trkpt>
      <trkpt lat="48.52792" lon="1.96548">
        <ele>110</ele>
        <time>2017-11-19T13:05:08Z</time>
      </trkpt>
      <trkpt lat="48.52794" lon="1.9654">
        <ele>110</ele>
        <time>2017-11-19T13:05:12Z</time>
      </trkpt>
      <trkpt lat="48.52801" lon="1.96526">
        <ele>111</ele>
        <time>2017-11-19T13:05:19Z</time>
      </trkpt>
      <trkpt lat="48.52803" lon="1.9652">
        <ele>111</ele>
        <time>2017-11-19T13:05:23Z</time>
      </trkpt>
      <trkpt lat="48.52803" lon="1.96505">
        <ele>111</ele>
        <time>2017-11-19T13:05:29Z</time>
      </trkpt>
      <trkpt lat="48.52808" lon="1.96491">
        <ele>111</ele>
        <time>2017-11-19T13:05:35Z</time>
      </trkpt>
      <trkpt lat="48.52809" lon="1.96476">
        <ele>111</ele>
        <time>2017-11-19T13:05:43Z</time>
      </trkpt>
      <trkpt lat="48.52804" lon="1.96463">
        <ele>111</ele>
        <time>2017-11-19T13:05:49Z</time>
      </trkpt>
      <trkpt lat="48.52804" lon="1.96438">
        <ele>110</ele>
        <time>2017-11-19T13:06:01Z</time>
      </trkpt>
      <trkpt lat="48.52795" lon="1.96409">
        <ele>110</ele>
        <time>2017-11-19T13:06:17Z</time>
      </trkpt>
      <trkpt lat="48.52795" lon="1.96402">
        <ele>110</ele>
        <time>2017-11-19T13:06:20Z</time>
      </trkpt>
      <trkpt lat="48.52803" lon="1.96387">
        <ele>110</ele>
        <time>2017-11-19T13:06:26Z</time>
      </trkpt>
      <trkpt lat="48.5281" lon="1.96355">
        <ele>111</ele>
        <time>2017-11-19T13:06:40Z</time>
      </trkpt>
      <trkpt lat="48.52811" lon="1.96338">
        <ele>111</ele>
        <time>2017-11-19T13:06:47Z</time>
      </trkpt>
      <trkpt lat="48.52811" lon="1.96329">
        <ele>111</ele>
        <time>2017-11-19T13:06:51Z</time>
      </trkpt>
      <trkpt lat="48.52814" lon="1.96307">
        <ele>111</ele>
        <time>2017-11-19T13:07:01Z</time>
      </trkpt>
      <trkpt lat="48.52826" lon="1.96281">
        <ele>111</ele>
        <time>2017-11-19T13:07:15Z</time>
      </trkpt>
      <trkpt lat="48.52827" lon="1.96274">
        <ele>111</ele>
        <time>2017-11-19T13:07:19Z</time>
      </trkpt>
      <trkpt lat="48.52826" lon="1.96264">
        <ele>110</ele>
        <time>2017-11-19T13:07:25Z</time>
      </trkpt>
      <trkpt lat="48.52824" lon="1.96256">
        <ele>110</ele>
        <time>2017-11-19T13:07:29Z</time>
      </trkpt>
      <trkpt lat="48.52826" lon="1.96249">
        <ele>109</ele>
        <time>2017-11-19T13:07:34Z</time>
      </trkpt>
      <trkpt lat="48.52827" lon="1.96241">
        <ele>109</ele>
        <time>2017-11-19T13:07:39Z</time>
      </trkpt>
      <trkpt lat="48.52833" lon="1.9622">
        <ele>107</ele>
        <time>2017-11-19T13:07:52Z</time>
      </trkpt>
      <trkpt lat="48.52833" lon="1.96204">
        <ele>106</ele>
        <time>2017-11-19T13:08:00Z</time>
      </trkpt>
      <trkpt lat="48.5283" lon="1.96198">
        <ele>106</ele>
        <time>2017-11-19T13:08:06Z</time>
      </trkpt>
      <trkpt lat="48.5283" lon="1.96192">
        <ele>106</ele>
        <time>2017-11-19T13:08:33Z</time>
      </trkpt>
      <trkpt lat="48.52833" lon="1.9619">
        <ele>106</ele>
        <time>2017-11-19T13:09:34Z</time>
      </trkpt>
      <trkpt lat="48.52834" lon="1.96183">
        <ele>107</ele>
        <time>2017-11-19T13:10:20Z</time>
      </trkpt>
      <trkpt lat="48.52842" lon="1.96178">
        <ele>107</ele>
        <time>2017-11-19T13:10:35Z</time>
      </trkpt>
      <trkpt lat="48.52859" lon="1.96179">
        <ele>106</ele>
        <time>2017-11-19T13:10:48Z</time>
      </trkpt>
      <trkpt lat="48.52869" lon="1.96182">
        <ele>106</ele>
        <time>2017-11-19T13:10:56Z</time>
      </trkpt>
      <trkpt lat="48.52885" lon="1.96185">
        <ele>106</ele>
        <time>2017-11-19T13:11:07Z</time>
      </trkpt>
      <trkpt lat="48.52894" lon="1.96191">
        <ele>106</ele>
        <time>2017-11-19T13:11:15Z</time>
      </trkpt>
      <trkpt lat="48.52924" lon="1.96191">
        <ele>106</ele>
        <time>2017-11-19T13:11:44Z</time>
      </trkpt>
      <trkpt lat="48.5293" lon="1.96193">
        <ele>106</ele>
        <time>2017-11-19T13:11:47Z</time>
      </trkpt>
      <trkpt lat="48.5294" lon="1.96199">
        <ele>106</ele>
        <time>2017-11-19T13:11:53Z</time>
      </trkpt>
      <trkpt lat="48.52969" lon="1.96206">
        <ele>104</ele>
        <time>2017-11-19T13:12:14Z</time>
      </trkpt>
      <trkpt lat="48.52974" lon="1.96204">
        <ele>104</ele>
        <time>2017-11-19T13:12:21Z</time>
      </trkpt>
      <trkpt lat="48.53001" lon="1.96218">
        <ele>104</ele>
        <time>2017-11-19T13:12:40Z</time>
      </trkpt>
      <trkpt lat="48.53006" lon="1.96218">
        <ele>104</ele>
        <time>2017-11-19T13:12:43Z</time>
      </trkpt>
      <trkpt lat="48.53041" lon="1.96231">
        <ele>103</ele>
        <time>2017-11-19T13:13:11Z</time>
      </trkpt>
      <trkpt lat="48.53046" lon="1.96237">
        <ele>103</ele>
        <time>2017-11-19T13:13:14Z</time>
      </trkpt>
      <trkpt lat="48.53052" lon="1.96274">
        <ele>103</ele>
        <time>2017-11-19T13:13:31Z</time>
      </trkpt>
      <trkpt lat="48.53047" lon="1.96293">
        <ele>103</ele>
        <time>2017-11-19T13:13:40Z</time>
      </trkpt>
      <trkpt lat="48.53046" lon="1.96301">
        <ele>103</ele>
        <time>2017-11-19T13:13:43Z</time>
      </trkpt>
      <trkpt lat="48.53047" lon="1.96309">
        <ele>103</ele>
        <time>2017-11-19T13:13:47Z</time>
      </trkpt>
      <trkpt lat="48.53046" lon="1.96333">
        <ele>104</ele>
        <time>2017-11-19T13:13:59Z</time>
      </trkpt>
      <trkpt lat="48.53045" lon="1.96341">
        <ele>104</ele>
        <time>2017-11-19T13:14:04Z</time>
      </trkpt>
      <trkpt lat="48.53043" lon="1.96384">
        <ele>104</ele>
        <time>2017-11-19T13:14:28Z</time>
      </trkpt>
      <trkpt lat="48.53041" lon="1.96391">
        <ele>104</ele>
        <time>2017-11-19T13:14:33Z</time>
      </trkpt>
      <trkpt lat="48.5304" lon="1.964">
        <ele>104</ele>
        <time>2017-11-19T13:14:37Z</time>
      </trkpt>
      <trkpt lat="48.53038" lon="1.96409">
        <ele>105</ele>
        <time>2017-11-19T13:14:43Z</time>
      </trkpt>
      <trkpt lat="48.53043" lon="1.96443">
        <ele>105</ele>
        <time>2017-11-19T13:15:01Z</time>
      </trkpt>
      <trkpt lat="48.53049" lon="1.96453">
        <ele>105</ele>
        <time>2017-11-19T13:15:09Z</time>
      </trkpt>
      <trkpt lat="48.53053" lon="1.96454">
        <ele>105</ele>
        <time>2017-11-19T13:15:12Z</time>
      </trkpt>
      <trkpt lat="48.53058" lon="1.96457">
        <ele>106</ele>
        <time>2017-11-19T13:15:17Z</time>
      </trkpt>
      <trkpt lat="48.53062" lon="1.96463">
        <ele>106</ele>
        <time>2017-11-19T13:15:20Z</time>
      </trkpt>
      <trkpt lat="48.53065" lon="1.96497">
        <ele>108</ele>
        <time>2017-11-19T13:15:42Z</time>
      </trkpt>
      <trkpt lat="48.53067" lon="1.96512">
        <ele>108</ele>
        <time>2017-11-19T13:15:50Z</time>
      </trkpt>
      <trkpt lat="48.53076" lon="1.96582">
        <ele>110</ele>
        <time>2017-11-19T13:16:24Z</time>
      </trkpt>
      <trkpt lat="48.53077" lon="1.96589">
        <ele>110</ele>
        <time>2017-11-19T13:16:28Z</time>
      </trkpt>
      <trkpt lat="48.53077" lon="1.96604">
        <ele>111</ele>
        <time>2017-11-19T13:16:36Z</time>
      </trkpt>
      <trkpt lat="48.53086" lon="1.96647">
        <ele>113</ele>
        <time>2017-11-19T13:17:01Z</time>
      </trkpt>
      <trkpt lat="48.53087" lon="1.96658">
        <ele>113</ele>
        <time>2017-11-19T13:17:08Z</time>
      </trkpt>
      <trkpt lat="48.53091" lon="1.96665">
        <ele>113</ele>
        <time>2017-11-19T13:17:11Z</time>
      </trkpt>
      <trkpt lat="48.531" lon="1.96697">
        <ele>114</ele>
        <time>2017-11-19T13:17:27Z</time>
      </trkpt>
      <trkpt lat="48.53113" lon="1.96728">
        <ele>116</ele>
        <time>2017-11-19T13:17:48Z</time>
      </trkpt>
      <trkpt lat="48.53114" lon="1.96743">
        <ele>117</ele>
        <time>2017-11-19T13:17:56Z</time>
      </trkpt>
      <trkpt lat="48.53116" lon="1.96753">
        <ele>117</ele>
        <time>2017-11-19T13:18:01Z</time>
      </trkpt>
      <trkpt lat="48.53119" lon="1.9676">
        <ele>118</ele>
        <time>2017-11-19T13:18:05Z</time>
      </trkpt>
      <trkpt lat="48.53116" lon="1.96769">
        <ele>118</ele>
        <time>2017-11-19T13:18:10Z</time>
      </trkpt>
      <trkpt lat="48.53117" lon="1.96785">
        <ele>119</ele>
        <time>2017-11-19T13:18:20Z</time>
      </trkpt>
      <trkpt lat="48.53118" lon="1.96791">
        <ele>119</ele>
        <time>2017-11-19T13:18:25Z</time>
      </trkpt>
      <trkpt lat="48.53116" lon="1.96808">
        <ele>120</ele>
        <time>2017-11-19T13:18:32Z</time>
      </trkpt>
      <trkpt lat="48.53113" lon="1.96814">
        <ele>120</ele>
        <time>2017-11-19T13:18:35Z</time>
      </trkpt>
      <trkpt lat="48.53105" lon="1.96826">
        <ele>121</ele>
        <time>2017-11-19T13:18:43Z</time>
      </trkpt>
      <trkpt lat="48.53102" lon="1.96831">
        <ele>122</ele>
        <time>2017-11-19T13:18:53Z</time>
      </trkpt>
      <trkpt lat="48.53105" lon="1.9684">
        <ele>123</ele>
        <time>2017-11-19T13:18:58Z</time>
      </trkpt>
      <trkpt lat="48.53106" lon="1.96847">
        <ele>124</ele>
        <time>2017-11-19T13:19:04Z</time>
      </trkpt>
      <trkpt lat="48.53105" lon="1.96853">
        <ele>125</ele>
        <time>2017-11-19T13:19:31Z</time>
      </trkpt>
      <trkpt lat="48.531" lon="1.96859">
        <ele>125</ele>
        <time>2017-11-19T13:20:15Z</time>
      </trkpt>
      <trkpt lat="48.53106" lon="1.96876">
        <ele>125</ele>
        <time>2017-11-19T13:20:38Z</time>
      </trkpt>
      <trkpt lat="48.53112" lon="1.96877">
        <ele>124</ele>
        <time>2017-11-19T13:20:54Z</time>
      </trkpt>
      <trkpt lat="48.53113" lon="1.96884">
        <ele>124</ele>
        <time>2017-11-19T13:20:59Z</time>
      </trkpt>
      <trkpt lat="48.5312" lon="1.96884">
        <ele>124</ele>
        <time>2017-11-19T13:21:04Z</time>
      </trkpt>
      <trkpt lat="48.53124" lon="1.96888">
        <ele>124</ele>
        <time>2017-11-19T13:21:07Z</time>
      </trkpt>
      <trkpt lat="48.5313" lon="1.96888">
        <ele>125</ele>
        <time>2017-11-19T13:21:11Z</time>
      </trkpt>
      <trkpt lat="48.53136" lon="1.96888">
        <ele>125</ele>
        <time>2017-11-19T13:21:13Z</time>
      </trkpt>
      <trkpt lat="48.5314" lon="1.96889">
        <ele>125</ele>
        <time>2017-11-19T13:21:18Z</time>
      </trkpt>
      <trkpt lat="48.53145" lon="1.96893">
        <ele>126</ele>
        <time>2017-11-19T13:21:23Z</time>
      </trkpt>
      <trkpt lat="48.53148" lon="1.96899">
        <ele>127</ele>
        <time>2017-11-19T13:21:30Z</time>
      </trkpt>
      <trkpt lat="48.53158" lon="1.96905">
        <ele>128</ele>
        <time>2017-11-19T13:21:41Z</time>
      </trkpt>
      <trkpt lat="48.53163" lon="1.9691">
        <ele>129</ele>
        <time>2017-11-19T13:21:46Z</time>
      </trkpt>
      <trkpt lat="48.53174" lon="1.96913">
        <ele>131</ele>
        <time>2017-11-19T13:21:54Z</time>
      </trkpt>
      <trkpt lat="48.53178" lon="1.96916">
        <ele>132</ele>
        <time>2017-11-19T13:21:58Z</time>
      </trkpt>
      <trkpt lat="48.53181" lon="1.96921">
        <ele>132</ele>
        <time>2017-11-19T13:22:02Z</time>
      </trkpt>
      <trkpt lat="48.53188" lon="1.96925">
        <ele>133</ele>
        <time>2017-11-19T13:22:08Z</time>
      </trkpt>
      <trkpt lat="48.53192" lon="1.96922">
        <ele>135</ele>
        <time>2017-11-19T13:22:13Z</time>
      </trkpt>
      <trkpt lat="48.53195" lon="1.96929">
        <ele>135</ele>
        <time>2017-11-19T13:22:21Z</time>
      </trkpt>
      <trkpt lat="48.53202" lon="1.96927">
        <ele>137</ele>
        <time>2017-11-19T13:22:27Z</time>
      </trkpt>
      <trkpt lat="48.53208" lon="1.96928">
        <ele>137</ele>
        <time>2017-11-19T13:22:30Z</time>
      </trkpt>
      <trkpt lat="48.53218" lon="1.96925">
        <ele>140</ele>
        <time>2017-11-19T13:22:46Z</time>
      </trkpt>
      <trkpt lat="48.53224" lon="1.96921">
        <ele>141</ele>
        <time>2017-11-19T13:22:50Z</time>
      </trkpt>
      <trkpt lat="48.53229" lon="1.9692">
        <ele>142</ele>
        <time>2017-11-19T13:22:55Z</time>
      </trkpt>
      <trkpt lat="48.53238" lon="1.96912">
        <ele>142</ele>
        <time>2017-11-19T13:23:02Z</time>
      </trkpt>
      <trkpt lat="48.53255" lon="1.96913">
        <ele>143</ele>
        <time>2017-11-19T13:23:14Z</time>
      </trkpt>
      <trkpt lat="48.53275" lon="1.96906">
        <ele>143</ele>
        <time>2017-11-19T13:23:27Z</time>
      </trkpt>
      <trkpt lat="48.53284" lon="1.96905">
        <ele>143</ele>
        <time>2017-11-19T13:23:35Z</time>
      </trkpt>
      <trkpt lat="48.53289" lon="1.96903">
        <ele>143</ele>
        <time>2017-11-19T13:23:41Z</time>
      </trkpt>
      <trkpt lat="48.53293" lon="1.96907">
        <ele>143</ele>
        <time>2017-11-19T13:23:45Z</time>
      </trkpt>
      <trkpt lat="48.53299" lon="1.96911">
        <ele>143</ele>
        <time>2017-11-19T13:23:49Z</time>
      </trkpt>
      <trkpt lat="48.53306" lon="1.96914">
        <ele>143</ele>
        <time>2017-11-19T13:23:55Z</time>
      </trkpt>
      <trkpt lat="48.53315" lon="1.96909">
        <ele>143</ele>
        <time>2017-11-19T13:24:03Z</time>
      </trkpt>
      <trkpt lat="48.53325" lon="1.96902">
        <ele>143</ele>
        <time>2017-11-19T13:24:18Z</time>
      </trkpt>
      <trkpt lat="48.53329" lon="1.96897">
        <ele>143</ele>
        <time>2017-11-19T13:24:26Z</time>
      </trkpt>
      <trkpt lat="48.53336" lon="1.96892">
        <ele>144</ele>
        <time>2017-11-19T13:24:31Z</time>
      </trkpt>
      <trkpt lat="48.53338" lon="1.96865">
        <ele>144</ele>
        <time>2017-11-19T13:24:47Z</time>
      </trkpt>
      <trkpt lat="48.53337" lon="1.96858">
        <ele>144</ele>
        <time>2017-11-19T13:24:51Z</time>
      </trkpt>
      <trkpt lat="48.53332" lon="1.9684">
        <ele>144</ele>
        <time>2017-11-19T13:25:05Z</time>
      </trkpt>
      <trkpt lat="48.53318" lon="1.96819">
        <ele>144</ele>
        <time>2017-11-19T13:25:20Z</time>
      </trkpt>
      <trkpt lat="48.5331" lon="1.96815">
        <ele>143</ele>
        <time>2017-11-19T13:25:27Z</time>
      </trkpt>
      <trkpt lat="48.53306" lon="1.9681">
        <ele>143</ele>
        <time>2017-11-19T13:25:31Z</time>
      </trkpt>
      <trkpt lat="48.53305" lon="1.96803">
        <ele>143</ele>
        <time>2017-11-19T13:25:35Z</time>
      </trkpt>
      <trkpt lat="48.53306" lon="1.96796">
        <ele>142</ele>
        <time>2017-11-19T13:25:38Z</time>
      </trkpt>
      <trkpt lat="48.53304" lon="1.9679">
        <ele>141</ele>
        <time>2017-11-19T13:25:42Z</time>
      </trkpt>
      <trkpt lat="48.53301" lon="1.96784">
        <ele>140</ele>
        <time>2017-11-19T13:25:46Z</time>
      </trkpt>
      <trkpt lat="48.53299" lon="1.96777">
        <ele>140</ele>
        <time>2017-11-19T13:25:50Z</time>
      </trkpt>
      <trkpt lat="48.53299" lon="1.96761">
        <ele>138</ele>
        <time>2017-11-19T13:25:59Z</time>
      </trkpt>
      <trkpt lat="48.53304" lon="1.96748">
        <ele>138</ele>
        <time>2017-11-19T13:26:08Z</time>
      </trkpt>
      <trkpt lat="48.53307" lon="1.96743">
        <ele>138</ele>
        <time>2017-11-19T13:26:11Z</time>
      </trkpt>
      <trkpt lat="48.53313" lon="1.96736">
        <ele>138</ele>
        <time>2017-11-19T13:26:15Z</time>
      </trkpt>
      <trkpt lat="48.53316" lon="1.96728">
        <ele>138</ele>
        <time>2017-11-19T13:26:19Z</time>
      </trkpt>
      <trkpt lat="48.5333" lon="1.9671">
        <ele>139</ele>
        <time>2017-11-19T13:26:29Z</time>
      </trkpt>
      <trkpt lat="48.53332" lon="1.96703">
        <ele>139</ele>
        <time>2017-11-19T13:26:33Z</time>
      </trkpt>
      <trkpt lat="48.53333" lon="1.96696">
        <ele>139</ele>
        <time>2017-11-19T13:26:37Z</time>
      </trkpt>
      <trkpt lat="48.53337" lon="1.96688">
        <ele>139</ele>
        <time>2017-11-19T13:26:40Z</time>
      </trkpt>
      <trkpt lat="48.53342" lon="1.96682">
        <ele>139</ele>
        <time>2017-11-19T13:26:47Z</time>
      </trkpt>
      <trkpt lat="48.53344" lon="1.96674">
        <ele>139</ele>
        <time>2017-11-19T13:26:52Z</time>
      </trkpt>
      <trkpt lat="48.53345" lon="1.96666">
        <ele>139</ele>
        <time>2017-11-19T13:26:56Z</time>
      </trkpt>
      <trkpt lat="48.53347" lon="1.9666">
        <ele>138</ele>
        <time>2017-11-19T13:26:59Z</time>
      </trkpt>
      <trkpt lat="48.53353" lon="1.96649">
        <ele>138</ele>
        <time>2017-11-19T13:27:07Z</time>
      </trkpt>
      <trkpt lat="48.53355" lon="1.96641">
        <ele>138</ele>
        <time>2017-11-19T13:27:12Z</time>
      </trkpt>
      <trkpt lat="48.5336" lon="1.96618">
        <ele>139</ele>
        <time>2017-11-19T13:27:26Z</time>
      </trkpt>
      <trkpt lat="48.53377" lon="1.96571">
        <ele>142</ele>
        <time>2017-11-19T13:27:57Z</time>
      </trkpt>
      <trkpt lat="48.5338" lon="1.9656">
        <ele>142</ele>
        <time>2017-11-19T13:28:05Z</time>
      </trkpt>
      <trkpt lat="48.53387" lon="1.96543">
        <ele>142</ele>
        <time>2017-11-19T13:28:12Z</time>
      </trkpt>
      <trkpt lat="48.5339" lon="1.96529">
        <ele>143</ele>
        <time>2017-11-19T13:28:20Z</time>
      </trkpt>
      <trkpt lat="48.53399" lon="1.96506">
        <ele>143</ele>
        <time>2017-11-19T13:28:34Z</time>
      </trkpt>
      <trkpt lat="48.534" lon="1.96499">
        <ele>143</ele>
        <time>2017-11-19T13:28:39Z</time>
      </trkpt>
      <trkpt lat="48.53401" lon="1.96492">
        <ele>143</ele>
        <time>2017-11-19T13:28:43Z</time>
      </trkpt>
      <trkpt lat="48.53402" lon="1.96483">
        <ele>143</ele>
        <time>2017-11-19T13:28:47Z</time>
      </trkpt>
      <trkpt lat="48.53405" lon="1.96476">
        <ele>143</ele>
        <time>2017-11-19T13:28:52Z</time>
      </trkpt>
      <trkpt lat="48.53406" lon="1.96461">
        <ele>143</ele>
        <time>2017-11-19T13:29:03Z</time>
      </trkpt>
      <trkpt lat="48.53411" lon="1.96444">
        <ele>143</ele>
        <time>2017-11-19T13:29:11Z</time>
      </trkpt>
      <trkpt lat="48.53419" lon="1.96433">
        <ele>143</ele>
        <time>2017-11-19T13:29:16Z</time>
      </trkpt>
      <trkpt lat="48.53446" lon="1.9638">
        <ele>144</ele>
        <time>2017-11-19T13:29:49Z</time>
      </trkpt>
      <trkpt lat="48.53451" lon="1.96375">
        <ele>144</ele>
        <time>2017-11-19T13:29:53Z</time>
      </trkpt>
      <trkpt lat="48.53454" lon="1.96353">
        <ele>143</ele>
        <time>2017-11-19T13:30:04Z</time>
      </trkpt>
      <trkpt lat="48.5346" lon="1.96338">
        <ele>142</ele>
        <time>2017-11-19T13:30:13Z</time>
      </trkpt>
      <trkpt lat="48.53463" lon="1.96332">
        <ele>142</ele>
        <time>2017-11-19T13:30:16Z</time>
      </trkpt>
      <trkpt lat="48.53466" lon="1.96325">
        <ele>142</ele>
        <time>2017-11-19T13:30:20Z</time>
      </trkpt>
      <trkpt lat="48.53469" lon="1.9632">
        <ele>141</ele>
        <time>2017-11-19T13:30:24Z</time>
      </trkpt>
      <trkpt lat="48.53481" lon="1.96294">
        <ele>139</ele>
        <time>2017-11-19T13:30:37Z</time>
      </trkpt>
      <trkpt lat="48.53484" lon="1.96289">
        <ele>138</ele>
        <time>2017-11-19T13:30:41Z</time>
      </trkpt>
      <trkpt lat="48.53487" lon="1.96283">
        <ele>138</ele>
        <time>2017-11-19T13:30:44Z</time>
      </trkpt>
      <trkpt lat="48.53488" lon="1.96275">
        <ele>138</ele>
        <time>2017-11-19T13:30:48Z</time>
      </trkpt>
      <trkpt lat="48.53489" lon="1.96268">
        <ele>138</ele>
        <time>2017-11-19T13:30:51Z</time>
      </trkpt>
      <trkpt lat="48.53495" lon="1.96255">
        <ele>138</ele>
        <time>2017-11-19T13:30:59Z</time>
      </trkpt>
      <trkpt lat="48.53499" lon="1.96233">
        <ele>138</ele>
        <time>2017-11-19T13:31:11Z</time>
      </trkpt>
      <trkpt lat="48.53498" lon="1.96226">
        <ele>138</ele>
        <time>2017-11-19T13:31:16Z</time>
      </trkpt>
      <trkpt lat="48.53498" lon="1.96219">
        <ele>138</ele>
        <time>2017-11-19T13:31:20Z</time>
      </trkpt>
      <trkpt lat="48.53501" lon="1.96213">
        <ele>138</ele>
        <time>2017-11-19T13:31:24Z</time>
      </trkpt>
      <trkpt lat="48.53506" lon="1.96211">
        <ele>137</ele>
        <time>2017-11-19T13:31:27Z</time>
      </trkpt>
      <trkpt lat="48.53509" lon="1.96205">
        <ele>137</ele>
        <time>2017-11-19T13:31:31Z</time>
      </trkpt>
      <trkpt lat="48.53514" lon="1.96191">
        <ele>138</ele>
        <time>2017-11-19T13:31:40Z</time>
      </trkpt>
      <trkpt lat="48.53514" lon="1.96175">
        <ele>139</ele>
        <time>2017-11-19T13:31:48Z</time>
      </trkpt>
      <trkpt lat="48.53512" lon="1.96161">
        <ele>140</ele>
        <time>2017-11-19T13:31:55Z</time>
      </trkpt>
      <trkpt lat="48.53511" lon="1.96121">
        <ele>140</ele>
        <time>2017-11-19T13:32:15Z</time>
      </trkpt>
      <trkpt lat="48.53509" lon="1.96114">
        <ele>139</ele>
        <time>2017-11-19T13:32:19Z</time>
      </trkpt>
      <trkpt lat="48.53508" lon="1.96107">
        <ele>139</ele>
        <time>2017-11-19T13:32:23Z</time>
      </trkpt>
      <trkpt lat="48.53506" lon="1.96092">
        <ele>138</ele>
        <time>2017-11-19T13:32:29Z</time>
      </trkpt>
      <trkpt lat="48.53507" lon="1.96085">
        <ele>138</ele>
        <time>2017-11-19T13:32:33Z</time>
      </trkpt>
      <trkpt lat="48.53516" lon="1.96068">
        <ele>138</ele>
        <time>2017-11-19T13:32:43Z</time>
      </trkpt>
      <trkpt lat="48.53531" lon="1.96047">
        <ele>138</ele>
        <time>2017-11-19T13:33:01Z</time>
      </trkpt>
      <trkpt lat="48.53535" lon="1.9604">
        <ele>138</ele>
        <time>2017-11-19T13:33:05Z</time>
      </trkpt>
      <trkpt lat="48.53545" lon="1.96023">
        <ele>139</ele>
        <time>2017-11-19T13:33:21Z</time>
      </trkpt>
      <trkpt lat="48.5355" lon="1.96022">
        <ele>139</ele>
        <time>2017-11-19T13:33:24Z</time>
      </trkpt>
      <trkpt lat="48.53553" lon="1.96017">
        <ele>139</ele>
        <time>2017-11-19T13:33:28Z</time>
      </trkpt>
      <trkpt lat="48.53555" lon="1.96009">
        <ele>139</ele>
        <time>2017-11-19T13:33:31Z</time>
      </trkpt>
      <trkpt lat="48.53558" lon="1.96003">
        <ele>139</ele>
        <time>2017-11-19T13:33:34Z</time>
      </trkpt>
      <trkpt lat="48.53562" lon="1.96006">
        <ele>139</ele>
        <time>2017-11-19T13:33:37Z</time>
      </trkpt>
      <trkpt lat="48.53571" lon="1.96007">
        <ele>139</ele>
        <time>2017-11-19T13:33:42Z</time>
      </trkpt>
      <trkpt lat="48.53576" lon="1.95995">
        <ele>138</ele>
        <time>2017-11-19T13:33:48Z</time>
      </trkpt>
      <trkpt lat="48.53585" lon="1.95962">
        <ele>140</ele>
        <time>2017-11-19T13:34:06Z</time>
      </trkpt>
      <trkpt lat="48.53596" lon="1.95944">
        <ele>141</ele>
        <time>2017-11-19T13:34:18Z</time>
      </trkpt>
      <trkpt lat="48.53599" lon="1.95938">
        <ele>142</ele>
        <time>2017-11-19T13:34:22Z</time>
      </trkpt>
      <trkpt lat="48.53602" lon="1.95932">
        <ele>142</ele>
        <time>2017-11-19T13:34:25Z</time>
      </trkpt>
      <trkpt lat="48.53604" lon="1.95926">
        <ele>143</ele>
        <time>2017-11-19T13:34:29Z</time>
      </trkpt>
      <trkpt lat="48.53605" lon="1.95919">
        <ele>143</ele>
        <time>2017-11-19T13:34:36Z</time>
      </trkpt>
      <trkpt lat="48.53605" lon="1.95912">
        <ele>144</ele>
        <time>2017-11-19T13:34:40Z</time>
      </trkpt>
      <trkpt lat="48.53614" lon="1.95895">
        <ele>144</ele>
        <time>2017-11-19T13:34:49Z</time>
      </trkpt>
      <trkpt lat="48.53619" lon="1.95889">
        <ele>144</ele>
        <time>2017-11-19T13:34:55Z</time>
      </trkpt>
      <trkpt lat="48.53622" lon="1.95882">
        <ele>144</ele>
        <time>2017-11-19T13:34:59Z</time>
      </trkpt>
      <trkpt lat="48.5362" lon="1.95874">
        <ele>143</ele>
        <time>2017-11-19T13:35:05Z</time>
      </trkpt>
      <trkpt lat="48.53622" lon="1.95867">
        <ele>143</ele>
        <time>2017-11-19T13:35:09Z</time>
      </trkpt>
      <trkpt lat="48.53625" lon="1.95855">
        <ele>143</ele>
        <time>2017-11-19T13:35:15Z</time>
      </trkpt>
      <trkpt lat="48.53632" lon="1.95846">
        <ele>142</ele>
        <time>2017-11-19T13:35:22Z</time>
      </trkpt>
      <trkpt lat="48.53634" lon="1.95838">
        <ele>141</ele>
        <time>2017-11-19T13:35:27Z</time>
      </trkpt>
      <trkpt lat="48.53634" lon="1.95814">
        <ele>141</ele>
        <time>2017-11-19T13:35:40Z</time>
      </trkpt>
      <trkpt lat="48.53632" lon="1.95806">
        <ele>141</ele>
        <time>2017-11-19T13:35:41Z</time>
      </trkpt>
      <trkpt lat="48.53634" lon="1.95799">
        <ele>140</ele>
        <time>2017-11-19T13:35:44Z</time>
      </trkpt>
      <trkpt lat="48.53637" lon="1.95793">
        <ele>140</ele>
        <time>2017-11-19T13:35:48Z</time>
      </trkpt>
      <trkpt lat="48.53638" lon="1.95786">
        <ele>140</ele>
        <time>2017-11-19T13:35:51Z</time>
      </trkpt>
      <trkpt lat="48.53643" lon="1.95781">
        <ele>140</ele>
        <time>2017-11-19T13:35:55Z</time>
      </trkpt>
      <trkpt lat="48.53648" lon="1.95763">
        <ele>140</ele>
        <time>2017-11-19T13:36:05Z</time>
      </trkpt>
      <trkpt lat="48.5365" lon="1.95744">
        <ele>140</ele>
        <time>2017-11-19T13:36:13Z</time>
      </trkpt>
      <trkpt lat="48.53654" lon="1.95737">
        <ele>140</ele>
        <time>2017-11-19T13:36:17Z</time>
      </trkpt>
      <trkpt lat="48.53659" lon="1.95733">
        <ele>140</ele>
        <time>2017-11-19T13:36:21Z</time>
      </trkpt>
      <trkpt lat="48.53663" lon="1.95729">
        <ele>140</ele>
        <time>2017-11-19T13:36:26Z</time>
      </trkpt>
      <trkpt lat="48.53688" lon="1.95724">
        <ele>140</ele>
        <time>2017-11-19T13:36:46Z</time>
      </trkpt>
      <trkpt lat="48.53703" lon="1.95715">
        <ele>140</ele>
        <time>2017-11-19T13:36:57Z</time>
      </trkpt>
      <trkpt lat="48.53717" lon="1.95689">
        <ele>140</ele>
        <time>2017-11-19T13:37:16Z</time>
      </trkpt>
      <trkpt lat="48.53719" lon="1.95688">
        <ele>140</ele>
        <time>2017-11-19T13:37:26Z</time>
      </trkpt>
      <trkpt lat="48.53722" lon="1.95681">
        <ele>138</ele>
        <time>2017-11-19T13:39:34Z</time>
      </trkpt>
      <trkpt lat="48.5373" lon="1.95676">
        <ele>140</ele>
        <time>2017-11-19T13:43:09Z</time>
      </trkpt>
      <trkpt lat="48.53732" lon="1.95668">
        <ele>140</ele>
        <time>2017-11-19T13:43:46Z</time>
      </trkpt>
      <trkpt lat="48.5373" lon="1.95642">
        <ele>140</ele>
        <time>2017-11-19T13:44:02Z</time>
      </trkpt>
      <trkpt lat="48.53732" lon="1.95636">
        <ele>140</ele>
        <time>2017-11-19T13:44:05Z</time>
      </trkpt>
      <trkpt lat="48.53733" lon="1.95628">
        <ele>140</ele>
        <time>2017-11-19T13:44:10Z</time>
      </trkpt>
      <trkpt lat="48.5373" lon="1.95595">
        <ele>140</ele>
        <time>2017-11-19T13:44:28Z</time>
      </trkpt>
      <trkpt lat="48.53736" lon="1.95549">
        <ele>141</ele>
        <time>2017-11-19T13:44:58Z</time>
      </trkpt>
      <trkpt lat="48.53738" lon="1.95542">
        <ele>142</ele>
        <time>2017-11-19T13:45:02Z</time>
      </trkpt>
      <trkpt lat="48.53741" lon="1.95536">
        <ele>142</ele>
        <time>2017-11-19T13:45:06Z</time>
      </trkpt>
      <trkpt lat="48.53746" lon="1.95509">
        <ele>143</ele>
        <time>2017-11-19T13:45:22Z</time>
      </trkpt>
      <trkpt lat="48.53752" lon="1.95496">
        <ele>143</ele>
        <time>2017-11-19T13:45:30Z</time>
      </trkpt>
      <trkpt lat="48.53755" lon="1.95482">
        <ele>143</ele>
        <time>2017-11-19T13:45:37Z</time>
      </trkpt>
      <trkpt lat="48.5376" lon="1.95476">
        <ele>142</ele>
        <time>2017-11-19T13:45:41Z</time>
      </trkpt>
      <trkpt lat="48.53766" lon="1.95464">
        <ele>142</ele>
        <time>2017-11-19T13:45:50Z</time>
      </trkpt>
      <trkpt lat="48.53771" lon="1.95461">
        <ele>141</ele>
        <time>2017-11-19T13:45:53Z</time>
      </trkpt>
      <trkpt lat="48.53778" lon="1.95451">
        <ele>140</ele>
        <time>2017-11-19T13:46:01Z</time>
      </trkpt>
      <trkpt lat="48.53783" lon="1.95449">
        <ele>140</ele>
        <time>2017-11-19T13:46:05Z</time>
      </trkpt>
      <trkpt lat="48.53787" lon="1.95446">
        <ele>139</ele>
        <time>2017-11-19T13:46:08Z</time>
      </trkpt>
      <trkpt lat="48.53793" lon="1.95445">
        <ele>139</ele>
        <time>2017-11-19T13:46:11Z</time>
      </trkpt>
      <trkpt lat="48.538" lon="1.95442">
        <ele>139</ele>
        <time>2017-11-19T13:46:16Z</time>
      </trkpt>
      <trkpt lat="48.53827" lon="1.95432">
        <ele>139</ele>
        <time>2017-11-19T13:46:36Z</time>
      </trkpt>
      <trkpt lat="48.53849" lon="1.95413">
        <ele>138</ele>
        <time>2017-11-19T13:46:56Z</time>
      </trkpt>
      <trkpt lat="48.53854" lon="1.95412">
        <ele>138</ele>
        <time>2017-11-19T13:46:59Z</time>
      </trkpt>
      <trkpt lat="48.53861" lon="1.95409">
        <ele>137</ele>
        <time>2017-11-19T13:47:05Z</time>
      </trkpt>
      <trkpt lat="48.53862" lon="1.95399">
        <ele>137</ele>
        <time>2017-11-19T13:47:09Z</time>
      </trkpt>
      <trkpt lat="48.53852" lon="1.95366">
        <ele>135</ele>
        <time>2017-11-19T13:47:24Z</time>
      </trkpt>
      <trkpt lat="48.53852" lon="1.95357">
        <ele>135</ele>
        <time>2017-11-19T13:47:29Z</time>
      </trkpt>
      <trkpt lat="48.53848" lon="1.9535">
        <ele>134</ele>
        <time>2017-11-19T13:47:34Z</time>
      </trkpt>
      <trkpt lat="48.53837" lon="1.95339">
        <ele>133</ele>
        <time>2017-11-19T13:47:43Z</time>
      </trkpt>
      <trkpt lat="48.53835" lon="1.95332">
        <ele>133</ele>
        <time>2017-11-19T13:47:47Z</time>
      </trkpt>
      <trkpt lat="48.53834" lon="1.95324">
        <ele>133</ele>
        <time>2017-11-19T13:47:54Z</time>
      </trkpt>
      <trkpt lat="48.53839" lon="1.95308">
        <ele>131</ele>
        <time>2017-11-19T13:48:04Z</time>
      </trkpt>
      <trkpt lat="48.5384" lon="1.95299">
        <ele>131</ele>
        <time>2017-11-19T13:48:06Z</time>
      </trkpt>
      <trkpt lat="48.53844" lon="1.95286">
        <ele>130</ele>
        <time>2017-11-19T13:48:16Z</time>
      </trkpt>
      <trkpt lat="48.53848" lon="1.95283">
        <ele>129</ele>
        <time>2017-11-19T13:48:19Z</time>
      </trkpt>
      <trkpt lat="48.5385" lon="1.95276">
        <ele>129</ele>
        <time>2017-11-19T13:48:21Z</time>
      </trkpt>
      <trkpt lat="48.5385" lon="1.95263">
        <ele>128</ele>
        <time>2017-11-19T13:48:27Z</time>
      </trkpt>
      <trkpt lat="48.53854" lon="1.95258">
        <ele>128</ele>
        <time>2017-11-19T13:48:31Z</time>
      </trkpt>
      <trkpt lat="48.53857" lon="1.95252">
        <ele>127</ele>
        <time>2017-11-19T13:48:35Z</time>
      </trkpt>
      <trkpt lat="48.53859" lon="1.95235">
        <ele>126</ele>
        <time>2017-11-19T13:48:44Z</time>
      </trkpt>
      <trkpt lat="48.5386" lon="1.95224">
        <ele>125</ele>
        <time>2017-11-19T13:48:49Z</time>
      </trkpt>
      <trkpt lat="48.53864" lon="1.95221">
        <ele>124</ele>
        <time>2017-11-19T13:48:54Z</time>
      </trkpt>
      <trkpt lat="48.53878" lon="1.95197">
        <ele>122</ele>
        <time>2017-11-19T13:49:09Z</time>
      </trkpt>
      <trkpt lat="48.53894" lon="1.95182">
        <ele>120</ele>
        <time>2017-11-19T13:49:26Z</time>
      </trkpt>
      <trkpt lat="48.5391" lon="1.95205">
        <ele>122</ele>
        <time>2017-11-19T13:49:44Z</time>
      </trkpt>
      <trkpt lat="48.53913" lon="1.95211">
        <ele>123</ele>
        <time>2017-11-19T13:49:48Z</time>
      </trkpt>
      <trkpt lat="48.53917" lon="1.95215">
        <ele>123</ele>
        <time>2017-11-19T13:49:52Z</time>
      </trkpt>
      <trkpt lat="48.53921" lon="1.95218">
        <ele>124</ele>
        <time>2017-11-19T13:49:57Z</time>
      </trkpt>
      <trkpt lat="48.53933" lon="1.95226">
        <ele>124</ele>
        <time>2017-11-19T13:50:12Z</time>
      </trkpt>
      <trkpt lat="48.5395" lon="1.95243">
        <ele>124</ele>
        <time>2017-11-19T13:50:24Z</time>
      </trkpt>
      <trkpt lat="48.53968" lon="1.9524">
        <ele>125</ele>
        <time>2017-11-19T13:50:37Z</time>
      </trkpt>
      <trkpt lat="48.53977" lon="1.95245">
        <ele>125</ele>
        <time>2017-11-19T13:50:47Z</time>
      </trkpt>
      <trkpt lat="48.53986" lon="1.9524">
        <ele>125</ele>
        <time>2017-11-19T13:50:54Z</time>
      </trkpt>
      <trkpt lat="48.53991" lon="1.95229">
        <ele>124</ele>
        <time>2017-11-19T13:51:02Z</time>
      </trkpt>
      <trkpt lat="48.53993" lon="1.95214">
        <ele>124</ele>
        <time>2017-11-19T13:51:12Z</time>
      </trkpt>
      <trkpt lat="48.54003" lon="1.95175">
        <ele>125</ele>
        <time>2017-11-19T13:51:32Z</time>
      </trkpt>
      <trkpt lat="48.54011" lon="1.95164">
        <ele>125</ele>
        <time>2017-11-19T13:51:38Z</time>
      </trkpt>
      <trkpt lat="48.54013" lon="1.95158">
        <ele>125</ele>
        <time>2017-11-19T13:51:41Z</time>
      </trkpt>
      <trkpt lat="48.54026" lon="1.95146">
        <ele>125</ele>
        <time>2017-11-19T13:51:52Z</time>
      </trkpt>
      <trkpt lat="48.54031" lon="1.9514">
        <ele>125</ele>
        <time>2017-11-19T13:51:55Z</time>
      </trkpt>
      <trkpt lat="48.54038" lon="1.95139">
        <ele>125</ele>
        <time>2017-11-19T13:52:02Z</time>
      </trkpt>
      <trkpt lat="48.5406" lon="1.95116">
        <ele>126</ele>
        <time>2017-11-19T13:52:20Z</time>
      </trkpt>
      <trkpt lat="48.54071" lon="1.95121">
        <ele>126</ele>
        <time>2017-11-19T13:52:26Z</time>
      </trkpt>
      <trkpt lat="48.54072" lon="1.95107">
        <ele>127</ele>
        <time>2017-11-19T13:52:31Z</time>
      </trkpt>
      <trkpt lat="48.54073" lon="1.951">
        <ele>127</ele>
        <time>2017-11-19T13:52:34Z</time>
      </trkpt>
      <trkpt lat="48.54066" lon="1.95081">
        <ele>127</ele>
        <time>2017-11-19T13:52:43Z</time>
      </trkpt>
      <trkpt lat="48.54067" lon="1.95072">
        <ele>127</ele>
        <time>2017-11-19T13:52:49Z</time>
      </trkpt>
      <trkpt lat="48.54066" lon="1.95054">
        <ele>128</ele>
        <time>2017-11-19T13:52:57Z</time>
      </trkpt>
      <trkpt lat="48.54067" lon="1.95047">
        <ele>128</ele>
        <time>2017-11-19T13:53:00Z</time>
      </trkpt>
      <trkpt lat="48.54063" lon="1.95032">
        <ele>128</ele>
        <time>2017-11-19T13:53:07Z</time>
      </trkpt>
      <trkpt lat="48.54063" lon="1.95025">
        <ele>128</ele>
        <time>2017-11-19T13:53:11Z</time>
      </trkpt>
      <trkpt lat="48.54061" lon="1.95017">
        <ele>129</ele>
        <time>2017-11-19T13:53:18Z</time>
      </trkpt>
      <trkpt lat="48.54062" lon="1.95003">
        <ele>129</ele>
        <time>2017-11-19T13:53:27Z</time>
      </trkpt>
      <trkpt lat="48.54064" lon="1.94997">
        <ele>129</ele>
        <time>2017-11-19T13:53:30Z</time>
      </trkpt>
      <trkpt lat="48.54068" lon="1.94966">
        <ele>130</ele>
        <time>2017-11-19T13:53:45Z</time>
      </trkpt>
      <trkpt lat="48.5407" lon="1.94959">
        <ele>130</ele>
        <time>2017-11-19T13:53:49Z</time>
      </trkpt>
      <trkpt lat="48.54072" lon="1.94948">
        <ele>130</ele>
        <time>2017-11-19T13:54:48Z</time>
      </trkpt>
      <trkpt lat="48.54073" lon="1.94941">
        <ele>130</ele>
        <time>2017-11-19T13:54:51Z</time>
      </trkpt>
      <trkpt lat="48.54077" lon="1.94937">
        <ele>130</ele>
        <time>2017-11-19T13:55:14Z</time>
      </trkpt>
      <trkpt lat="48.54086" lon="1.94932">
        <ele>130</ele>
        <time>2017-11-19T13:55:24Z</time>
      </trkpt>
      <trkpt lat="48.54113" lon="1.94935">
        <ele>130</ele>
        <time>2017-11-19T13:55:51Z</time>
      </trkpt>
      <trkpt lat="48.54123" lon="1.94932">
        <ele>131</ele>
        <time>2017-11-19T13:56:02Z</time>
      </trkpt>
      <trkpt lat="48.54143" lon="1.94934">
        <ele>131</ele>
        <time>2017-11-19T13:56:16Z</time>
      </trkpt>
      <trkpt lat="48.54153" lon="1.94941">
        <ele>131</ele>
        <time>2017-11-19T13:56:24Z</time>
      </trkpt>
      <trkpt lat="48.54163" lon="1.94939">
        <ele>131</ele>
        <time>2017-11-19T13:56:31Z</time>
      </trkpt>
      <trkpt lat="48.54185" lon="1.94944">
        <ele>131</ele>
        <time>2017-11-19T13:56:46Z</time>
      </trkpt>
      <trkpt lat="48.54191" lon="1.94943">
        <ele>131</ele>
        <time>2017-11-19T13:56:50Z</time>
      </trkpt>
      <trkpt lat="48.54195" lon="1.94945">
        <ele>131</ele>
        <time>2017-11-19T13:56:53Z</time>
      </trkpt>
      <trkpt lat="48.54225" lon="1.94945">
        <ele>131</ele>
        <time>2017-11-19T13:57:19Z</time>
      </trkpt>
      <trkpt lat="48.54251" lon="1.94952">
        <ele>132</ele>
        <time>2017-11-19T13:57:41Z</time>
      </trkpt>
      <trkpt lat="48.5428" lon="1.94948">
        <ele>133</ele>
        <time>2017-11-19T13:58:04Z</time>
      </trkpt>
      <trkpt lat="48.54293" lon="1.9494">
        <ele>133</ele>
        <time>2017-11-19T13:58:15Z</time>
      </trkpt>
      <trkpt lat="48.54298" lon="1.94938">
        <ele>133</ele>
        <time>2017-11-19T13:58:19Z</time>
      </trkpt>
      <trkpt lat="48.54303" lon="1.94941">
        <ele>134</ele>
        <time>2017-11-19T13:58:23Z</time>
      </trkpt>
      <trkpt lat="48.54306" lon="1.94947">
        <ele>134</ele>
        <time>2017-11-19T13:58:27Z</time>
      </trkpt>
      <trkpt lat="48.54313" lon="1.9496">
        <ele>134</ele>
        <time>2017-11-19T13:58:35Z</time>
      </trkpt>
      <trkpt lat="48.54317" lon="1.94962">
        <ele>135</ele>
        <time>2017-11-19T13:58:40Z</time>
      </trkpt>
      <trkpt lat="48.54317" lon="1.9497">
        <ele>135</ele>
        <time>2017-11-19T13:58:45Z</time>
      </trkpt>
      <trkpt lat="48.54321" lon="1.94985">
        <ele>137</ele>
        <time>2017-11-19T13:58:54Z</time>
      </trkpt>
      <trkpt lat="48.54321" lon="1.94993">
        <ele>138</ele>
        <time>2017-11-19T13:58:59Z</time>
      </trkpt>
      <trkpt lat="48.54332" lon="1.95035">
        <ele>145</ele>
        <time>2017-11-19T13:59:30Z</time>
      </trkpt>
      <trkpt lat="48.54332" lon="1.95043">
        <ele>146</ele>
        <time>2017-11-19T13:59:37Z</time>
      </trkpt>
      <trkpt lat="48.54334" lon="1.9505">
        <ele>148</ele>
        <time>2017-11-19T13:59:42Z</time>
      </trkpt>
      <trkpt lat="48.54334" lon="1.95058">
        <ele>149</ele>
        <time>2017-11-19T13:59:48Z</time>
      </trkpt>
      <trkpt lat="48.54335" lon="1.95065">
        <ele>151</ele>
        <time>2017-11-19T13:59:55Z</time>
      </trkpt>
      <trkpt lat="48.54335" lon="1.95081">
        <ele>153</ele>
        <time>2017-11-19T14:00:06Z</time>
      </trkpt>
      <trkpt lat="48.54341" lon="1.95105">
        <ele>155</ele>
        <time>2017-11-19T14:00:20Z</time>
      </trkpt>
      <trkpt lat="48.54347" lon="1.9512">
        <ele>155</ele>
        <time>2017-11-19T14:00:28Z</time>
      </trkpt>
      <trkpt lat="48.54349" lon="1.95127">
        <ele>155</ele>
        <time>2017-11-19T14:00:31Z</time>
      </trkpt>
      <trkpt lat="48.54349" lon="1.95135">
        <ele>156</ele>
        <time>2017-11-19T14:00:35Z</time>
      </trkpt>
      <trkpt lat="48.54353" lon="1.95141">
        <ele>156</ele>
        <time>2017-11-19T14:00:39Z</time>
      </trkpt>
      <trkpt lat="48.54359" lon="1.95189">
        <ele>156</ele>
        <time>2017-11-19T14:01:04Z</time>
      </trkpt>
      <trkpt lat="48.54365" lon="1.95217">
        <ele>157</ele>
        <time>2017-11-19T14:01:18Z</time>
      </trkpt>
      <trkpt lat="48.54365" lon="1.95225">
        <ele>157</ele>
        <time>2017-11-19T14:01:22Z</time>
      </trkpt>
      <trkpt lat="48.54365" lon="1.95233">
        <ele>157</ele>
        <time>2017-11-19T14:01:28Z</time>
      </trkpt>
      <trkpt lat="48.54368" lon="1.95246">
        <ele>157</ele>
        <time>2017-11-19T14:01:34Z</time>
      </trkpt>
      <trkpt lat="48.54374" lon="1.95262">
        <ele>157</ele>
        <time>2017-11-19T14:01:41Z</time>
      </trkpt>
      <trkpt lat="48.54374" lon="1.9527">
        <ele>157</ele>
        <time>2017-11-19T14:01:44Z</time>
      </trkpt>
      <trkpt lat="48.54376" lon="1.95285">
        <ele>157</ele>
        <time>2017-11-19T14:01:51Z</time>
      </trkpt>
      <trkpt lat="48.54378" lon="1.95293">
        <ele>157</ele>
        <time>2017-11-19T14:01:55Z</time>
      </trkpt>
      <trkpt lat="48.54385" lon="1.95329">
        <ele>157</ele>
        <time>2017-11-19T14:02:15Z</time>
      </trkpt>
      <trkpt lat="48.54388" lon="1.95344">
        <ele>157</ele>
        <time>2017-11-19T14:02:22Z</time>
      </trkpt>
      <trkpt lat="48.54392" lon="1.95381">
        <ele>157</ele>
        <time>2017-11-19T14:02:42Z</time>
      </trkpt>
      <trkpt lat="48.5441" lon="1.95444">
        <ele>157</ele>
        <time>2017-11-19T14:03:14Z</time>
      </trkpt>
      <trkpt lat="48.54417" lon="1.95489">
        <ele>157</ele>
        <time>2017-11-19T14:03:41Z</time>
      </trkpt>
      <trkpt lat="48.54417" lon="1.95496">
        <ele>157</ele>
        <time>2017-11-19T14:03:46Z</time>
      </trkpt>
      <trkpt lat="48.5442" lon="1.95502">
        <ele>157</ele>
        <time>2017-11-19T14:03:49Z</time>
      </trkpt>
      <trkpt lat="48.5442" lon="1.95517">
        <ele>157</ele>
        <time>2017-11-19T14:03:57Z</time>
      </trkpt>
      <trkpt lat="48.54428" lon="1.95552">
        <ele>157</ele>
        <time>2017-11-19T14:04:13Z</time>
      </trkpt>
      <trkpt lat="48.54428" lon="1.95568">
        <ele>157</ele>
        <time>2017-11-19T14:04:23Z</time>
      </trkpt>
      <trkpt lat="48.54429" lon="1.95575">
        <ele>157</ele>
        <time>2017-11-19T14:04:27Z</time>
      </trkpt>
      <trkpt lat="48.54433" lon="1.95589">
        <ele>157</ele>
        <time>2017-11-19T14:04:35Z</time>
      </trkpt>
      <trkpt lat="48.54436" lon="1.95629">
        <ele>157</ele>
        <time>2017-11-19T14:04:55Z</time>
      </trkpt>
      <trkpt lat="48.54441" lon="1.9565">
        <ele>157</ele>
        <time>2017-11-19T14:05:08Z</time>
      </trkpt>
      <trkpt lat="48.54444" lon="1.95667">
        <ele>157</ele>
        <time>2017-11-19T14:05:17Z</time>
      </trkpt>
      <trkpt lat="48.54446" lon="1.95674">
        <ele>158</ele>
        <time>2017-11-19T14:05:21Z</time>
      </trkpt>
      <trkpt lat="48.54445" lon="1.95681">
        <ele>158</ele>
        <time>2017-11-19T14:05:27Z</time>
      </trkpt>
      <trkpt lat="48.54446" lon="1.95689">
        <ele>158</ele>
        <time>2017-11-19T14:05:32Z</time>
      </trkpt>
      <trkpt lat="48.54445" lon="1.95697">
        <ele>158</ele>
        <time>2017-11-19T14:05:36Z</time>
      </trkpt>
      <trkpt lat="48.54448" lon="1.95705">
        <ele>158</ele>
        <time>2017-11-19T14:05:40Z</time>
      </trkpt>
      <trkpt lat="48.54447" lon="1.95715">
        <ele>158</ele>
        <time>2017-11-19T14:05:43Z</time>
      </trkpt>
      <trkpt lat="48.54451" lon="1.95729">
        <ele>158</ele>
        <time>2017-11-19T14:05:49Z</time>
      </trkpt>
      <trkpt lat="48.54453" lon="1.95736">
        <ele>158</ele>
        <time>2017-11-19T14:05:52Z</time>
      </trkpt>
      <trkpt lat="48.54457" lon="1.95742">
        <ele>158</ele>
        <time>2017-11-19T14:05:56Z</time>
      </trkpt>
      <trkpt lat="48.54461" lon="1.95758">
        <ele>158</ele>
        <time>2017-11-19T14:06:03Z</time>
      </trkpt>
      <trkpt lat="48.54463" lon="1.95765">
        <ele>158</ele>
        <time>2017-11-19T14:06:07Z</time>
      </trkpt>
      <trkpt lat="48.54462" lon="1.9578">
        <ele>157</ele>
        <time>2017-11-19T14:06:15Z</time>
      </trkpt>
      <trkpt lat="48.54465" lon="1.95796">
        <ele>158</ele>
        <time>2017-11-19T14:06:23Z</time>
      </trkpt>
      <trkpt lat="48.54476" lon="1.95831">
        <ele>158</ele>
        <time>2017-11-19T14:06:41Z</time>
      </trkpt>
      <trkpt lat="48.54479" lon="1.95856">
        <ele>158</ele>
        <time>2017-11-19T14:06:53Z</time>
      </trkpt>
      <trkpt lat="48.54482" lon="1.95861">
        <ele>158</ele>
        <time>2017-11-19T14:06:56Z</time>
      </trkpt>
      <trkpt lat="48.54489" lon="1.95896">
        <ele>158</ele>
        <time>2017-11-19T14:07:15Z</time>
      </trkpt>
      <trkpt lat="48.54487" lon="1.95919">
        <ele>158</ele>
        <time>2017-11-19T14:07:25Z</time>
      </trkpt>
      <trkpt lat="48.54489" lon="1.95933">
        <ele>158</ele>
        <time>2017-11-19T14:07:33Z</time>
      </trkpt>
      <trkpt lat="48.54488" lon="1.9594">
        <ele>158</ele>
        <time>2017-11-19T14:07:37Z</time>
      </trkpt>
      <trkpt lat="48.54489" lon="1.95948">
        <ele>158</ele>
        <time>2017-11-19T14:07:41Z</time>
      </trkpt>
      <trkpt lat="48.54491" lon="1.95955">
        <ele>158</ele>
        <time>2017-11-19T14:07:44Z</time>
      </trkpt>
      <trkpt lat="48.54491" lon="1.95964">
        <ele>158</ele>
        <time>2017-11-19T14:07:49Z</time>
      </trkpt>
      <trkpt lat="48.54511" lon="1.96021">
        <ele>158</ele>
        <time>2017-11-19T14:08:16Z</time>
      </trkpt>
      <trkpt lat="48.54512" lon="1.96028">
        <ele>158</ele>
        <time>2017-11-19T14:08:21Z</time>
      </trkpt>
      <trkpt lat="48.54514" lon="1.96035">
        <ele>158</ele>
        <time>2017-11-19T14:08:26Z</time>
      </trkpt>
      <trkpt lat="48.54514" lon="1.96042">
        <ele>158</ele>
        <time>2017-11-19T14:08:30Z</time>
      </trkpt>
      <trkpt lat="48.54517" lon="1.96048">
        <ele>158</ele>
        <time>2017-11-19T14:08:33Z</time>
      </trkpt>
      <trkpt lat="48.54521" lon="1.96061">
        <ele>158</ele>
        <time>2017-11-19T14:08:40Z</time>
      </trkpt>
      <trkpt lat="48.54524" lon="1.96083">
        <ele>158</ele>
        <time>2017-11-19T14:08:51Z</time>
      </trkpt>
      <trkpt lat="48.54527" lon="1.9609">
        <ele>158</ele>
        <time>2017-11-19T14:08:55Z</time>
      </trkpt>
      <trkpt lat="48.54528" lon="1.96121">
        <ele>158</ele>
        <time>2017-11-19T14:09:13Z</time>
      </trkpt>
      <trkpt lat="48.54526" lon="1.96128">
        <ele>158</ele>
        <time>2017-11-19T14:09:19Z</time>
      </trkpt>
      <trkpt lat="48.54521" lon="1.96132">
        <ele>158</ele>
        <time>2017-11-19T14:11:45Z</time>
      </trkpt>
      <trkpt lat="48.5452" lon="1.96144">
        <ele>158</ele>
        <time>2017-11-19T14:12:06Z</time>
      </trkpt>
      <trkpt lat="48.54516" lon="1.96151">
        <ele>159</ele>
        <time>2017-11-19T14:12:12Z</time>
      </trkpt>
      <trkpt lat="48.54512" lon="1.9617">
        <ele>159</ele>
        <time>2017-11-19T14:12:21Z</time>
      </trkpt>
      <trkpt lat="48.54515" lon="1.96177">
        <ele>160</ele>
        <time>2017-11-19T14:12:25Z</time>
      </trkpt>
      <trkpt lat="48.54513" lon="1.96184">
        <ele>160</ele>
        <time>2017-11-19T14:12:30Z</time>
      </trkpt>
      <trkpt lat="48.54509" lon="1.9619">
        <ele>160</ele>
        <time>2017-11-19T14:12:36Z</time>
      </trkpt>
      <trkpt lat="48.54505" lon="1.96218">
        <ele>160</ele>
        <time>2017-11-19T14:12:51Z</time>
      </trkpt>
      <trkpt lat="48.54502" lon="1.96223">
        <ele>160</ele>
        <time>2017-11-19T14:12:54Z</time>
      </trkpt>
      <trkpt lat="48.54499" lon="1.96229">
        <ele>160</ele>
        <time>2017-11-19T14:13:01Z</time>
      </trkpt>
      <trkpt lat="48.54498" lon="1.96244">
        <ele>160</ele>
        <time>2017-11-19T14:13:09Z</time>
      </trkpt>
      <trkpt lat="48.54498" lon="1.96252">
        <ele>160</ele>
        <time>2017-11-19T14:13:11Z</time>
      </trkpt>
      <trkpt lat="48.54485" lon="1.96291">
        <ele>159</ele>
        <time>2017-11-19T14:13:30Z</time>
      </trkpt>
      <trkpt lat="48.54486" lon="1.96299">
        <ele>159</ele>
        <time>2017-11-19T14:13:36Z</time>
      </trkpt>
      <trkpt lat="48.54478" lon="1.96317">
        <ele>160</ele>
        <time>2017-11-19T14:13:47Z</time>
      </trkpt>
      <trkpt lat="48.54475" lon="1.96338">
        <ele>160</ele>
        <time>2017-11-19T14:13:57Z</time>
      </trkpt>
      <trkpt lat="48.5447" lon="1.96361">
        <ele>160</ele>
        <time>2017-11-19T14:14:11Z</time>
      </trkpt>
      <trkpt lat="48.54464" lon="1.96372">
        <ele>160</ele>
        <time>2017-11-19T14:14:18Z</time>
      </trkpt>
      <trkpt lat="48.54462" lon="1.9638">
        <ele>160</ele>
        <time>2017-11-19T14:14:21Z</time>
      </trkpt>
      <trkpt lat="48.54457" lon="1.96385">
        <ele>160</ele>
        <time>2017-11-19T14:14:25Z</time>
      </trkpt>
      <trkpt lat="48.54455" lon="1.96393">
        <ele>160</ele>
        <time>2017-11-19T14:14:29Z</time>
      </trkpt>
      <trkpt lat="48.5444" lon="1.96418">
        <ele>160</ele>
        <time>2017-11-19T14:14:46Z</time>
      </trkpt>
      <trkpt lat="48.54426" lon="1.96435">
        <ele>160</ele>
        <time>2017-11-19T14:14:55Z</time>
      </trkpt>
      <trkpt lat="48.54424" lon="1.96451">
        <ele>160</ele>
        <time>2017-11-19T14:15:04Z</time>
      </trkpt>
      <trkpt lat="48.54422" lon="1.96458">
        <ele>160</ele>
        <time>2017-11-19T14:15:08Z</time>
      </trkpt>
      <trkpt lat="48.54422" lon="1.96466">
        <ele>160</ele>
        <time>2017-11-19T14:15:12Z</time>
      </trkpt>
      <trkpt lat="48.54414" lon="1.965">
        <ele>161</ele>
        <time>2017-11-19T14:15:32Z</time>
      </trkpt>
      <trkpt lat="48.54415" lon="1.96507">
        <ele>161</ele>
        <time>2017-11-19T14:15:36Z</time>
      </trkpt>
      <trkpt lat="48.54414" lon="1.96516">
        <ele>161</ele>
        <time>2017-11-19T14:15:39Z</time>
      </trkpt>
      <trkpt lat="48.54406" lon="1.96526">
        <ele>161</ele>
        <time>2017-11-19T14:15:45Z</time>
      </trkpt>
      <trkpt lat="48.544" lon="1.96553">
        <ele>161</ele>
        <time>2017-11-19T14:16:00Z</time>
      </trkpt>
      <trkpt lat="48.54397" lon="1.96558">
        <ele>161</ele>
        <time>2017-11-19T14:16:04Z</time>
      </trkpt>
      <trkpt lat="48.54394" lon="1.96567">
        <ele>161</ele>
        <time>2017-11-19T14:16:07Z</time>
      </trkpt>
      <trkpt lat="48.54391" lon="1.96574">
        <ele>160</ele>
        <time>2017-11-19T14:16:11Z</time>
      </trkpt>
      <trkpt lat="48.54389" lon="1.96581">
        <ele>160</ele>
        <time>2017-11-19T14:16:14Z</time>
      </trkpt>
      <trkpt lat="48.54383" lon="1.96589">
        <ele>160</ele>
        <time>2017-11-19T14:16:18Z</time>
      </trkpt>
      <trkpt lat="48.5438" lon="1.96595">
        <ele>160</ele>
        <time>2017-11-19T14:16:22Z</time>
      </trkpt>
      <trkpt lat="48.54378" lon="1.96603">
        <ele>160</ele>
        <time>2017-11-19T14:16:25Z</time>
      </trkpt>
      <trkpt lat="48.54374" lon="1.96607">
        <ele>160</ele>
        <time>2017-11-19T14:16:28Z</time>
      </trkpt>
      <trkpt lat="48.54363" lon="1.96618">
        <ele>160</ele>
        <time>2017-11-19T14:16:36Z</time>
      </trkpt>
      <trkpt lat="48.5436" lon="1.96624">
        <ele>159</ele>
        <time>2017-11-19T14:16:41Z</time>
      </trkpt>
      <trkpt lat="48.54359" lon="1.96653">
        <ele>159</ele>
        <time>2017-11-19T14:16:54Z</time>
      </trkpt>
      <trkpt lat="48.54354" lon="1.96656">
        <ele>159</ele>
        <time>2017-11-19T14:16:58Z</time>
      </trkpt>
      <trkpt lat="48.54353" lon="1.96664">
        <ele>159</ele>
        <time>2017-11-19T14:17:02Z</time>
      </trkpt>
      <trkpt lat="48.54347" lon="1.96678">
        <ele>159</ele>
        <time>2017-11-19T14:17:10Z</time>
      </trkpt>
      <trkpt lat="48.54346" lon="1.96685">
        <ele>158</ele>
        <time>2017-11-19T14:17:16Z</time>
      </trkpt>
      <trkpt lat="48.54347" lon="1.96694">
        <ele>158</ele>
        <time>2017-11-19T14:17:19Z</time>
      </trkpt>
      <trkpt lat="48.54341" lon="1.96701">
        <ele>158</ele>
        <time>2017-11-19T14:17:25Z</time>
      </trkpt>
      <trkpt lat="48.54325" lon="1.96745">
        <ele>159</ele>
        <time>2017-11-19T14:17:49Z</time>
      </trkpt>
      <trkpt lat="48.54318" lon="1.96757">
        <ele>159</ele>
        <time>2017-11-19T14:17:56Z</time>
      </trkpt>
      <trkpt lat="48.54313" lon="1.9678">
        <ele>159</ele>
        <time>2017-11-19T14:18:09Z</time>
      </trkpt>
      <trkpt lat="48.54313" lon="1.96788">
        <ele>159</ele>
        <time>2017-11-19T14:18:13Z</time>
      </trkpt>
      <trkpt lat="48.5431" lon="1.96796">
        <ele>159</ele>
        <time>2017-11-19T14:18:17Z</time>
      </trkpt>
      <trkpt lat="48.54308" lon="1.96819">
        <ele>159</ele>
        <time>2017-11-19T14:18:30Z</time>
      </trkpt>
      <trkpt lat="48.54298" lon="1.96838">
        <ele>159</ele>
        <time>2017-11-19T14:18:42Z</time>
      </trkpt>
      <trkpt lat="48.54294" lon="1.96852">
        <ele>159</ele>
        <time>2017-11-19T14:18:49Z</time>
      </trkpt>
      <trkpt lat="48.54289" lon="1.96858">
        <ele>159</ele>
        <time>2017-11-19T14:18:52Z</time>
      </trkpt>
      <trkpt lat="48.5427" lon="1.96901">
        <ele>159</ele>
        <time>2017-11-19T14:19:15Z</time>
      </trkpt>
      <trkpt lat="48.54267" lon="1.96906">
        <ele>159</ele>
        <time>2017-11-19T14:19:21Z</time>
      </trkpt>
      <trkpt lat="48.54262" lon="1.96908">
        <ele>159</ele>
        <time>2017-11-19T14:19:34Z</time>
      </trkpt>
      <trkpt lat="48.54264" lon="1.96909">
        <ele>157</ele>
        <time>2017-11-19T14:21:02Z</time>
      </trkpt>
      <trkpt lat="48.54268" lon="1.96911">
        <ele>156</ele>
        <time>2017-11-19T14:21:07Z</time>
      </trkpt>
      <trkpt lat="48.54273" lon="1.9691">
        <ele>156</ele>
        <time>2017-11-19T14:21:14Z</time>
      </trkpt>
      <trkpt lat="48.54278" lon="1.96911">
        <ele>156</ele>
        <time>2017-11-19T14:21:19Z</time>
      </trkpt>
      <trkpt lat="48.54283" lon="1.96908">
        <ele>156</ele>
        <time>2017-11-19T14:21:24Z</time>
      </trkpt>
      <trkpt lat="48.54288" lon="1.9691">
        <ele>156</ele>
        <time>2017-11-19T14:21:30Z</time>
      </trkpt>
      <trkpt lat="48.54294" lon="1.96913">
        <ele>156</ele>
        <time>2017-11-19T14:21:35Z</time>
      </trkpt>
      <trkpt lat="48.54299" lon="1.96909">
        <ele>157</ele>
        <time>2017-11-19T14:21:41Z</time>
      </trkpt>
      <trkpt lat="48.54303" lon="1.9691">
        <ele>157</ele>
        <time>2017-11-19T14:21:45Z</time>
      </trkpt>
      <trkpt lat="48.54314" lon="1.96918">
        <ele>157</ele>
        <time>2017-11-19T14:21:54Z</time>
      </trkpt>
      <trkpt lat="48.54319" lon="1.96918">
        <ele>157</ele>
        <time>2017-11-19T14:21:58Z</time>
      </trkpt>
      <trkpt lat="48.54323" lon="1.96916">
        <ele>157</ele>
        <time>2017-11-19T14:22:02Z</time>
      </trkpt>
      <trkpt lat="48.5433" lon="1.96917">
        <ele>158</ele>
        <time>2017-11-19T14:22:09Z</time>
      </trkpt>
      <trkpt lat="48.54335" lon="1.96915">
        <ele>158</ele>
        <time>2017-11-19T14:22:15Z</time>
      </trkpt>
      <trkpt lat="48.54341" lon="1.96918">
        <ele>158</ele>
        <time>2017-11-19T14:22:19Z</time>
      </trkpt>
      <trkpt lat="48.54354" lon="1.96931">
        <ele>158</ele>
        <time>2017-11-19T14:22:30Z</time>
      </trkpt>
      <trkpt lat="48.54359" lon="1.96933">
        <ele>158</ele>
        <time>2017-11-19T14:22:34Z</time>
      </trkpt>
      <trkpt lat="48.54365" lon="1.96933">
        <ele>159</ele>
        <time>2017-11-19T14:22:37Z</time>
      </trkpt>
      <trkpt lat="48.54374" lon="1.96941">
        <ele>159</ele>
        <time>2017-11-19T14:22:46Z</time>
      </trkpt>
      <trkpt lat="48.54378" lon="1.96946">
        <ele>159</ele>
        <time>2017-11-19T14:22:49Z</time>
      </trkpt>
      <trkpt lat="48.54392" lon="1.96956">
        <ele>160</ele>
        <time>2017-11-19T14:23:02Z</time>
      </trkpt>
      <trkpt lat="48.54397" lon="1.96959">
        <ele>160</ele>
        <time>2017-11-19T14:23:06Z</time>
      </trkpt>
      <trkpt lat="48.54403" lon="1.96965">
        <ele>160</ele>
        <time>2017-11-19T14:23:11Z</time>
      </trkpt>
      <trkpt lat="48.54408" lon="1.96966">
        <ele>159</ele>
        <time>2017-11-19T14:23:14Z</time>
      </trkpt>
      <trkpt lat="48.54413" lon="1.96969">
        <ele>159</ele>
        <time>2017-11-19T14:23:18Z</time>
      </trkpt>
      <trkpt lat="48.54418" lon="1.96973">
        <ele>159</ele>
        <time>2017-11-19T14:23:21Z</time>
      </trkpt>
      <trkpt lat="48.54424" lon="1.96977">
        <ele>159</ele>
        <time>2017-11-19T14:23:29Z</time>
      </trkpt>
      <trkpt lat="48.5443" lon="1.96976">
        <ele>159</ele>
        <time>2017-11-19T14:23:36Z</time>
      </trkpt>
      <trkpt lat="48.54435" lon="1.96978">
        <ele>159</ele>
        <time>2017-11-19T14:23:42Z</time>
      </trkpt>
      <trkpt lat="48.5446" lon="1.97001">
        <ele>159</ele>
        <time>2017-11-19T14:24:03Z</time>
      </trkpt>
      <trkpt lat="48.54465" lon="1.97007">
        <ele>159</ele>
        <time>2017-11-19T14:24:10Z</time>
      </trkpt>
      <trkpt lat="48.54469" lon="1.97022">
        <ele>160</ele>
        <time>2017-11-19T14:24:17Z</time>
      </trkpt>
      <trkpt lat="48.54472" lon="1.97029">
        <ele>160</ele>
        <time>2017-11-19T14:24:22Z</time>
      </trkpt>
      <trkpt lat="48.54477" lon="1.97035">
        <ele>160</ele>
        <time>2017-11-19T14:24:27Z</time>
      </trkpt>
      <trkpt lat="48.54471" lon="1.97047">
        <ele>160</ele>
        <time>2017-11-19T14:24:34Z</time>
      </trkpt>
      <trkpt lat="48.54468" lon="1.97063">
        <ele>160</ele>
        <time>2017-11-19T14:24:42Z</time>
      </trkpt>
      <trkpt lat="48.54467" lon="1.97095">
        <ele>160</ele>
        <time>2017-11-19T14:25:00Z</time>
      </trkpt>
      <trkpt lat="48.54466" lon="1.97105">
        <ele>160</ele>
        <time>2017-11-19T14:25:05Z</time>
      </trkpt>
      <trkpt lat="48.54465" lon="1.97116">
        <ele>160</ele>
        <time>2017-11-19T14:25:10Z</time>
      </trkpt>
      <trkpt lat="48.54463" lon="1.97122">
        <ele>160</ele>
        <time>2017-11-19T14:25:13Z</time>
      </trkpt>
      <trkpt lat="48.54461" lon="1.97137">
        <ele>161</ele>
        <time>2017-11-19T14:25:22Z</time>
      </trkpt>
      <trkpt lat="48.54462" lon="1.97154">
        <ele>161</ele>
        <time>2017-11-19T14:25:32Z</time>
      </trkpt>
      <trkpt lat="48.54461" lon="1.97171">
        <ele>161</ele>
        <time>2017-11-19T14:25:40Z</time>
      </trkpt>
      <trkpt lat="48.54461" lon="1.97179">
        <ele>161</ele>
        <time>2017-11-19T14:25:44Z</time>
      </trkpt>
      <trkpt lat="48.54458" lon="1.97185">
        <ele>161</ele>
        <time>2017-11-19T14:25:47Z</time>
      </trkpt>
      <trkpt lat="48.54453" lon="1.97216">
        <ele>161</ele>
        <time>2017-11-19T14:26:01Z</time>
      </trkpt>
      <trkpt lat="48.54447" lon="1.97229">
        <ele>160</ele>
        <time>2017-11-19T14:26:08Z</time>
      </trkpt>
      <trkpt lat="48.54446" lon="1.97243">
        <ele>160</ele>
        <time>2017-11-19T14:26:15Z</time>
      </trkpt>
      <trkpt lat="48.54434" lon="1.9727">
        <ele>160</ele>
        <time>2017-11-19T14:26:30Z</time>
      </trkpt>
      <trkpt lat="48.54435" lon="1.97277">
        <ele>160</ele>
        <time>2017-11-19T14:26:33Z</time>
      </trkpt>
      <trkpt lat="48.54434" lon="1.97289">
        <ele>160</ele>
        <time>2017-11-19T14:26:41Z</time>
      </trkpt>
      <trkpt lat="48.54436" lon="1.97306">
        <ele>159</ele>
        <time>2017-11-19T14:26:49Z</time>
      </trkpt>
      <trkpt lat="48.54432" lon="1.97327">
        <ele>159</ele>
        <time>2017-11-19T14:26:58Z</time>
      </trkpt>
      <trkpt lat="48.54431" lon="1.97335">
        <ele>159</ele>
        <time>2017-11-19T14:27:03Z</time>
      </trkpt>
      <trkpt lat="48.5443" lon="1.97342">
        <ele>159</ele>
        <time>2017-11-19T14:27:07Z</time>
      </trkpt>
      <trkpt lat="48.5443" lon="1.97349">
        <ele>159</ele>
        <time>2017-11-19T14:27:11Z</time>
      </trkpt>
      <trkpt lat="48.54436" lon="1.9736">
        <ele>159</ele>
        <time>2017-11-19T14:27:19Z</time>
      </trkpt>
      <trkpt lat="48.54437" lon="1.97369">
        <ele>159</ele>
        <time>2017-11-19T14:27:22Z</time>
      </trkpt>
      <trkpt lat="48.54433" lon="1.97383">
        <ele>159</ele>
        <time>2017-11-19T14:27:29Z</time>
      </trkpt>
      <trkpt lat="48.5443" lon="1.97405">
        <ele>159</ele>
        <time>2017-11-19T14:27:40Z</time>
      </trkpt>
      <trkpt lat="48.54428" lon="1.97412">
        <ele>159</ele>
        <time>2017-11-19T14:27:45Z</time>
      </trkpt>
      <trkpt lat="48.54431" lon="1.97425">
        <ele>159</ele>
        <time>2017-11-19T14:27:52Z</time>
      </trkpt>
      <trkpt lat="48.54425" lon="1.97435">
        <ele>159</ele>
        <time>2017-11-19T14:28:00Z</time>
      </trkpt>
      <trkpt lat="48.54418" lon="1.97457">
        <ele>158</ele>
        <time>2017-11-19T14:28:10Z</time>
      </trkpt>
      <trkpt lat="48.54419" lon="1.97465">
        <ele>159</ele>
        <time>2017-11-19T14:28:17Z</time>
      </trkpt>
      <trkpt lat="48.54417" lon="1.97474">
        <ele>159</ele>
        <time>2017-11-19T14:28:21Z</time>
      </trkpt>
      <trkpt lat="48.54415" lon="1.97505">
        <ele>159</ele>
        <time>2017-11-19T14:28:33Z</time>
      </trkpt>
      <trkpt lat="48.54413" lon="1.97513">
        <ele>159</ele>
        <time>2017-11-19T14:28:36Z</time>
      </trkpt>
      <trkpt lat="48.54416" lon="1.9753">
        <ele>159</ele>
        <time>2017-11-19T14:28:43Z</time>
      </trkpt>
      <trkpt lat="48.54416" lon="1.97538">
        <ele>158</ele>
        <time>2017-11-19T14:28:46Z</time>
      </trkpt>
      <trkpt lat="48.54414" lon="1.97545">
        <ele>158</ele>
        <time>2017-11-19T14:28:50Z</time>
      </trkpt>
      <trkpt lat="48.54414" lon="1.9756">
        <ele>158</ele>
        <time>2017-11-19T14:28:58Z</time>
      </trkpt>
      <trkpt lat="48.54416" lon="1.97567">
        <ele>158</ele>
        <time>2017-11-19T14:29:04Z</time>
      </trkpt>
      <trkpt lat="48.54415" lon="1.97581">
        <ele>158</ele>
        <time>2017-11-19T14:29:11Z</time>
      </trkpt>
      <trkpt lat="48.54417" lon="1.97588">
        <ele>158</ele>
        <time>2017-11-19T14:29:14Z</time>
      </trkpt>
      <trkpt lat="48.54418" lon="1.9761">
        <ele>159</ele>
        <time>2017-11-19T14:29:27Z</time>
      </trkpt>
      <trkpt lat="48.54416" lon="1.97618">
        <ele>159</ele>
        <time>2017-11-19T14:29:33Z</time>
      </trkpt>
      <trkpt lat="48.54417" lon="1.97637">
        <ele>159</ele>
        <time>2017-11-19T14:29:41Z</time>
      </trkpt>
      <trkpt lat="48.5442" lon="1.97654">
        <ele>158</ele>
        <time>2017-11-19T14:29:48Z</time>
      </trkpt>
      <trkpt lat="48.54424" lon="1.97715">
        <ele>158</ele>
        <time>2017-11-19T14:30:18Z</time>
      </trkpt>
      <trkpt lat="48.54425" lon="1.97723">
        <ele>157</ele>
        <time>2017-11-19T14:30:23Z</time>
      </trkpt>
      <trkpt lat="48.54427" lon="1.97731">
        <ele>157</ele>
        <time>2017-11-19T14:30:28Z</time>
      </trkpt>
      <trkpt lat="48.54427" lon="1.97738">
        <ele>157</ele>
        <time>2017-11-19T14:30:32Z</time>
      </trkpt>
      <trkpt lat="48.54425" lon="1.97769">
        <ele>156</ele>
        <time>2017-11-19T14:30:48Z</time>
      </trkpt>
      <trkpt lat="48.54426" lon="1.97791">
        <ele>156</ele>
        <time>2017-11-19T14:30:59Z</time>
      </trkpt>
      <trkpt lat="48.54422" lon="1.97829">
        <ele>156</ele>
        <time>2017-11-19T14:31:17Z</time>
      </trkpt>
      <trkpt lat="48.54414" lon="1.97856">
        <ele>156</ele>
        <time>2017-11-19T14:31:33Z</time>
      </trkpt>
      <trkpt lat="48.54414" lon="1.97871">
        <ele>157</ele>
        <time>2017-11-19T14:31:43Z</time>
      </trkpt>
      <trkpt lat="48.54411" lon="1.97883">
        <ele>157</ele>
        <time>2017-11-19T14:31:49Z</time>
      </trkpt>
      <trkpt lat="48.5441" lon="1.97906">
        <ele>157</ele>
        <time>2017-11-19T14:31:59Z</time>
      </trkpt>
      <trkpt lat="48.54406" lon="1.97919">
        <ele>157</ele>
        <time>2017-11-19T14:32:06Z</time>
      </trkpt>
      <trkpt lat="48.54403" lon="1.97942">
        <ele>158</ele>
        <time>2017-11-19T14:32:16Z</time>
      </trkpt>
      <trkpt lat="48.544" lon="1.97949">
        <ele>158</ele>
        <time>2017-11-19T14:32:20Z</time>
      </trkpt>
      <trkpt lat="48.54396" lon="1.97955">
        <ele>158</ele>
        <time>2017-11-19T14:32:24Z</time>
      </trkpt>
      <trkpt lat="48.5439" lon="1.97977">
        <ele>158</ele>
        <time>2017-11-19T14:32:36Z</time>
      </trkpt>
      <trkpt lat="48.54389" lon="1.97985">
        <ele>158</ele>
        <time>2017-11-19T14:32:40Z</time>
      </trkpt>
      <trkpt lat="48.54384" lon="1.98">
        <ele>158</ele>
        <time>2017-11-19T14:32:48Z</time>
      </trkpt>
      <trkpt lat="48.54382" lon="1.98016">
        <ele>158</ele>
        <time>2017-11-19T14:32:54Z</time>
      </trkpt>
      <trkpt lat="48.54374" lon="1.98028">
        <ele>158</ele>
        <time>2017-11-19T14:33:03Z</time>
      </trkpt>
      <trkpt lat="48.54374" lon="1.98035">
        <ele>158</ele>
        <time>2017-11-19T14:33:07Z</time>
      </trkpt>
      <trkpt lat="48.54377" lon="1.98041">
        <ele>158</ele>
        <time>2017-11-19T14:33:11Z</time>
      </trkpt>
      <trkpt lat="48.54376" lon="1.98048">
        <ele>158</ele>
        <time>2017-11-19T14:33:14Z</time>
      </trkpt>
      <trkpt lat="48.54374" lon="1.98101">
        <ele>158</ele>
        <time>2017-11-19T14:33:41Z</time>
      </trkpt>
      <trkpt lat="48.54372" lon="1.98116">
        <ele>158</ele>
        <time>2017-11-19T14:33:50Z</time>
      </trkpt>
      <trkpt lat="48.54367" lon="1.9813">
        <ele>159</ele>
        <time>2017-11-19T14:33:58Z</time>
      </trkpt>
      <trkpt lat="48.54366" lon="1.98146">
        <ele>159</ele>
        <time>2017-11-19T14:34:08Z</time>
      </trkpt>
      <trkpt lat="48.54364" lon="1.98153">
        <ele>159</ele>
        <time>2017-11-19T14:34:12Z</time>
      </trkpt>
      <trkpt lat="48.54369" lon="1.98166">
        <ele>159</ele>
        <time>2017-11-19T14:34:25Z</time>
      </trkpt>
      <trkpt lat="48.54367" lon="1.98178">
        <ele>161</ele>
        <time>2017-11-19T14:34:44Z</time>
      </trkpt>
      <trkpt lat="48.54365" lon="1.9819">
        <ele>161</ele>
        <time>2017-11-19T14:35:37Z</time>
      </trkpt>
      <trkpt lat="48.54365" lon="1.98199">
        <ele>160</ele>
        <time>2017-11-19T14:35:40Z</time>
      </trkpt>
      <trkpt lat="48.54363" lon="1.98206">
        <ele>160</ele>
        <time>2017-11-19T14:35:43Z</time>
      </trkpt>
      <trkpt lat="48.5436" lon="1.98212">
        <ele>160</ele>
        <time>2017-11-19T14:35:46Z</time>
      </trkpt>
      <trkpt lat="48.54357" lon="1.9822">
        <ele>160</ele>
        <time>2017-11-19T14:35:49Z</time>
      </trkpt>
      <trkpt lat="48.54358" lon="1.98235">
        <ele>160</ele>
        <time>2017-11-19T14:35:56Z</time>
      </trkpt>
      <trkpt lat="48.54354" lon="1.98249">
        <ele>161</ele>
        <time>2017-11-19T14:36:05Z</time>
      </trkpt>
      <trkpt lat="48.54355" lon="1.98256">
        <ele>161</ele>
        <time>2017-11-19T14:36:10Z</time>
      </trkpt>
      <trkpt lat="48.54353" lon="1.98264">
        <ele>161</ele>
        <time>2017-11-19T14:36:14Z</time>
      </trkpt>
      <trkpt lat="48.54354" lon="1.98289">
        <ele>161</ele>
        <time>2017-11-19T14:36:27Z</time>
      </trkpt>
      <trkpt lat="48.54355" lon="1.98297">
        <ele>161</ele>
        <time>2017-11-19T14:36:31Z</time>
      </trkpt>
      <trkpt lat="48.54361" lon="1.98311">
        <ele>161</ele>
        <time>2017-11-19T14:36:37Z</time>
      </trkpt>
      <trkpt lat="48.54362" lon="1.98319">
        <ele>161</ele>
        <time>2017-11-19T14:36:40Z</time>
      </trkpt>
      <trkpt lat="48.54354" lon="1.98337">
        <ele>161</ele>
        <time>2017-11-19T14:36:51Z</time>
      </trkpt>
      <trkpt lat="48.54352" lon="1.98381">
        <ele>163</ele>
        <time>2017-11-19T14:37:12Z</time>
      </trkpt>
      <trkpt lat="48.54349" lon="1.98405">
        <ele>163</ele>
        <time>2017-11-19T14:37:24Z</time>
      </trkpt>
      <trkpt lat="48.54344" lon="1.98427">
        <ele>162</ele>
        <time>2017-11-19T14:37:35Z</time>
      </trkpt>
      <trkpt lat="48.54343" lon="1.98457">
        <ele>163</ele>
        <time>2017-11-19T14:37:51Z</time>
      </trkpt>
      <trkpt lat="48.54344" lon="1.98464">
        <ele>163</ele>
        <time>2017-11-19T14:37:55Z</time>
      </trkpt>
      <trkpt lat="48.54344" lon="1.98471">
        <ele>163</ele>
        <time>2017-11-19T14:37:58Z</time>
      </trkpt>
      <trkpt lat="48.54342" lon="1.98488">
        <ele>163</ele>
        <time>2017-11-19T14:38:09Z</time>
      </trkpt>
      <trkpt lat="48.54344" lon="1.98503">
        <ele>163</ele>
        <time>2017-11-19T14:38:18Z</time>
      </trkpt>
      <trkpt lat="48.54342" lon="1.98537">
        <ele>163</ele>
        <time>2017-11-19T14:38:36Z</time>
      </trkpt>
      <trkpt lat="48.54344" lon="1.98545">
        <ele>163</ele>
        <time>2017-11-19T14:38:41Z</time>
      </trkpt>
      <trkpt lat="48.54343" lon="1.9857">
        <ele>163</ele>
        <time>2017-11-19T14:39:03Z</time>
      </trkpt>
      <trkpt lat="48.54345" lon="1.98577">
        <ele>163</ele>
        <time>2017-11-19T14:39:08Z</time>
      </trkpt>
      <trkpt lat="48.54345" lon="1.98593">
        <ele>162</ele>
        <time>2017-11-19T14:39:14Z</time>
      </trkpt>
      <trkpt lat="48.54344" lon="1.98612">
        <ele>162</ele>
        <time>2017-11-19T14:39:21Z</time>
      </trkpt>
      <trkpt lat="48.54343" lon="1.98621">
        <ele>162</ele>
        <time>2017-11-19T14:39:24Z</time>
      </trkpt>
      <trkpt lat="48.54338" lon="1.98631">
        <ele>162</ele>
        <time>2017-11-19T14:39:29Z</time>
      </trkpt>
      <trkpt lat="48.54338" lon="1.98664">
        <ele>162</ele>
        <time>2017-11-19T14:39:45Z</time>
      </trkpt>
      <trkpt lat="48.54335" lon="1.98709">
        <ele>162</ele>
        <time>2017-11-19T14:40:07Z</time>
      </trkpt>
      <trkpt lat="48.54331" lon="1.98722">
        <ele>162</ele>
        <time>2017-11-19T14:40:15Z</time>
      </trkpt>
      <trkpt lat="48.54328" lon="1.98726">
        <ele>162</ele>
        <time>2017-11-19T14:40:18Z</time>
      </trkpt>
      <trkpt lat="48.54325" lon="1.98731">
        <ele>162</ele>
        <time>2017-11-19T14:40:22Z</time>
      </trkpt>
      <trkpt lat="48.54325" lon="1.98738">
        <ele>162</ele>
        <time>2017-11-19T14:40:26Z</time>
      </trkpt>
      <trkpt lat="48.54322" lon="1.98751">
        <ele>162</ele>
        <time>2017-11-19T14:40:35Z</time>
      </trkpt>
      <trkpt lat="48.54317" lon="1.98755">
        <ele>162</ele>
        <time>2017-11-19T14:40:40Z</time>
      </trkpt>
      <trkpt lat="48.54309" lon="1.98756">
        <ele>162</ele>
        <time>2017-11-19T14:40:47Z</time>
      </trkpt>
      <trkpt lat="48.54305" lon="1.9876">
        <ele>162</ele>
        <time>2017-11-19T14:40:53Z</time>
      </trkpt>
      <trkpt lat="48.54306" lon="1.98765">
        <ele>163</ele>
        <time>2017-11-19T14:43:42Z</time>
      </trkpt>
      <trkpt lat="48.5431" lon="1.98756">
        <ele>163</ele>
        <time>2017-11-19T14:47:24Z</time>
      </trkpt>
      <trkpt lat="48.54312" lon="1.98756">
        <ele>162</ele>
        <time>2017-11-19T14:50:13Z</time>
      </trkpt>
      <trkpt lat="48.5431" lon="1.98759">
        <ele>162</ele>
        <time>2017-11-19T14:50:57Z</time>
      </trkpt>
      <trkpt lat="48.54304" lon="1.98767">
        <ele>161</ele>
        <time>2017-11-19T14:51:18Z</time>
      </trkpt>
      <trkpt lat="48.54302" lon="1.98781">
        <ele>162</ele>
        <time>2017-11-19T14:51:25Z</time>
      </trkpt>
      <trkpt lat="48.5428" lon="1.98814">
        <ele>162</ele>
        <time>2017-11-19T14:51:51Z</time>
      </trkpt>
      <trkpt lat="48.54276" lon="1.9883">
        <ele>161</ele>
        <time>2017-11-19T14:52:03Z</time>
      </trkpt>
      <trkpt lat="48.54273" lon="1.98837">
        <ele>161</ele>
        <time>2017-11-19T14:52:06Z</time>
      </trkpt>
      <trkpt lat="48.54253" lon="1.98854">
        <ele>161</ele>
        <time>2017-11-19T14:52:21Z</time>
      </trkpt>
      <trkpt lat="48.54251" lon="1.98859">
        <ele>161</ele>
        <time>2017-11-19T14:52:25Z</time>
      </trkpt>
      <trkpt lat="48.54245" lon="1.98863">
        <ele>160</ele>
        <time>2017-11-19T14:52:33Z</time>
      </trkpt>
      <trkpt lat="48.54241" lon="1.9887">
        <ele>160</ele>
        <time>2017-11-19T14:52:37Z</time>
      </trkpt>
      <trkpt lat="48.54229" lon="1.98889">
        <ele>158</ele>
        <time>2017-11-19T14:52:48Z</time>
      </trkpt>
      <trkpt lat="48.54227" lon="1.98897">
        <ele>157</ele>
        <time>2017-11-19T14:52:55Z</time>
      </trkpt>
      <trkpt lat="48.54224" lon="1.98905">
        <ele>157</ele>
        <time>2017-11-19T14:52:58Z</time>
      </trkpt>
      <trkpt lat="48.5421" lon="1.98922">
        <ele>155</ele>
        <time>2017-11-19T14:53:06Z</time>
      </trkpt>
      <trkpt lat="48.54206" lon="1.98931">
        <ele>154</ele>
        <time>2017-11-19T14:53:12Z</time>
      </trkpt>
      <trkpt lat="48.54201" lon="1.98934">
        <ele>154</ele>
        <time>2017-11-19T14:53:17Z</time>
      </trkpt>
      <trkpt lat="48.54183" lon="1.98927">
        <ele>151</ele>
        <time>2017-11-19T14:53:31Z</time>
      </trkpt>
      <trkpt lat="48.54174" lon="1.98928">
        <ele>151</ele>
        <time>2017-11-19T14:53:38Z</time>
      </trkpt>
      <trkpt lat="48.54168" lon="1.98933">
        <ele>150</ele>
        <time>2017-11-19T14:53:41Z</time>
      </trkpt>
      <trkpt lat="48.54163" lon="1.9894">
        <ele>150</ele>
        <time>2017-11-19T14:53:45Z</time>
      </trkpt>
      <trkpt lat="48.54161" lon="1.98947">
        <ele>150</ele>
        <time>2017-11-19T14:53:49Z</time>
      </trkpt>
      <trkpt lat="48.54149" lon="1.98959">
        <ele>148</ele>
        <time>2017-11-19T14:54:02Z</time>
      </trkpt>
      <trkpt lat="48.54143" lon="1.9896">
        <ele>148</ele>
        <time>2017-11-19T14:54:05Z</time>
      </trkpt>
      <trkpt lat="48.5414" lon="1.98968">
        <ele>148</ele>
        <time>2017-11-19T14:54:09Z</time>
      </trkpt>
      <trkpt lat="48.54139" lon="1.98979">
        <ele>147</ele>
        <time>2017-11-19T14:54:13Z</time>
      </trkpt>
      <trkpt lat="48.54128" lon="1.98985">
        <ele>146</ele>
        <time>2017-11-19T14:54:22Z</time>
      </trkpt>
      <trkpt lat="48.54113" lon="1.99002">
        <ele>145</ele>
        <time>2017-11-19T14:54:33Z</time>
      </trkpt>
      <trkpt lat="48.54095" lon="1.99033">
        <ele>143</ele>
        <time>2017-11-19T14:54:57Z</time>
      </trkpt>
      <trkpt lat="48.54092" lon="1.99037">
        <ele>142</ele>
        <time>2017-11-19T14:55:01Z</time>
      </trkpt>
      <trkpt lat="48.54086" lon="1.99036">
        <ele>142</ele>
        <time>2017-11-19T14:55:05Z</time>
      </trkpt>
      <trkpt lat="48.54073" lon="1.99056">
        <ele>140</ele>
        <time>2017-11-19T14:55:21Z</time>
      </trkpt>
      <trkpt lat="48.54056" lon="1.99069">
        <ele>140</ele>
        <time>2017-11-19T14:55:32Z</time>
      </trkpt>
      <trkpt lat="48.54052" lon="1.99073">
        <ele>139</ele>
        <time>2017-11-19T14:55:36Z</time>
      </trkpt>
      <trkpt lat="48.54049" lon="1.9908">
        <ele>139</ele>
        <time>2017-11-19T14:55:39Z</time>
      </trkpt>
      <trkpt lat="48.54033" lon="1.99093">
        <ele>137</ele>
        <time>2017-11-19T14:55:51Z</time>
      </trkpt>
      <trkpt lat="48.54028" lon="1.99099">
        <ele>137</ele>
        <time>2017-11-19T14:55:54Z</time>
      </trkpt>
      <trkpt lat="48.54022" lon="1.99112">
        <ele>136</ele>
        <time>2017-11-19T14:56:02Z</time>
      </trkpt>
      <trkpt lat="48.54018" lon="1.99118">
        <ele>136</ele>
        <time>2017-11-19T14:56:06Z</time>
      </trkpt>
      <trkpt lat="48.54015" lon="1.99124">
        <ele>135</ele>
        <time>2017-11-19T14:56:10Z</time>
      </trkpt>
      <trkpt lat="48.54008" lon="1.99131">
        <ele>135</ele>
        <time>2017-11-19T14:56:23Z</time>
      </trkpt>
      <trkpt lat="48.53991" lon="1.99142">
        <ele>134</ele>
        <time>2017-11-19T14:56:34Z</time>
      </trkpt>
      <trkpt lat="48.53987" lon="1.99145">
        <ele>134</ele>
        <time>2017-11-19T14:56:39Z</time>
      </trkpt>
      <trkpt lat="48.53982" lon="1.99152">
        <ele>134</ele>
        <time>2017-11-19T14:56:45Z</time>
      </trkpt>
      <trkpt lat="48.53977" lon="1.99154">
        <ele>134</ele>
        <time>2017-11-19T14:56:48Z</time>
      </trkpt>
      <trkpt lat="48.53969" lon="1.99155">
        <ele>135</ele>
        <time>2017-11-19T14:56:55Z</time>
      </trkpt>
      <trkpt lat="48.53962" lon="1.99163">
        <ele>135</ele>
        <time>2017-11-19T14:57:03Z</time>
      </trkpt>
      <trkpt lat="48.53957" lon="1.99176">
        <ele>135</ele>
        <time>2017-11-19T14:57:09Z</time>
      </trkpt>
      <trkpt lat="48.53956" lon="1.99183">
        <ele>136</ele>
        <time>2017-11-19T14:57:15Z</time>
      </trkpt>
      <trkpt lat="48.53952" lon="1.99188">
        <ele>137</ele>
        <time>2017-11-19T14:57:21Z</time>
      </trkpt>
      <trkpt lat="48.53947" lon="1.9919">
        <ele>137</ele>
        <time>2017-11-19T14:57:22Z</time>
      </trkpt>
      <trkpt lat="48.53944" lon="1.99212">
        <ele>140</ele>
        <time>2017-11-19T14:57:38Z</time>
      </trkpt>
      <trkpt lat="48.53945" lon="1.9923">
        <ele>142</ele>
        <time>2017-11-19T14:57:54Z</time>
      </trkpt>
      <trkpt lat="48.53949" lon="1.99236">
        <ele>143</ele>
        <time>2017-11-19T14:58:01Z</time>
      </trkpt>
      <trkpt lat="48.53957" lon="1.99256">
        <ele>145</ele>
        <time>2017-11-19T14:58:19Z</time>
      </trkpt>
      <trkpt lat="48.53969" lon="1.99264">
        <ele>146</ele>
        <time>2017-11-19T14:58:26Z</time>
      </trkpt>
      <trkpt lat="48.53974" lon="1.99269">
        <ele>147</ele>
        <time>2017-11-19T14:58:30Z</time>
      </trkpt>
      <trkpt lat="48.53977" lon="1.99276">
        <ele>147</ele>
        <time>2017-11-19T14:58:35Z</time>
      </trkpt>
      <trkpt lat="48.53978" lon="1.99283">
        <ele>148</ele>
        <time>2017-11-19T14:58:39Z</time>
      </trkpt>
      <trkpt lat="48.53977" lon="1.9929">
        <ele>149</ele>
        <time>2017-11-19T14:58:44Z</time>
      </trkpt>
      <trkpt lat="48.53981" lon="1.9932">
        <ele>151</ele>
        <time>2017-11-19T14:59:00Z</time>
      </trkpt>
      <trkpt lat="48.5398" lon="1.99335">
        <ele>153</ele>
        <time>2017-11-19T14:59:11Z</time>
      </trkpt>
      <trkpt lat="48.53979" lon="1.99342">
        <ele>153</ele>
        <time>2017-11-19T14:59:15Z</time>
      </trkpt>
      <trkpt lat="48.53981" lon="1.99379">
        <ele>154</ele>
        <time>2017-11-19T14:59:34Z</time>
      </trkpt>
      <trkpt lat="48.53988" lon="1.99409">
        <ele>154</ele>
        <time>2017-11-19T14:59:50Z</time>
      </trkpt>
      <trkpt lat="48.53987" lon="1.99416">
        <ele>154</ele>
        <time>2017-11-19T14:59:54Z</time>
      </trkpt>
      <trkpt lat="48.53987" lon="1.99424">
        <ele>154</ele>
        <time>2017-11-19T14:59:58Z</time>
      </trkpt>
      <trkpt lat="48.53988" lon="1.9943">
        <ele>154</ele>
        <time>2017-11-19T15:00:02Z</time>
      </trkpt>
      <trkpt lat="48.53986" lon="1.99446">
        <ele>153</ele>
        <time>2017-11-19T15:00:11Z</time>
      </trkpt>
      <trkpt lat="48.53984" lon="1.99452">
        <ele>152</ele>
        <time>2017-11-19T15:00:15Z</time>
      </trkpt>
      <trkpt lat="48.53986" lon="1.99473">
        <ele>150</ele>
        <time>2017-11-19T15:00:25Z</time>
      </trkpt>
      <trkpt lat="48.53991" lon="1.99496">
        <ele>148</ele>
        <time>2017-11-19T15:00:37Z</time>
      </trkpt>
      <trkpt lat="48.5399" lon="1.99506">
        <ele>147</ele>
        <time>2017-11-19T15:00:41Z</time>
      </trkpt>
      <trkpt lat="48.5399" lon="1.99513">
        <ele>146</ele>
        <time>2017-11-19T15:00:45Z</time>
      </trkpt>
      <trkpt lat="48.53994" lon="1.99526">
        <ele>145</ele>
        <time>2017-11-19T15:00:54Z</time>
      </trkpt>
      <trkpt lat="48.53996" lon="1.99541">
        <ele>143</ele>
        <time>2017-11-19T15:01:02Z</time>
      </trkpt>
      <trkpt lat="48.53996" lon="1.99548">
        <ele>143</ele>
        <time>2017-11-19T15:01:05Z</time>
      </trkpt>
      <trkpt lat="48.53996" lon="1.99556">
        <ele>143</ele>
        <time>2017-11-19T15:01:11Z</time>
      </trkpt>
      <trkpt lat="48.53999" lon="1.99561">
        <ele>143</ele>
        <time>2017-11-19T15:01:16Z</time>
      </trkpt>
      <trkpt lat="48.53997" lon="1.99566">
        <ele>143</ele>
        <time>2017-11-19T15:01:19Z</time>
      </trkpt>
      <trkpt lat="48.53992" lon="1.9957">
        <ele>142</ele>
        <time>2017-11-19T15:01:24Z</time>
      </trkpt>
      <trkpt lat="48.53987" lon="1.99573">
        <ele>142</ele>
        <time>2017-11-19T15:01:27Z</time>
      </trkpt>
      <trkpt lat="48.53982" lon="1.99578">
        <ele>141</ele>
        <time>2017-11-19T15:01:32Z</time>
      </trkpt>
      <trkpt lat="48.53978" lon="1.9958">
        <ele>141</ele>
        <time>2017-11-19T15:01:36Z</time>
      </trkpt>
      <trkpt lat="48.53967" lon="1.99578">
        <ele>141</ele>
        <time>2017-11-19T15:01:45Z</time>
      </trkpt>
      <trkpt lat="48.53939" lon="1.99593">
        <ele>139</ele>
        <time>2017-11-19T15:02:06Z</time>
      </trkpt>
      <trkpt lat="48.53931" lon="1.99605">
        <ele>138</ele>
        <time>2017-11-19T15:02:09Z</time>
      </trkpt>
      <trkpt lat="48.53921" lon="1.99626">
        <ele>138</ele>
        <time>2017-11-19T15:02:18Z</time>
      </trkpt>
      <trkpt lat="48.53916" lon="1.99628">
        <ele>137</ele>
        <time>2017-11-19T15:02:24Z</time>
      </trkpt>
      <trkpt lat="48.53912" lon="1.99637">
        <ele>137</ele>
        <time>2017-11-19T15:02:35Z</time>
      </trkpt>
      <trkpt lat="48.53907" lon="1.9964">
        <ele>136</ele>
        <time>2017-11-19T15:02:39Z</time>
      </trkpt>
      <trkpt lat="48.53904" lon="1.99647">
        <ele>136</ele>
        <time>2017-11-19T15:02:42Z</time>
      </trkpt>
      <trkpt lat="48.5389" lon="1.99664">
        <ele>135</ele>
        <time>2017-11-19T15:02:51Z</time>
      </trkpt>
      <trkpt lat="48.53884" lon="1.99668">
        <ele>134</ele>
        <time>2017-11-19T15:02:59Z</time>
      </trkpt>
      <trkpt lat="48.53868" lon="1.99691">
        <ele>133</ele>
        <time>2017-11-19T15:03:13Z</time>
      </trkpt>
      <trkpt lat="48.53865" lon="1.99697">
        <ele>133</ele>
        <time>2017-11-19T15:03:16Z</time>
      </trkpt>
      <trkpt lat="48.53864" lon="1.99703">
        <ele>133</ele>
        <time>2017-11-19T15:03:19Z</time>
      </trkpt>
      <trkpt lat="48.53858" lon="1.99715">
        <ele>133</ele>
        <time>2017-11-19T15:03:25Z</time>
      </trkpt>
      <trkpt lat="48.53855" lon="1.9972">
        <ele>133</ele>
        <time>2017-11-19T15:03:28Z</time>
      </trkpt>
      <trkpt lat="48.53853" lon="1.99727">
        <ele>132</ele>
        <time>2017-11-19T15:03:32Z</time>
      </trkpt>
      <trkpt lat="48.53823" lon="1.99783">
        <ele>130</ele>
        <time>2017-11-19T15:04:05Z</time>
      </trkpt>
      <trkpt lat="48.53822" lon="1.99789">
        <ele>129</ele>
        <time>2017-11-19T15:04:10Z</time>
      </trkpt>
      <trkpt lat="48.53818" lon="1.99793">
        <ele>129</ele>
        <time>2017-11-19T15:04:13Z</time>
      </trkpt>
      <trkpt lat="48.53806" lon="1.99839">
        <ele>128</ele>
        <time>2017-11-19T15:04:35Z</time>
      </trkpt>
      <trkpt lat="48.53801" lon="1.99845">
        <ele>128</ele>
        <time>2017-11-19T15:04:38Z</time>
      </trkpt>
      <trkpt lat="48.53796" lon="1.99853">
        <ele>127</ele>
        <time>2017-11-19T15:04:43Z</time>
      </trkpt>
      <trkpt lat="48.53792" lon="1.99857">
        <ele>127</ele>
        <time>2017-11-19T15:04:47Z</time>
      </trkpt>
      <trkpt lat="48.53785" lon="1.99858">
        <ele>127</ele>
        <time>2017-11-19T15:04:51Z</time>
      </trkpt>
      <trkpt lat="48.53778" lon="1.99868">
        <ele>127</ele>
        <time>2017-11-19T15:04:59Z</time>
      </trkpt>
      <trkpt lat="48.53773" lon="1.99873">
        <ele>126</ele>
        <time>2017-11-19T15:05:02Z</time>
      </trkpt>
      <trkpt lat="48.53768" lon="1.99875">
        <ele>126</ele>
        <time>2017-11-19T15:05:05Z</time>
      </trkpt>
      <trkpt lat="48.53754" lon="1.99875">
        <ele>125</ele>
        <time>2017-11-19T15:05:16Z</time>
      </trkpt>
      <trkpt lat="48.5375" lon="1.99882">
        <ele>125</ele>
        <time>2017-11-19T15:05:19Z</time>
      </trkpt>
      <trkpt lat="48.53741" lon="1.99893">
        <ele>125</ele>
        <time>2017-11-19T15:05:26Z</time>
      </trkpt>
      <trkpt lat="48.53738" lon="1.99898">
        <ele>125</ele>
        <time>2017-11-19T15:05:28Z</time>
      </trkpt>
      <trkpt lat="48.53729" lon="1.99911">
        <ele>124</ele>
        <time>2017-11-19T15:05:38Z</time>
      </trkpt>
      <trkpt lat="48.53724" lon="1.99911">
        <ele>124</ele>
        <time>2017-11-19T15:05:40Z</time>
      </trkpt>
      <trkpt lat="48.5371" lon="1.99924">
        <ele>124</ele>
        <time>2017-11-19T15:05:58Z</time>
      </trkpt>
      <trkpt lat="48.53706" lon="1.9993">
        <ele>123</ele>
        <time>2017-11-19T15:06:01Z</time>
      </trkpt>
      <trkpt lat="48.53699" lon="1.99934">
        <ele>123</ele>
        <time>2017-11-19T15:06:09Z</time>
      </trkpt>
      <trkpt lat="48.53688" lon="1.99941">
        <ele>123</ele>
        <time>2017-11-19T15:06:18Z</time>
      </trkpt>
      <trkpt lat="48.53682" lon="1.99945">
        <ele>123</ele>
        <time>2017-11-19T15:06:21Z</time>
      </trkpt>
      <trkpt lat="48.53659" lon="1.99982">
        <ele>122</ele>
        <time>2017-11-19T15:06:43Z</time>
      </trkpt>
      <trkpt lat="48.53655" lon="1.99984">
        <ele>121</ele>
        <time>2017-11-19T15:06:47Z</time>
      </trkpt>
      <trkpt lat="48.53611" lon="2.00031">
        <ele>120</ele>
        <time>2017-11-19T15:07:24Z</time>
      </trkpt>
      <trkpt lat="48.53602" lon="2.00037">
        <ele>120</ele>
        <time>2017-11-19T15:07:31Z</time>
      </trkpt>
      <trkpt lat="48.53599" lon="2.00043">
        <ele>120</ele>
        <time>2017-11-19T15:07:37Z</time>
      </trkpt>
      <trkpt lat="48.53594" lon="2.00048">
        <ele>120</ele>
        <time>2017-11-19T15:07:41Z</time>
      </trkpt>
      <trkpt lat="48.53588" lon="2.0005">
        <ele>120</ele>
        <time>2017-11-19T15:07:44Z</time>
      </trkpt>
      <trkpt lat="48.53584" lon="2.00054">
        <ele>120</ele>
        <time>2017-11-19T15:07:47Z</time>
      </trkpt>
      <trkpt lat="48.53581" lon="2.00061">
        <ele>120</ele>
        <time>2017-11-19T15:07:50Z</time>
      </trkpt>
      <trkpt lat="48.53568" lon="2.00074">
        <ele>119</ele>
        <time>2017-11-19T15:08:01Z</time>
      </trkpt>
      <trkpt lat="48.53555" lon="2.00089">
        <ele>118</ele>
        <time>2017-11-19T15:08:15Z</time>
      </trkpt>
      <trkpt lat="48.53547" lon="2.001">
        <ele>118</ele>
        <time>2017-11-19T15:08:20Z</time>
      </trkpt>
      <trkpt lat="48.53538" lon="2.00111">
        <ele>117</ele>
        <time>2017-11-19T15:08:25Z</time>
      </trkpt>
      <trkpt lat="48.53528" lon="2.00117">
        <ele>117</ele>
        <time>2017-11-19T15:08:35Z</time>
      </trkpt>
      <trkpt lat="48.53526" lon="2.00124">
        <ele>116</ele>
        <time>2017-11-19T15:08:39Z</time>
      </trkpt>
      <trkpt lat="48.53521" lon="2.00129">
        <ele>116</ele>
        <time>2017-11-19T15:08:43Z</time>
      </trkpt>
      <trkpt lat="48.53518" lon="2.00134">
        <ele>115</ele>
        <time>2017-11-19T15:08:48Z</time>
      </trkpt>
      <trkpt lat="48.53513" lon="2.00137">
        <ele>115</ele>
        <time>2017-11-19T15:08:52Z</time>
      </trkpt>
      <trkpt lat="48.53502" lon="2.00154">
        <ele>114</ele>
        <time>2017-11-19T15:08:59Z</time>
      </trkpt>
      <trkpt lat="48.53499" lon="2.00165">
        <ele>113</ele>
        <time>2017-11-19T15:09:08Z</time>
      </trkpt>
      <trkpt lat="48.53497" lon="2.00171">
        <ele>112</ele>
        <time>2017-11-19T15:09:38Z</time>
      </trkpt>
      <trkpt lat="48.53492" lon="2.00166">
        <ele>113</ele>
        <time>2017-11-19T15:12:19Z</time>
      </trkpt>
      <trkpt lat="48.53487" lon="2.00168">
        <ele>113</ele>
        <time>2017-11-19T15:14:43Z</time>
      </trkpt>
      <trkpt lat="48.5347" lon="2.00186">
        <ele>113</ele>
        <time>2017-11-19T15:15:16Z</time>
      </trkpt>
      <trkpt lat="48.53463" lon="2.00198">
        <ele>113</ele>
        <time>2017-11-19T15:15:26Z</time>
      </trkpt>
      <trkpt lat="48.53458" lon="2.00197">
        <ele>113</ele>
        <time>2017-11-19T15:15:28Z</time>
      </trkpt>
      <trkpt lat="48.53449" lon="2.00179">
        <ele>113</ele>
        <time>2017-11-19T15:15:40Z</time>
      </trkpt>
      <trkpt lat="48.53443" lon="2.00172">
        <ele>112</ele>
        <time>2017-11-19T15:15:46Z</time>
      </trkpt>
      <trkpt lat="48.53438" lon="2.00168">
        <ele>112</ele>
        <time>2017-11-19T15:15:50Z</time>
      </trkpt>
      <trkpt lat="48.53433" lon="2.0017">
        <ele>111</ele>
        <time>2017-11-19T15:15:55Z</time>
      </trkpt>
      <trkpt lat="48.53427" lon="2.00168">
        <ele>111</ele>
        <time>2017-11-19T15:15:59Z</time>
      </trkpt>
      <trkpt lat="48.53384" lon="2.00167">
        <ele>107</ele>
        <time>2017-11-19T15:16:31Z</time>
      </trkpt>
      <trkpt lat="48.53351" lon="2.00156">
        <ele>104</ele>
        <time>2017-11-19T15:16:58Z</time>
      </trkpt>
      <trkpt lat="48.53342" lon="2.00158">
        <ele>103</ele>
        <time>2017-11-19T15:17:05Z</time>
      </trkpt>
      <trkpt lat="48.53337" lon="2.00158">
        <ele>103</ele>
        <time>2017-11-19T15:17:10Z</time>
      </trkpt>
      <trkpt lat="48.53325" lon="2.00155">
        <ele>102</ele>
        <time>2017-11-19T15:17:17Z</time>
      </trkpt>
      <trkpt lat="48.53321" lon="2.00158">
        <ele>101</ele>
        <time>2017-11-19T15:17:22Z</time>
      </trkpt>
      <trkpt lat="48.53295" lon="2.00151">
        <ele>99</ele>
        <time>2017-11-19T15:17:40Z</time>
      </trkpt>
      <trkpt lat="48.53285" lon="2.0015">
        <ele>99</ele>
        <time>2017-11-19T15:17:47Z</time>
      </trkpt>
      <trkpt lat="48.53278" lon="2.00148">
        <ele>99</ele>
        <time>2017-11-19T15:17:50Z</time>
      </trkpt>
      <trkpt lat="48.5327" lon="2.0015">
        <ele>98</ele>
        <time>2017-11-19T15:17:57Z</time>
      </trkpt>
      <trkpt lat="48.53265" lon="2.00155">
        <ele>98</ele>
        <time>2017-11-19T15:18:07Z</time>
      </trkpt>
      <trkpt lat="48.53261" lon="2.00159">
        <ele>97</ele>
        <time>2017-11-19T15:18:10Z</time>
      </trkpt>
      <trkpt lat="48.53263" lon="2.00167">
        <ele>96</ele>
        <time>2017-11-19T15:18:17Z</time>
      </trkpt>
      <trkpt lat="48.53269" lon="2.00198">
        <ele>96</ele>
        <time>2017-11-19T15:18:36Z</time>
      </trkpt>
      <trkpt lat="48.53265" lon="2.00266">
        <ele>96</ele>
        <time>2017-11-19T15:19:08Z</time>
      </trkpt>
      <trkpt lat="48.53264" lon="2.00274">
        <ele>96</ele>
        <time>2017-11-19T15:19:14Z</time>
      </trkpt>
      <trkpt lat="48.53256" lon="2.00292">
        <ele>96</ele>
        <time>2017-11-19T15:19:23Z</time>
      </trkpt>
      <trkpt lat="48.53258" lon="2.00308">
        <ele>96</ele>
        <time>2017-11-19T15:19:28Z</time>
      </trkpt>
      <trkpt lat="48.53259" lon="2.00314">
        <ele>96</ele>
        <time>2017-11-19T15:19:33Z</time>
      </trkpt>
      <trkpt lat="48.53257" lon="2.0032">
        <ele>96</ele>
        <time>2017-11-19T15:19:37Z</time>
      </trkpt>
      <trkpt lat="48.53257" lon="2.00327">
        <ele>96</ele>
        <time>2017-11-19T15:19:44Z</time>
      </trkpt>
      <trkpt lat="48.53256" lon="2.00338">
        <ele>97</ele>
        <time>2017-11-19T15:19:47Z</time>
      </trkpt>
      <trkpt lat="48.53255" lon="2.00357">
        <ele>97</ele>
        <time>2017-11-19T15:19:56Z</time>
      </trkpt>
      <trkpt lat="48.5325" lon="2.00385">
        <ele>97</ele>
        <time>2017-11-19T15:20:08Z</time>
      </trkpt>
      <trkpt lat="48.53246" lon="2.00389">
        <ele>97</ele>
        <time>2017-11-19T15:20:13Z</time>
      </trkpt>
      <trkpt lat="48.53241" lon="2.00414">
        <ele>97</ele>
        <time>2017-11-19T15:20:24Z</time>
      </trkpt>
      <trkpt lat="48.53238" lon="2.00428">
        <ele>97</ele>
        <time>2017-11-19T15:20:31Z</time>
      </trkpt>
      <trkpt lat="48.53238" lon="2.00442">
        <ele>98</ele>
        <time>2017-11-19T15:20:39Z</time>
      </trkpt>
      <trkpt lat="48.53235" lon="2.00449">
        <ele>98</ele>
        <time>2017-11-19T15:20:43Z</time>
      </trkpt>
      <trkpt lat="48.53231" lon="2.00454">
        <ele>98</ele>
        <time>2017-11-19T15:20:48Z</time>
      </trkpt>
      <trkpt lat="48.53234" lon="2.00468">
        <ele>98</ele>
        <time>2017-11-19T15:20:53Z</time>
      </trkpt>
      <trkpt lat="48.53233" lon="2.00476">
        <ele>98</ele>
        <time>2017-11-19T15:20:57Z</time>
      </trkpt>
      <trkpt lat="48.53226" lon="2.00504">
        <ele>98</ele>
        <time>2017-11-19T15:21:11Z</time>
      </trkpt>
      <trkpt lat="48.53224" lon="2.00529">
        <ele>98</ele>
        <time>2017-11-19T15:21:23Z</time>
      </trkpt>
      <trkpt lat="48.53216" lon="2.0055">
        <ele>98</ele>
        <time>2017-11-19T15:21:35Z</time>
      </trkpt>
      <trkpt lat="48.53215" lon="2.00563">
        <ele>98</ele>
        <time>2017-11-19T15:21:42Z</time>
      </trkpt>
      <trkpt lat="48.53212" lon="2.00576">
        <ele>98</ele>
        <time>2017-11-19T15:21:48Z</time>
      </trkpt>
      <trkpt lat="48.53213" lon="2.00583">
        <ele>98</ele>
        <time>2017-11-19T15:21:52Z</time>
      </trkpt>
      <trkpt lat="48.53207" lon="2.00603">
        <ele>98</ele>
        <time>2017-11-19T15:22:03Z</time>
      </trkpt>
      <trkpt lat="48.53197" lon="2.00618">
        <ele>99</ele>
        <time>2017-11-19T15:22:14Z</time>
      </trkpt>
      <trkpt lat="48.53188" lon="2.00626">
        <ele>99</ele>
        <time>2017-11-19T15:22:20Z</time>
      </trkpt>
      <trkpt lat="48.53185" lon="2.00633">
        <ele>99</ele>
        <time>2017-11-19T15:22:25Z</time>
      </trkpt>
      <trkpt lat="48.53178" lon="2.00643">
        <ele>99</ele>
        <time>2017-11-19T15:22:32Z</time>
      </trkpt>
      <trkpt lat="48.53167" lon="2.0066">
        <ele>99</ele>
        <time>2017-11-19T15:22:43Z</time>
      </trkpt>
      <trkpt lat="48.53161" lon="2.00666">
        <ele>99</ele>
        <time>2017-11-19T15:22:49Z</time>
      </trkpt>
      <trkpt lat="48.53158" lon="2.00671">
        <ele>99</ele>
        <time>2017-11-19T15:22:52Z</time>
      </trkpt>
      <trkpt lat="48.53156" lon="2.00679">
        <ele>99</ele>
        <time>2017-11-19T15:22:57Z</time>
      </trkpt>
      <trkpt lat="48.53156" lon="2.00686">
        <ele>99</ele>
        <time>2017-11-19T15:23:05Z</time>
      </trkpt>
      <trkpt lat="48.53153" lon="2.00693">
        <ele>99</ele>
        <time>2017-11-19T15:23:09Z</time>
      </trkpt>
      <trkpt lat="48.53147" lon="2.00693">
        <ele>99</ele>
        <time>2017-11-19T15:23:17Z</time>
      </trkpt>
      <trkpt lat="48.53142" lon="2.00696">
        <ele>100</ele>
        <time>2017-11-19T15:23:21Z</time>
      </trkpt>
      <trkpt lat="48.53131" lon="2.00716">
        <ele>100</ele>
        <time>2017-11-19T15:23:37Z</time>
      </trkpt>
      <trkpt lat="48.53132" lon="2.00723">
        <ele>100</ele>
        <time>2017-11-19T15:23:43Z</time>
      </trkpt>
      <trkpt lat="48.53138" lon="2.00731">
        <ele>100</ele>
        <time>2017-11-19T15:23:46Z</time>
      </trkpt>
      <trkpt lat="48.53142" lon="2.00738">
        <ele>100</ele>
        <time>2017-11-19T15:23:53Z</time>
      </trkpt>
      <trkpt lat="48.53146" lon="2.00748">
        <ele>101</ele>
        <time>2017-11-19T15:24:02Z</time>
      </trkpt>
      <trkpt lat="48.53148" lon="2.00755">
        <ele>101</ele>
        <time>2017-11-19T15:24:06Z</time>
      </trkpt>
      <trkpt lat="48.53146" lon="2.0077">
        <ele>103</ele>
        <time>2017-11-19T15:24:16Z</time>
      </trkpt>
      <trkpt lat="48.53147" lon="2.00777">
        <ele>103</ele>
        <time>2017-11-19T15:24:20Z</time>
      </trkpt>
      <trkpt lat="48.53156" lon="2.00786">
        <ele>105</ele>
        <time>2017-11-19T15:24:27Z</time>
      </trkpt>
      <trkpt lat="48.53159" lon="2.00792">
        <ele>106</ele>
        <time>2017-11-19T15:24:35Z</time>
      </trkpt>
      <trkpt lat="48.53164" lon="2.00794">
        <ele>106</ele>
        <time>2017-11-19T15:24:43Z</time>
      </trkpt>
      <trkpt lat="48.53168" lon="2.00804">
        <ele>108</ele>
        <time>2017-11-19T15:25:38Z</time>
      </trkpt>
      <trkpt lat="48.5317" lon="2.00813">
        <ele>107</ele>
        <time>2017-11-19T15:25:42Z</time>
      </trkpt>
      <trkpt lat="48.53173" lon="2.00819">
        <ele>108</ele>
        <time>2017-11-19T15:25:46Z</time>
      </trkpt>
      <trkpt lat="48.53174" lon="2.00827">
        <ele>108</ele>
        <time>2017-11-19T15:25:50Z</time>
      </trkpt>
      <trkpt lat="48.53183" lon="2.00835">
        <ele>109</ele>
        <time>2017-11-19T15:26:00Z</time>
      </trkpt>
      <trkpt lat="48.53188" lon="2.00837">
        <ele>110</ele>
        <time>2017-11-19T15:26:05Z</time>
      </trkpt>
      <trkpt lat="48.53199" lon="2.00855">
        <ele>112</ele>
        <time>2017-11-19T15:26:21Z</time>
      </trkpt>
      <trkpt lat="48.53209" lon="2.00868">
        <ele>115</ele>
        <time>2017-11-19T15:26:59Z</time>
      </trkpt>
      <trkpt lat="48.53216" lon="2.00877">
        <ele>116</ele>
        <time>2017-11-19T15:27:05Z</time>
      </trkpt>
      <trkpt lat="48.53224" lon="2.00887">
        <ele>116</ele>
        <time>2017-11-19T15:27:14Z</time>
      </trkpt>
      <trkpt lat="48.53225" lon="2.00894">
        <ele>116</ele>
        <time>2017-11-19T15:27:18Z</time>
      </trkpt>
      <trkpt lat="48.5323" lon="2.00907">
        <ele>116</ele>
        <time>2017-11-19T15:27:29Z</time>
      </trkpt>
      <trkpt lat="48.53228" lon="2.00915">
        <ele>116</ele>
        <time>2017-11-19T15:27:33Z</time>
      </trkpt>
      <trkpt lat="48.53225" lon="2.0092">
        <ele>115</ele>
        <time>2017-11-19T15:27:36Z</time>
      </trkpt>
      <trkpt lat="48.53227" lon="2.00926">
        <ele>115</ele>
        <time>2017-11-19T15:27:42Z</time>
      </trkpt>
      <trkpt lat="48.53236" lon="2.00937">
        <ele>115</ele>
        <time>2017-11-19T15:27:49Z</time>
      </trkpt>
      <trkpt lat="48.53246" lon="2.00937">
        <ele>115</ele>
        <time>2017-11-19T15:27:54Z</time>
      </trkpt>
      <trkpt lat="48.5325" lon="2.00937">
        <ele>115</ele>
        <time>2017-11-19T15:27:57Z</time>
      </trkpt>
      <trkpt lat="48.53255" lon="2.00936">
        <ele>115</ele>
        <time>2017-11-19T15:28:00Z</time>
      </trkpt>
      <trkpt lat="48.53259" lon="2.00937">
        <ele>115</ele>
        <time>2017-11-19T15:28:05Z</time>
      </trkpt>
      <trkpt lat="48.53268" lon="2.00935">
        <ele>115</ele>
        <time>2017-11-19T15:28:14Z</time>
      </trkpt>
      <trkpt lat="48.53271" lon="2.0094">
        <ele>115</ele>
        <time>2017-11-19T15:28:19Z</time>
      </trkpt>
      <trkpt lat="48.53277" lon="2.00941">
        <ele>116</ele>
        <time>2017-11-19T15:28:22Z</time>
      </trkpt>
      <trkpt lat="48.53286" lon="2.00937">
        <ele>116</ele>
        <time>2017-11-19T15:28:26Z</time>
      </trkpt>
      <trkpt lat="48.53291" lon="2.00938">
        <ele>116</ele>
        <time>2017-11-19T15:28:31Z</time>
      </trkpt>
      <trkpt lat="48.53311" lon="2.00953">
        <ele>116</ele>
        <time>2017-11-19T15:28:47Z</time>
      </trkpt>
      <trkpt lat="48.53327" lon="2.00961">
        <ele>116</ele>
        <time>2017-11-19T15:29:00Z</time>
      </trkpt>
      <trkpt lat="48.53336" lon="2.00962">
        <ele>116</ele>
        <time>2017-11-19T15:29:10Z</time>
      </trkpt>
      <trkpt lat="48.53341" lon="2.00959">
        <ele>116</ele>
        <time>2017-11-19T15:29:16Z</time>
      </trkpt>
      <trkpt lat="48.53343" lon="2.00952">
        <ele>116</ele>
        <time>2017-11-19T15:29:56Z</time>
      </trkpt>
      <trkpt lat="48.53342" lon="2.00945">
        <ele>117</ele>
        <time>2017-11-19T15:30:02Z</time>
      </trkpt>
      <trkpt lat="48.5334" lon="2.00938">
        <ele>116</ele>
        <time>2017-11-19T15:30:07Z</time>
      </trkpt>
      <trkpt lat="48.53348" lon="2.00934">
        <ele>118</ele>
        <time>2017-11-19T15:30:34Z</time>
      </trkpt>
      <trkpt lat="48.53354" lon="2.00937">
        <ele>120</ele>
        <time>2017-11-19T15:30:42Z</time>
      </trkpt>
      <trkpt lat="48.53369" lon="2.00941">
        <ele>120</ele>
        <time>2017-11-19T15:30:54Z</time>
      </trkpt>
      <trkpt lat="48.53354" lon="2.00936">
        <ele>120</ele>
        <time>2017-11-19T15:31:09Z</time>
      </trkpt>
      <trkpt lat="48.53344" lon="2.00935">
        <ele>118</ele>
        <time>2017-11-19T15:31:26Z</time>
      </trkpt>
      <trkpt lat="48.5334" lon="2.00937">
        <ele>115</ele>
        <time>2017-11-19T15:31:35Z</time>
      </trkpt>
      <trkpt lat="48.5334" lon="2.00944">
        <ele>115</ele>
        <time>2017-11-19T15:31:39Z</time>
      </trkpt>
      <trkpt lat="48.53337" lon="2.00952">
        <ele>115</ele>
        <time>2017-11-19T15:31:43Z</time>
      </trkpt>
      <trkpt lat="48.53338" lon="2.00963">
        <ele>115</ele>
        <time>2017-11-19T15:31:52Z</time>
      </trkpt>
      <trkpt lat="48.53341" lon="2.00969">
        <ele>116</ele>
        <time>2017-11-19T15:32:02Z</time>
      </trkpt>
      <trkpt lat="48.53344" lon="2.00963">
        <ele>116</ele>
        <time>2017-11-19T15:32:12Z</time>
      </trkpt>
      <trkpt lat="48.53346" lon="2.00957">
        <ele>116</ele>
        <time>2017-11-19T15:32:15Z</time>
      </trkpt>
      <trkpt lat="48.53349" lon="2.0095">
        <ele>116</ele>
        <time>2017-11-19T15:32:19Z</time>
      </trkpt>
      <trkpt lat="48.53357" lon="2.00939">
        <ele>116</ele>
        <time>2017-11-19T15:32:25Z</time>
      </trkpt>
      <trkpt lat="48.53358" lon="2.00932">
        <ele>116</ele>
        <time>2017-11-19T15:32:28Z</time>
      </trkpt>
    </trkseg>
  </trk>
</gpx>